[[{"header":{"parameterUnit":"m.s-1","parameterCategory":1,"la1":30.6,"la2":28.766,"lo1":-90.7593,"lo2":-88.6598,"dy":0.0162,"dx":0.0183,"nx":116,"ny":114,"refTime":"2024-03-11T18:00:00:Z","depth":0,"parameterNumber":2,"parameterNumberName":"U-component_of_WINDS"},"data":[0.0,0.0,0.0,0.0,0.0,0.0,0.0,0.0,0.0,0.0,0.0,0.0,0.0,0.0,0.0,0.0,0.0,0.0,0.0,0.0,0.0,0.0,0.0,0.0,0.0,0.0,0.0,0.0,0.0,0.0,0.0,0.0,0.0,0.0,0.0,0.0,0.0,0.0,0.0,0.0,0.0,0.0,0.0,0.0,0.0,0.0,0.0,0.0,0.0,0.0,0.0,0.0,0.0,0.0,0.0,0.0,0.0,0.0,0.0,0.0,0.0,0.0,0.0,0.0,0.0,0.0,0.0,0.0,0.0,0.0,0.0,0.0,0.0,0.0,0.0,0.0,0.0,0.0,0.0,0.0,0.0,0.0,0.0,0.0,0.0,0.0,0.0,0.0,0.0,0.0,0.0,0.0,0.0,0.0,0.0,0.0,0.0,0.0,0.0,0.0,0.0,0.0,0.0,0.0,0.0,0.0,0.0,0.0,0.0,0.0,0.0,0.0,0.0,0.0,0.0,0.0,0.0,0.0,0.0,0.0,0.0,0.0,0.0,0.0,0.0,0.0,0.0,0.0,0.0,0.0,0.0,0.0,0.0,0.0,0.0,0.0,0.0,0.0,0.0,0.0,0.0,0.0,0.0,0.0,0.0,0.0,0.0,0.0,0.0,0.0,0.0,0.0,0.0,0.0,0.0,0.0,0.0,0.0,0.0,0.0,0.0,0.0,0.0,0.0,0.0,0.0,0.0,0.0,0.0,0.0,0.0,0.0,0.0,0.0,0.0,0.0,0.0,0.0,0.0,0.0,0.0,0.0,0.0,0.0,0.0,0.0,0.0,0.0,0.0,0.0,0.0,0.0,0.0,0.0,0.0,0.0,0.0,0.0,0.0,0.0,0.0,0.0,0.0,0.0,0.0,0.0,0.0,0.0,0.0,0.0,0.0,0.0,0.0,0.0,0.0,0.0,0.0,0.0,0.0,0.0,0.0,0.0,0.0,0.0,0.0,0.0,0.0,0.0,0.0,0.0,0.0,0.0,0.0,0.0,0.0,0.0,0.0,0.0,0.0,0.0,0.0,0.0,0.0,0.0,0.0,0.0,0.0,0.0,0.0,0.0,0.0,0.0,0.0,0.0,0.0,0.0,0.0,0.0,0.0,0.0,0.0,0.0,0.0,0.0,0.0,0.0,0.0,0.0,0.0,0.0,0.0,0.0,0.0,0.0,0.0,0.0,0.0,0.0,0.0,0.0,0.0,0.0,0.0,0.0,0.0,0.0,0.0,0.0,0.0,0.0,0.0,0.0,0.0,0.0,0.0,0.0,0.0,0.0,0.0,0.0,0.0,0.0,0.0,0.0,0.0,0.0,0.0,0.0,0.0,0.0,0.0,0.0,0.0,0.0,0.0,0.0,0.0,0.0,0.0,0.0,0.0,0.0,0.0,0.0,0.0,0.0,0.0,0.0,0.0,0.0,0.0,0.0,0.0,0.0,0.0,0.0,0.0,0.0,0.0,0.0,0.0,0.0,0.0,0.0,0.0,0.0,0.0,0.0,0.0,0.0,0.0,0.0,0.0,0.0,0.0,0.0,0.0,0.0,0.0,0.0,0.0,0.0,0.0,0.0,0.0,0.0,0.0,0.0,0.0,0.0,0.0,0.0,0.0,0.0,0.0,0.0,0.0,0.0,0.0,0.0,0.0,0.0,0.0,0.0,0.0,0.0,0.0,0.0,0.0,0.0,0.0,0.0,0.0,0.0,0.0,0.0,0.0,0.0,0.0,0.0,0.0,0.0,0.0,0.0,0.0,0.0,0.0,0.0,0.0,0.0,0.0,0.0,0.0,0.0,0.0,0.0,0.0,0.0,0.0,0.0,0.0,0.0,0.0,0.0,0.0,0.0,0.0,0.0,0.0,0.0,0.0,0.0,0.0,0.0,0.0,0.0,0.0,0.0,0.0,0.0,0.0,0.0,0.0,0.0,0.0,0.0,0.0,0.0,0.0,0.0,0.0,0.0,0.0,0.0,0.0,0.0,0.0,0.0,0.0,0.0,0.0,0.0,0.0,0.0,0.0,0.0,0.0,0.0,0.0,0.0,0.0,0.0,0.0,0.0,0.0,0.0,0.0,0.0,0.0,0.0,0.0,0.0,0.0,0.0,0.0,0.0,0.0,0.0,0.0,0.0,0.0,0.0,0.0,0.0,0.0,0.0,0.0,0.0,0.0,0.0,0.0,0.0,0.0,0.0,0.0,0.0,0.0,0.0,0.0,0.0,0.0,0.0,0.0,0.0,0.0,0.0,0.0,0.0,0.0,0.0,0.0,0.0,0.0,0.0,0.0,0.0,0.0,0.0,0.0,0.0,0.0,0.0,0.0,0.0,0.0,0.0,0.0,0.0,0.0,0.0,0.0,0.0,0.0,0.0,0.0,0.0,0.0,0.0,0.0,0.0,0.0,0.0,0.0,0.0,0.0,0.0,0.0,0.0,0.0,0.0,0.0,0.0,0.0,0.0,0.0,0.0,0.0,0.0,0.0,0.0,0.0,0.0,0.0,0.0,0.0,0.0,0.0,0.0,0.0,0.0,0.0,0.0,0.0,0.0,0.0,0.0,0.0,0.0,0.0,0.0,0.0,0.0,0.0,0.0,0.0,0.0,0.0,0.0,0.0,0.0,0.0,0.0,0.0,0.0,0.0,0.0,0.0,0.0,0.0,0.0,0.0,0.0,0.0,0.0,0.0,0.0,0.0,0.0,0.0,0.0,0.0,0.0,0.0,0.0,0.0,0.0,0.0,0.0,0.0,0.0,0.0,0.0,0.0,0.0,0.0,0.0,0.0,0.0,0.0,0.0,0.0,0.0,0.0,0.0,0.0,0.0,0.0,0.0,0.0,0.0,0.0,0.0,0.0,0.0,0.0,0.0,0.0,0.0,0.0,0.0,0.0,0.0,0.0,0.0,0.0,0.0,0.0,0.0,0.0,0.0,0.0,0.0,0.0,0.0,0.0,0.0,0.0,0.0,0.0,0.0,0.0,0.0,0.0,0.0,0.0,0.0,0.0,0.0,0.0,0.0,0.0,0.0,0.0,0.0,0.0,0.0,0.0,0.0,0.0,0.0,0.0,0.0,0.0,0.0,0.0,0.0,0.0,0.0,0.0,0.0,0.0,0.0,0.0,0.0,0.0,0.0,0.0,0.0,0.0,0.0,0.0,0.0,0.0,0.0,0.0,0.0,0.0,0.0,0.0,0.0,0.0,0.0,0.0,0.0,0.0,0.0,0.0,0.0,0.0,0.0,0.0,0.0,0.0,0.0,0.0,0.0,0.0,0.0,0.0,0.0,0.0,0.0,0.0,0.0,0.0,0.0,0.0,0.0,0.0,0.0,0.0,0.0,0.0,0.0,0.0,0.0,0.0,0.0,0.0,0.0,0.0,0.0,0.0,0.0,0.0,0.0,0.0,0.0,0.0,0.0,0.0,0.0,0.0,0.0,0.0,0.0,0.0,0.0,0.0,0.0,0.0,0.0,0.0,0.0,0.0,0.0,0.0,0.0,0.0,0.0,0.0,0.0,0.0,0.0,0.0,0.0,0.0,0.0,0.0,0.0,0.0,0.0,0.0,0.0,0.0,0.0,0.0,0.0,0.0,0.0,0.0,0.0,0.0,0.0,0.0,0.0,0.0,0.0,0.0,0.0,0.0,0.0,0.0,0.0,0.0,0.0,0.0,0.0,0.0,0.0,0.0,0.0,0.0,0.0,0.0,0.0,0.0,0.0,0.0,0.0,0.0,0.0,0.0,0.0,0.0,0.0,0.0,0.0,0.0,0.0,0.0,0.0,0.0,0.0,0.0,0.0,0.0,0.0,0.0,0.0,0.0,0.0,0.0,0.0,0.0,0.0,0.0,0.0,0.0,0.0,0.0,0.0,0.0,0.0,0.0,0.0,0.0,0.0,0.0,0.0,0.0,0.0,0.0,0.0,0.0,0.0,0.0,0.0,0.0,0.0,0.0,0.0,0.0,0.0,0.0,0.0,0.0,0.0,0.0,0.0,0.0,0.0,0.0,0.0,0.0,0.0,0.0,0.0,0.0,0.0,0.0,0.0,0.0,0.0,0.0,0.0,0.0,0.0,0.0,0.0,0.0,0.0,0.0,0.0,0.0,0.0,0.0,0.0,0.0,0.0,0.0,0.0,0.0,0.0,0.0,0.0,0.0,0.0,0.0,0.0,0.0,0.0,0.0,0.0,0.0,0.0,0.0,0.0,0.0,0.0,0.0,0.0,0.0,0.0,0.0,0.0,0.0,0.0,0.0,0.0,0.0,0.0,0.0,0.0,0.0,0.0,0.0,0.0,0.0,0.0,0.0,0.0,0.0,0.0,0.0,0.0,0.0,0.0,0.0,0.0,0.0,0.0,0.0,0.0,0.0,0.0,0.0,0.0,0.0,0.0,0.0,0.0,0.0,0.0,0.0,0.0,0.0,0.0,0.0,0.0,0.0,0.0,0.0,0.0,0.0,0.0,0.0,0.0,0.0,0.0,0.0,0.0,0.0,0.0,0.0,0.0,0.0,0.0,0.0,0.0,0.0,0.0,0.0,0.0,0.0,0.0,0.0,0.0,0.0,0.0,0.0,0.0,0.0,0.0,0.0,0.0,0.0,0.0,0.0,0.0,0.0,0.0,0.0,0.0,0.0,0.0,0.0,0.0,0.0,0.0,0.0,0.0,0.0,0.0,0.0,0.0,0.0,0.0,0.0,0.0,0.0,0.0,0.0,0.0,0.0,0.0,0.0,0.0,0.0,0.0,0.0,0.0,0.0,0.0,0.0,0.0,0.0,0.0,0.0,0.0,0.0,0.0,0.0,0.0,0.0,0.0,0.0,0.0,0.0,0.0,0.0,0.0,0.0,0.0,0.0,0.0,0.0,0.0,0.0,0.0,0.0,0.0,0.0,0.0,0.0,0.0,0.0,0.0,0.0,0.0,0.0,0.0,0.0,0.0,0.0,0.0,0.0,0.0,0.0,0.0,0.0,0.0,0.0,0.0,0.0,0.0,0.0,0.0,0.0,0.0,0.0,0.0,0.0,0.0,0.0,0.0,0.0,0.0,0.0,0.0,0.0,0.0,0.0,0.0,0.0,0.0,0.0,0.0,0.0,0.0,0.0,0.0,0.0,0.0,0.0,0.0,0.0,0.0,0.0,0.0,0.0,0.0,0.0,0.0,0.0,0.0,0.0,0.0,0.0,0.0,0.0,0.0,0.0,0.0,0.0,0.0,0.0,0.0,0.0,0.0,0.0,0.0,0.0,0.0,0.0,0.0,0.0,0.0,0.0,0.0,0.0,0.0,0.0,0.0,0.0,0.0,0.0,0.0,0.0,0.0,0.0,0.0,0.0,0.0,0.0,0.0,0.0,0.0,0.0,0.0,0.0,0.0,0.0,0.0,0.0,0.0,0.0,0.0,0.0,0.0,0.0,0.0,0.0,0.0,0.0,0.0,0.0,0.0,0.0,0.0,0.0,0.0,0.0,0.0,0.0,0.0,0.0,0.0,0.0,0.0,0.0,0.0,0.0,0.0,0.0,0.0,0.0,0.0,0.0,0.0,0.0,0.0,0.0,0.0,0.0,0.0,0.0,0.0,0.0,0.0,0.0,0.0,0.0,0.0,0.0,0.0,0.0,0.0,0.0,0.0,0.0,0.0,0.0,0.0,0.0,0.0,0.0,0.0,0.0,0.0,0.0,0.0,0.0,0.0,0.0,0.0,0.0,0.0,0.0,0.0,0.0,0.0,0.0,0.0,0.0,0.0,0.0,0.0,0.0,0.0,0.0,0.0,0.0,0.0,0.0,0.0,0.0,0.0,0.0,0.0,0.0,0.0,0.0,0.0,0.0,0.0,0.0,0.0,0.0,0.0,0.0,0.0,0.0,0.0,0.0,0.0,0.0,0.0,0.0,0.0,0.0,0.0,0.0,0.0,0.0,0.0,0.0,0.0,0.0,0.0,0.0,0.0,0.0,0.0,0.0,0.0,0.0,0.0,0.0,0.0,0.0,0.0,0.0,0.0,0.0,0.0,0.0,0.0,0.0,0.0,0.0,0.0,0.0,0.0,0.0,0.0,0.0,0.0,0.0,0.0,-3.5385,0.0,0.0,0.0,0.0,0.0,0.0,0.0,0.0,0.0,0.0,0.0,0.0,0.0,0.0,0.0,0.0,0.0,0.0,0.0,0.0,0.0,0.0,0.0,0.0,0.0,0.0,0.0,-1.8865,-1.8696,-1.8369,-1.8335,0.0,0.0,0.0,0.0,0.0,0.0,-1.7557,-1.9384,-2.0467,-2.3646,-2.8687,-2.5609,-2.3004,-2.0805,0.0,0.0,0.0,0.0,0.0,0.0,0.0,0.0,0.0,0.0,0.0,0.0,0.0,0.0,0.0,0.0,0.0,0.0,0.0,0.0,0.0,0.0,0.0,0.0,0.0,0.0,0.0,0.0,0.0,0.0,0.0,0.0,0.0,0.0,0.0,0.0,0.0,0.0,0.0,0.0,0.0,0.0,0.0,0.0,0.0,0.0,0.0,0.0,0.0,0.0,0.0,0.0,0.0,0.0,0.0,0.0,0.0,0.0,0.0,0.0,0.0,0.0,0.0,0.0,0.0,0.0,0.0,0.0,0.0,0.0,0.0,-3.5859,0.0,0.0,0.0,0.0,0.0,0.0,0.0,0.0,0.0,0.0,0.0,0.0,0.0,0.0,0.0,0.0,0.0,0.0,0.0,0.0,0.0,0.0,0.0,-1.9227,-1.9655,-2.0521,-2.0352,-2.0014,-1.9519,-1.9249,-1.8775,-1.802,-1.8121,-1.8121,-1.7986,-1.8268,-1.998,-2.326,-2.6793,-3.0717,-3.4945,-3.5081,-3.3152,-2.9364,-2.3883,0.0,0.0,0.0,0.0,0.0,0.0,0.0,0.0,0.0,0.0,0.0,0.0,0.0,0.0,0.0,0.0,0.0,0.0,0.0,0.0,0.0,0.0,0.0,0.0,0.0,0.0,0.0,0.0,0.0,0.0,0.0,0.0,0.0,0.0,0.0,0.0,0.0,0.0,0.0,0.0,0.0,0.0,0.0,0.0,0.0,0.0,0.0,0.0,0.0,0.0,0.0,0.0,0.0,0.0,0.0,0.0,0.0,0.0,0.0,0.0,0.0,0.0,0.0,-4.1136,-4.1847,-4.2429,-4.2429,-4.4485,-4.7699,-4.276,-4.2625,-4.5263,-3.7077,0.0,0.0,0.0,0.0,0.0,0.0,0.0,0.0,0.0,0.0,0.0,0.0,0.0,0.0,0.0,0.0,0.0,0.0,0.0,0.0,0.0,-2.0467,-2.1461,-2.2835,-2.1786,-2.1278,-2.182,-2.0589,-1.9541,-1.8775,-1.9372,-1.9406,-1.8775,-2.0073,-2.2835,-2.708,-3.5825,-4.046,-4.1136,-4.1779,-4.1753,-4.0907,-3.4404,-3.1495,-3.119,0.0,0.0,0.0,0.0,0.0,0.0,0.0,0.0,0.0,0.0,0.0,0.0,0.0,0.0,0.0,0.0,0.0,0.0,0.0,0.0,0.0,0.0,0.0,0.0,0.0,0.0,0.0,0.0,0.0,0.0,0.0,0.0,0.0,0.0,0.0,0.0,0.0,0.0,0.0,0.0,0.0,-3.7855,-3.7956,0.0,0.0,0.0,0.0,0.0,0.0,0.0,0.0,0.0,0.0,0.0,0.0,0.0,-3.8768,-3.9792,-4.3673,-4.5669,-4.5805,-4.9729,-5.1657,-5.1725,-5.1725,-5.2063,-5.257,-5.1792,0.0,-4.6515,-4.4587,0.0,0.0,0.0,0.0,0.0,0.0,0.0,0.0,0.0,0.0,0.0,0.0,0.0,0.0,0.0,0.0,0.0,0.0,0.0,0.0,0.0,-2.4372,-2.6336,-2.8231,-2.8958,-2.818,-2.5559,-2.4747,-2.2922,-1.9676,-1.9845,-2.0048,-2.0175,-2.3274,-2.8552,-3.596,-4.1914,-4.5229,-4.6075,-4.6413,-4.6549,-4.6413,-4.347,-3.9614,-3.5081,-3.1935,0.0,0.0,0.0,0.0,0.0,0.0,0.0,0.0,0.0,0.0,0.0,0.0,0.0,0.0,0.0,0.0,0.0,0.0,0.0,0.0,0.0,0.0,0.0,0.0,0.0,0.0,0.0,0.0,0.0,0.0,0.0,0.0,0.0,0.0,0.0,0.0,0.0,0.0,0.0,-3.4573,-3.6772,-3.7675,-3.5272,-3.2408,0.0,0.0,0.0,0.0,0.0,0.0,0.0,0.0,0.0,-4.3234,-4.3775,-4.5196,-4.7631,-4.9593,-5.0574,-5.0574,-5.257,-5.3518,-5.3518,-5.3518,-5.3518,-5.3518,-5.3518,-5.2367,-5.0338,-4.7496,-4.3944,-4.002,0.0,0.0,0.0,0.0,-3.64,-3.6772,0.0,0.0,0.0,0.0,0.0,0.0,0.0,0.0,0.0,0.0,0.0,0.0,-2.5659,-2.8976,-3.1819,-3.385,-3.5182,-3.4146,-3.0055,-2.8737,-2.61,-2.1637,-2.088,-2.0961,-2.1732,-2.7435,-3.4404,-4.2591,-4.5771,-4.7902,-4.9018,-4.9018,-4.9018,-4.9018,-4.9018,-4.5602,-3.9774,-3.7449,-3.4134,-3.0108,0.0,0.0,0.0,0.0,0.0,0.0,0.0,0.0,0.0,0.0,0.0,0.0,0.0,0.0,0.0,0.0,0.0,0.0,0.0,0.0,0.0,0.0,0.0,0.0,0.0,0.0,0.0,0.0,0.0,0.0,0.0,0.0,0.0,0.0,0.0,0.0,0.0,-3.6129,-3.8125,-3.8725,-3.8115,-3.5893,0.0,0.0,0.0,0.0,0.0,0.0,-4.1204,-4.232,-4.4654,-4.8409,-4.9052,-5.0676,-5.3484,-5.3518,-5.3518,-5.3518,-5.3518,-5.3518,-5.3518,-5.3518,-5.3518,-5.3518,-5.3518,-5.3518,-5.3247,-4.9898,-4.7631,-4.594,-4.2591,-4.0358,-3.9276,-4.1313,-4.1745,-4.2049,0.0,0.0,0.0,0.0,0.0,0.0,0.0,0.0,0.0,0.0,0.0,-2.8027,-2.9634,-3.3761,-3.7032,-3.8531,-3.7506,-3.6299,-3.5261,-3.1258,-2.7859,-2.5423,-2.3294,-2.253,-2.3274,-3.2544,-3.9343,-4.3341,-4.709,-4.8951,-4.9018,-4.9018,-4.9018,-4.9018,-4.9018,-4.8781,-4.8105,-4.3741,-4.1339,-3.9681,-3.0345,0.0,0.0,0.0,0.0,0.0,0.0,0.0,0.0,0.0,0.0,0.0,0.0,0.0,0.0,0.0,0.0,0.0,0.0,0.0,0.0,0.0,0.0,0.0,0.0,0.0,0.0,0.0,0.0,0.0,0.0,0.0,0.0,0.0,0.0,0.0,0.0,0.0,0.0,-4.4445,-4.5365,0.0,0.0,0.0,0.0,-3.9706,-4.0561,-4.2963,-4.7196,-4.75,-4.9258,-5.3044,-5.3213,-5.3315,-5.3518,-5.3518,-5.3518,-5.3518,-5.3518,-5.3518,-5.3518,-5.3518,-5.3518,-5.3518,-5.3518,-5.3518,-5.3484,-5.3281,-5.1048,-4.777,-4.7534,-4.5263,-4.2523,-4.6177,-4.7466,-4.8037,0.0,0.0,0.0,0.0,0.0,0.0,0.0,0.0,-1.9147,-1.99,-2.5,-2.933,-3.1292,-3.7212,-4.1677,-4.3166,-4.4147,-4.3301,-4.0121,-3.5723,-3.2476,-3.0717,-2.7097,-2.7943,-3.402,-3.8937,-4.3267,-4.7022,-4.8342,-4.9018,-4.9018,-4.9018,-4.9018,-4.9018,-4.9018,-4.9018,-4.8917,-4.7293,-4.479,-4.1542,-3.7618,-3.2408,0.0,0.0,0.0,0.0,0.0,0.0,0.0,0.0,0.0,0.0,0.0,0.0,0.0,0.0,0.0,0.0,0.0,0.0,0.0,0.0,0.0,0.0,0.0,0.0,0.0,0.0,0.0,0.0,0.0,0.0,0.0,0.0,0.0,0.0,0.0,0.0,0.0,-4.4113,-4.6007,0.0,-4.1914,-4.3707,-4.5128,-4.5122,-4.7597,-4.983,-5.142,-5.1522,-5.2131,-5.345,-5.3518,-5.3518,-5.3518,-5.3518,-5.3518,-5.3518,-5.3518,-5.3518,-5.3518,-5.3518,-5.3518,-5.3518,-5.3518,-5.3518,-5.3518,-5.3518,-5.2706,-5.1522,-5.1522,-5.071,-4.9661,-5.1014,-5.1522,-5.1725,0.0,0.0,0.0,0.0,0.0,0.0,0.0,0.0,-2.0196,-2.2719,-2.7807,-3.2442,-3.569,-4.1576,-4.5703,-4.6718,-4.8139,-4.7293,-4.3362,-3.9106,-3.5859,-3.3863,-3.092,-3.2916,-4.0688,-4.2794,-4.55,-4.9018,-4.9018,-4.9018,-4.9018,-4.9018,-4.9018,-4.9018,-4.9018,-4.9018,-4.9018,-4.9018,-4.7293,-4.4384,-4.2388,-3.8024,-3.2239,0.0,0.0,0.0,0.0,0.0,0.0,0.0,0.0,0.0,0.0,0.0,0.0,0.0,0.0,0.0,0.0,0.0,0.0,0.0,0.0,0.0,0.0,0.0,0.0,0.0,0.0,0.0,0.0,0.0,0.0,0.0,0.0,0.0,0.0,0.0,-4.6346,-4.4079,-4.7361,-4.8308,-4.4553,-4.7597,-4.9796,-4.9763,-5.2097,-5.3518,-5.3518,-5.3518,-5.3518,-5.3518,-5.3518,-5.3518,-5.3518,-5.3518,-5.3518,-5.3518,-5.3518,-5.3518,-5.3518,-5.3518,-5.3518,-5.3518,-5.3518,-5.3518,-5.3518,-5.3518,-5.3518,-5.3518,-5.3518,-5.3518,-5.3518,-5.3518,-5.3518,-5.3518,0.0,0.0,0.0,0.0,0.0,0.0,0.0,-1.9541,-2.2178,-2.8197,-3.2848,-3.7594,-4.2801,-4.6752,-4.9018,-4.9018,-4.9018,-4.7767,-4.4852,-4.1102,-3.7686,-3.4709,-3.4776,-3.7246,-4.232,-4.3972,-4.6143,-4.9018,-4.9018,-4.9018,-4.9018,-4.9018,-4.9018,-4.9018,-4.9018,-4.9018,-4.9018,-4.9018,-4.9018,-4.8612,-4.4248,-4.2422,-4.1441,0.0,0.0,0.0,0.0,0.0,0.0,0.0,0.0,0.0,0.0,0.0,0.0,0.0,0.0,0.0,0.0,0.0,0.0,0.0,0.0,0.0,0.0,0.0,0.0,0.0,0.0,0.0,0.0,0.0,0.0,0.0,0.0,0.0,-4.2726,-4.5703,-4.7293,-4.5156,-4.9965,-5.2063,-4.8413,-5.1386,-5.3518,-5.3518,-5.3518,-5.3518,-5.3518,-5.3518,-5.3518,-5.3518,-5.3518,-5.3518,-5.3518,-5.3518,-5.3518,-5.3518,-5.3518,-5.3518,-5.3518,-5.3518,-5.3518,-5.3518,-5.3518,-5.3518,-5.3518,-5.3518,-5.3518,-5.3518,-5.3518,-5.3518,-5.3518,-5.3518,-5.3518,-5.3518,0.0,0.0,0.0,0.0,0.0,0.0,0.0,-2.0027,-2.2632,-2.7503,-3.2983,-3.8024,-4.2151,-4.6447,-4.9018,-4.9018,-4.9018,-4.8206,-4.6312,-4.1677,-3.8125,-3.6254,-4.0798,-4.4079,-4.5534,-4.7022,-4.8173,-4.9018,-4.9018,-4.9018,-4.9018,-4.9018,-4.9018,-4.9018,-4.9018,-4.9018,-4.9018,-4.9018,-4.9018,-4.8883,-4.7665,-4.5196,-4.2049,0.0,0.0,0.0,0.0,0.0,0.0,0.0,0.0,0.0,0.0,0.0,0.0,0.0,0.0,0.0,0.0,0.0,0.0,0.0,0.0,0.0,0.0,0.0,0.0,0.0,0.0,0.0,0.0,0.0,0.0,0.0,-4.276,-4.6278,-4.5635,-4.9255,-5.1725,-5.1116,-5.2503,-5.3112,-5.2063,-5.2909,-5.3518,-5.3518,-5.3518,-5.3518,-5.3518,-5.3518,-5.3518,-5.3518,-5.3518,-5.3518,-5.3518,-5.3518,-5.3518,-5.3518,-5.3518,-5.3518,-5.3518,-5.3518,-5.3518,-5.3518,-5.3518,-5.3518,-5.3518,-5.3518,-5.3518,-5.3518,-5.3518,-5.3518,-5.3518,-5.3518,-5.3518,-5.3518,0.0,0.0,0.0,0.0,0.0,0.0,0.0,-2.0886,-2.3917,-3.0224,-3.4404,-3.8928,-4.4485,-4.7428,-4.9018,-4.9018,-4.8443,-4.7293,-4.55,-4.1644,-3.9783,-4.0493,-4.4248,-4.6786,-4.7699,-4.8545,-4.9018,-4.9018,-4.9018,-4.9018,-4.9018,-4.9018,-4.9018,-4.9018,-4.9018,-4.9018,-4.9018,-4.9018,-4.9018,-4.9018,-4.9018,-4.7428,-4.4959,-4.3707,-4.1441,-3.8744,-3.7831,-3.7087,-3.6479,-3.5926,0.0,0.0,0.0,0.0,0.0,0.0,0.0,0.0,0.0,0.0,0.0,0.0,0.0,0.0,0.0,0.0,0.0,0.0,0.0,0.0,0.0,0.0,0.0,0.0,-4.6684,-4.9593,-4.9593,-5.186,-5.3518,-5.3518,-5.3518,-5.3518,-5.3518,-5.3518,-5.3518,-5.3518,-5.3518,-5.3518,-5.3518,-5.3518,-5.3518,-5.3518,-5.3518,-5.3518,-5.3518,-5.3518,-5.3518,-5.3518,-5.3518,-5.3518,-5.3518,-5.3518,-5.3518,-5.3518,-5.3518,-5.3518,-5.3518,-5.3518,-5.3518,0.0,0.0,0.0,0.0,0.0,-5.3518,-5.3518,0.0,0.0,0.0,0.0,0.0,0.0,0.0,-2.1887,-2.5592,-3.445,-3.6366,-4.0011,-4.8139,-4.9018,-4.9018,-4.9018,-4.7733,-4.5974,-4.3707,-4.1847,-4.2286,-4.5568,-4.594,-4.6989,-4.8951,-4.9018,-4.9018,-4.9018,-4.9018,-4.9018,-4.9018,-4.9018,-4.9018,-4.9018,-4.9018,-4.9018,-4.9018,-4.9018,-4.9018,-4.9018,-4.9018,-4.9018,-4.8714,-4.6075,-4.4688,-4.3882,-4.1922,-4.0468,-3.9614,-4.0087,0.0,0.0,0.0,0.0,0.0,0.0,0.0,0.0,0.0,0.0,0.0,0.0,0.0,0.0,0.0,0.0,0.0,0.0,0.0,0.0,0.0,0.0,0.0,0.0,-5.0608,-5.3518,-5.3518,-5.3518,-5.3518,-5.3518,-5.3518,-5.3518,-5.3518,-5.3518,-5.3518,-5.3518,-5.3518,-5.3518,-5.3518,0.0,0.0,0.0,0.0,-5.3619,-5.3619,-5.3721,-5.3754,-5.3754,-5.3754,-5.3721,-5.3619,-5.3619,-5.3585,-5.3518,-5.3518,-5.3518,-5.3518,-5.3518,-5.3518,-5.3518,-5.3518,-5.3518,-5.3518,-5.3518,-5.3518,-5.3518,0.0,0.0,0.0,0.0,0.0,0.0,0.0,-2.2341,-2.6184,-3.4518,-3.684,-4.0595,-4.8173,-4.9018,-4.9018,-4.9018,-4.8206,-4.6752,-4.4485,-4.506,-4.5568,-4.5703,-4.7428,-4.8578,-4.8984,-4.9018,-4.9018,-4.9018,-4.9018,-4.9018,-4.9018,-4.9018,-4.9018,-4.9018,-4.9018,-4.9018,-4.9018,-4.9018,-4.9018,-4.9018,-4.9018,-4.9018,-4.8951,-4.8376,-4.8409,-4.8748,-4.8308,-4.8748,-4.9357,-4.8308,-4.6278,-4.3978,-4.2726,-3.969,0.0,0.0,0.0,0.0,0.0,0.0,0.0,0.0,0.0,0.0,0.0,0.0,0.0,0.0,0.0,0.0,0.0,0.0,0.0,-4.7496,-5.098,-5.3518,-5.3518,-5.3518,-5.3518,-5.3518,-5.3518,-5.3518,-5.3518,-5.3518,-5.3518,-5.3518,-5.3518,-5.3518,-5.3518,-5.3518,-5.3518,-5.3518,-5.4059,-5.4397,-5.4397,-5.4972,-5.5277,-5.5277,0.0,0.0,-5.4397,-5.4397,-5.4059,-5.3518,-5.3518,-5.3518,-5.3518,-5.3518,-5.3518,-5.3518,-5.3518,-5.3518,-5.3518,-5.3518,-5.3518,-5.3518,0.0,0.0,0.0,0.0,0.0,0.0,0.0,-2.2699,-2.5812,-3.251,-3.4709,-3.7922,-4.3876,-4.4553,-4.4384,-4.4045,-4.4012,-4.3842,-4.347,-4.5196,-4.6583,-4.7327,-4.8409,-4.9018,-4.9018,-4.9018,-4.9018,-4.9018,-4.9018,-4.9018,-4.9018,-4.9018,-4.9018,-4.9018,-4.9018,-4.9018,-4.9018,-4.9018,-4.9018,-4.9018,-4.9018,-4.9018,-4.9018,-4.9018,-4.9458,-5.0135,-5.0507,-5.1352,-5.2266,-5.1894,-5.0811,-4.9492,-4.8714,-4.5669,-4.1474,0.0,0.0,0.0,0.0,0.0,0.0,0.0,0.0,0.0,0.0,0.0,0.0,0.0,0.0,-4.1339,-4.3578,0.0,-4.8511,-5.0405,-5.23,-5.3518,-5.3518,-5.3518,-5.3518,-5.3518,-5.3518,-5.3518,-5.3518,-5.3518,-5.3518,-5.3518,-5.3856,-5.4059,-5.4059,-5.4397,-5.46,-5.46,-5.4972,-5.5141,-5.5141,-5.5547,-5.5681,-5.5681,-5.5681,-5.5513,-5.5141,-5.5141,-5.4972,-5.46,-5.46,-5.46,-5.4566,-5.4194,-5.4059,-5.4025,-5.3653,-5.3518,-5.3518,-5.3518,-5.3518,-5.3518,0.0,0.0,0.0,0.0,0.0,0.0,0.0,-2.2936,-2.5169,-3.0127,-3.207,-3.4573,-3.8792,-3.9368,-3.9233,-3.8599,-3.9783,-4.1102,-4.2422,-4.4925,-4.7158,-4.8917,-4.9018,-4.9018,-4.9018,-4.9018,-4.9018,-4.9018,-4.9018,-4.9018,-4.9018,-4.9018,-4.9018,-4.9018,-4.9018,-4.9018,-4.9018,-4.9018,-4.9018,-4.9018,-4.9018,-4.9086,-4.9221,-4.9221,-4.9661,-5.0405,-5.115,-5.1894,-5.2638,-5.3281,-5.3518,-5.3518,-5.3518,-5.1014,-4.7158,-4.2381,-4.035,0.0,0.0,0.0,0.0,0.0,0.0,0.0,0.0,0.0,-3.799,-4.1914,-4.3639,-4.5399,-4.8443,-4.9492,-5.0676,-5.3112,-5.3518,-5.3518,-5.3518,-5.3518,-5.3518,-5.3518,-5.3518,-5.3518,-5.3518,-5.3619,-5.3721,-5.3721,-5.4397,-5.4803,-5.4803,-5.5378,-5.5681,-5.5681,-5.5817,-5.5919,-5.5919,-5.6055,-5.6156,-5.6156,-5.6156,-5.6055,-5.5919,-5.5919,-5.5852,-5.5681,-5.5681,-5.5681,-5.5683,-5.5074,-5.4803,-5.4735,-5.416,-5.3856,-5.3687,-5.3551,-5.3518,-5.3518,0.0,0.0,0.0,0.0,0.0,0.0,0.0,0.0,-2.4797,-2.8739,-3.0533,-3.2645,-3.5769,-3.6738,-3.7134,-3.7066,-4.0121,-4.2388,-4.3206,-4.665,-4.8748,-4.8984,-4.9018,-4.9018,-4.9018,-4.9018,-4.9018,-4.9018,-4.9018,-4.9018,-4.9018,-4.9018,-4.9018,-4.9018,-4.9018,-4.9018,-4.9018,-4.9018,-4.9018,-4.9018,-4.9018,-4.939,-4.9965,-4.9965,-5.0439,-5.1183,-5.1928,-5.2706,-5.3382,-5.3484,-5.3518,-5.3518,-5.3518,-5.3179,-5.1623,-4.5799,-4.3091,-4.046,-3.3749,-3.2882,-3.4776,-3.8338,-3.8802,-4.0595,0.0,0.0,-4.6684,-5.1082,-5.2131,-5.2367,-5.2807,-5.2942,-5.3112,-5.345,-5.3518,-5.3518,-5.3518,-5.3518,-5.3518,-5.3518,-5.3518,-5.3518,-5.3518,-5.4093,-5.4465,-5.4465,-5.5175,-5.5581,-5.5581,-5.5683,-5.5681,-5.5681,-5.6359,-5.6697,-5.6697,-5.734,-5.7645,-5.7645,-5.7645,-5.7306,-5.6697,-5.6697,-5.6325,-5.5681,-5.5681,-5.5681,-5.5681,-5.5615,-5.5581,-5.5581,-5.5513,-5.5074,-5.4397,-5.3754,-5.3518,-5.3518,0.0,0.0,0.0,0.0,0.0,0.0,0.0,0.0,0.0,-2.6065,-2.7266,-2.8586,-3.0243,-3.0345,-3.0615,-3.1495,-3.6163,-3.9783,-4.1373,-4.621,-4.9018,-4.9018,-4.9018,-4.9018,-4.9018,-4.9018,-4.9018,-4.9018,-4.9018,-4.9018,-4.9018,-4.9018,-4.9018,-4.9018,-4.9018,-4.9018,-4.9018,-4.9018,-4.9018,-4.9052,-4.9458,-4.983,-5.0168,-5.1048,-5.1589,-5.1725,-5.0744,-5.0879,0.0,-5.1522,-5.1522,-5.1758,-5.3078,-5.23,-5.0067,-4.5867,-4.4451,-4.4045,-4.2929,-4.1644,0.0,0.0,-4.4756,-4.5771,-4.9424,-4.912,-4.912,-5.2739,-5.3518,-5.3518,-5.3518,-5.3518,-5.3518,0.0,-5.3518,-5.3518,-5.3518,-5.3518,-5.3518,-5.3518,-5.389,-5.4126,-5.4126,-5.4397,-5.4769,-5.5209,-5.5919,-5.6359,-5.6359,-5.6765,-5.6968,-5.6968,-5.7273,-5.7442,-5.7442,-5.7746,-5.7881,-5.7881,-5.7881,-5.7712,-5.7442,-5.7442,-5.7273,-5.6968,-5.6968,-5.6968,-5.6934,-5.6528,-5.6359,-5.6325,-5.5886,-5.5513,-5.5141,-5.4397,-5.3856,-5.3518,0.0,0.0,0.0,0.0,0.0,0.0,0.0,0.0,0.0,0.0,-2.4526,-2.5203,-2.571,-2.5135,-2.5356,-2.7046,-3.251,-3.6998,-3.9639,-4.5196,-4.8578,-4.8984,-4.9018,-4.9018,-4.9018,-4.9018,-4.9018,-4.9018,-4.9018,-4.9018,-4.9018,-4.9018,-4.9018,-4.9018,-4.9018,-4.9018,-4.9018,-4.9018,-4.912,-4.9357,-4.9864,-5.0338,-5.0811,-5.1894,-5.1792,-5.0879,-4.9289,-4.9052,-4.9289,-4.8071,-4.8037,-4.8781,-5.0033,-4.9357,-4.7597,-4.5026,-4.4079,-4.435,-4.6718,0.0,0.0,-4.7466,-4.9086,-5.0101,-4.9593,-4.9864,-5.0879,-5.3044,-5.3518,-5.3518,-5.3518,-5.3518,-5.3518,-5.3518,-5.3518,-5.3518,-5.3518,-5.3518,-5.3585,-5.3788,-5.4262,-5.4735,-5.5175,-5.5209,-5.5412,-5.5987,-5.6697,-5.7103,-5.7103,-5.7611,-5.7881,-5.7881,-5.7881,-5.7881,-5.7881,-5.7881,-5.7881,-5.7881,-5.7881,-5.7881,-5.7881,-5.7881,-5.7881,-5.7881,-5.7881,-5.7881,-5.7848,-5.7306,-5.7103,-5.7036,-5.6528,-5.619,-5.5953,-5.5412,-5.46,-5.3788,0.0,0.0,0.0,0.0,0.0,0.0,0.0,0.0,0.0,0.0,0.0,0.0,0.0,-2.2835,-2.3294,-2.5457,-3.048,-3.5081,-3.8768,-4.3944,-4.7496,-4.8951,-4.9018,-4.9018,-4.9018,-4.9018,-4.9018,-4.9018,-4.9018,-4.9018,-4.9018,-4.9018,-4.9018,-4.9018,-4.9018,-4.9018,-4.9018,-4.9018,-4.9424,-5.0067,-5.0067,-5.0947,-5.2232,-5.2266,-5.0541,-4.8007,-4.7939,-4.7939,-4.7297,-4.2963,-4.2929,-4.4513,-4.3064,-4.4079,-4.55,-4.3882,-4.1441,-3.9377,-4.0164,0.0,-4.519,-4.7361,-5.0676,-5.3382,-5.3348,-5.3348,-5.3382,-5.3484,-5.3518,-5.3518,-5.3518,-5.3518,-5.3518,-5.3518,-5.3518,-5.3518,-5.3518,-5.3518,-5.3754,-5.4465,-5.4566,-5.5141,0.0,-5.6731,-5.6731,-5.6765,-5.7442,-5.7848,-5.7848,-5.7881,-5.7881,-5.7881,-5.7881,-5.7881,-5.7881,-5.7881,-5.7881,-5.7881,-5.7881,-5.7881,-5.7881,-5.7881,-5.7881,-5.7881,-5.7881,-5.7881,-5.7881,-5.7881,-5.7848,-5.7848,-5.7814,-5.7408,-5.6765,-5.6731,-5.5818,-5.4566,0.0,0.0,0.0,0.0,0.0,0.0,0.0,0.0,0.0,0.0,0.0,0.0,0.0,0.0,0.0,0.0,-2.9499,-3.3322,-3.6512,-4.2117,-4.5771,-4.6786,-4.824,-4.9018,-4.9018,-4.9018,-4.9018,-4.9018,-4.9018,-4.9018,-4.9018,-4.9018,-4.9018,-4.9018,-4.9018,-4.9018,-4.9052,-4.9526,-4.9864,-5.0168,-5.115,-5.186,-5.23,-5.23,-5.0168,-4.6718,0.0,-4.1677,-4.0967,-3.8937,-3.8792,-3.9605,-4.0553,-4.0383,-3.958,-3.8507,-3.8946,-4.0324,-4.3064,0.0,-4.8173,-5.0947,-5.257,-5.3518,-5.3518,-5.3518,-5.3518,-5.3518,-5.23,-5.1386,-5.1894,-5.1589,-5.1386,-5.1894,-5.2841,-5.3518,-5.3518,-5.3518,-5.3788,-5.4499,-5.504,0.0,0.0,0.0,0.0,-5.7476,-5.7746,-5.7881,-5.7881,-5.7881,-5.7881,-5.7881,-5.7881,-5.7881,-5.7881,-5.7881,-5.7881,-5.7881,-5.7881,-5.7881,-5.7881,-5.7881,-5.7881,-5.7881,-5.7881,-5.7881,-5.7881,-5.7881,-5.7881,-5.7881,-5.7881,-5.7746,-5.7509,-5.7509,-5.69,-5.5987,0.0,0.0,0.0,0.0,0.0,0.0,0.0,0.0,0.0,0.0,0.0,0.0,0.0,0.0,0.0,0.0,0.0,-3.1157,-3.3842,-3.8903,-4.2516,-4.4045,-4.4959,-4.5805,-4.6583,-4.5838,-4.594,-4.7022,-4.7293,-4.7834,-4.8612,-4.8883,-4.9018,-4.9018,-4.9018,-4.9154,-4.9424,-4.9898,-5.0101,-5.0135,-5.0574,-5.0405,-4.9864,-4.9052,-4.6109,0.0,-3.8014,-3.5284,-3.3423,-3.2949,-3.3491,-3.4607,-3.578,-3.6254,-3.6434,-3.6738,-3.8565,-4.1414,-4.5737,-4.7936,-4.9729,-5.2739,-5.3518,-5.3518,-5.3518,-5.3518,-5.3518,-5.3518,-5.1691,-5.0236,-5.071,-5.0405,-5.0168,-5.0405,-5.2164,-5.3416,-5.3112,-5.3551,-5.416,-5.4905,-5.5649,-5.6393,0.0,0.0,0.0,-5.7848,-5.7881,-5.7881,-5.7881,-5.7881,-5.7881,-5.7881,-5.7881,-5.7881,-5.7881,-5.7881,-5.7881,-5.7881,-5.7881,-5.7881,-5.7881,-5.7881,-5.7881,-5.7881,-5.7881,-5.7881,-5.7881,-5.7881,-5.7881,-5.7881,-5.7881,-5.7881,-5.7881,-5.7881,-5.7577,-5.7103,0.0,0.0,0.0,0.0,0.0,0.0,0.0,0.0,0.0,0.0,0.0,0.0,0.0,0.0,0.0,0.0,0.0,0.0,-3.0818,-3.4493,-3.7845,-4.073,-3.9648,-3.9986,-4.2117,-4.0121,-4.0426,-4.3206,-4.3978,-4.5466,-4.7567,-4.8274,-4.8612,-4.8646,-4.8646,-4.9052,-4.9695,-4.9729,-4.9695,-4.9526,-4.8173,-4.6752,-4.5162,-4.2963,-3.8903,-3.4223,-3.2767,-2.9364,-2.5575,-2.566,-2.779,-3.0292,-2.9788,-3.251,-3.6309,-3.8565,-4.0324,-4.2625,-4.7631,-4.912,-4.9932,-5.2773,-5.3518,-5.3518,-5.3518,-5.3518,-5.345,-5.3315,-5.1454,-4.983,0.0,0.0,-4.9627,-4.8951,-5.1454,-5.3247,-5.2469,-5.3653,-5.4871,0.0,0.0,0.0,0.0,0.0,0.0,-5.7881,0.0,-5.7881,-5.7881,-5.7881,-5.7881,-5.7881,-5.7881,-5.7881,-5.7881,-5.7881,-5.7881,-5.7881,-5.7881,-5.7881,-5.7881,-5.7881,-5.7881,-5.7881,-5.7881,-5.7881,-5.7881,-5.7881,-5.7881,-5.7881,-5.7881,-5.7881,-5.7881,-5.7881,-5.7881,-5.778,0.0,0.0,0.0,0.0,0.0,0.0,0.0,0.0,0.0,0.0,0.0,0.0,0.0,0.0,0.0,0.0,0.0,0.0,-2.774,-3.1379,-3.429,-3.6129,-3.799,-3.9512,-4.0663,-4.0096,-4.0189,-4.0933,-4.1162,-4.1813,-4.2929,-4.3098,-4.347,-4.4012,-4.4012,-4.4113,-4.4316,-4.4891,-4.4485,-4.347,-4.3673,-4.2828,-4.1399,-4.0257,-3.6965,-3.2733,-3.1819,-2.8604,-2.5049,-2.6674,-3.0326,0.0,-3.728,-3.887,-4.0121,-4.1813,-4.4147,-4.6587,-4.8511,-5.0642,-5.2536,-5.3315,-5.3518,-5.3518,-5.3518,-5.3518,-5.2875,-5.0608,-4.8376,-4.6143,0.0,0.0,0.0,-4.6583,-5.0473,0.0,-5.3213,-5.3991,0.0,-5.5615,0.0,-5.7103,-5.7814,-5.7881,0.0,0.0,-5.7881,-5.7881,-5.7881,-5.7881,-5.7881,-5.7881,-5.7881,-5.7881,-5.7881,-5.7881,-5.7881,-5.7881,-5.7881,-5.7881,-5.7881,-5.7881,-5.7881,-5.7881,-5.7881,-5.7881,-5.7881,-5.7881,-5.7881,-5.7881,-5.7881,-5.7881,-5.7881,-5.7881,-5.7881,-5.7848,0.0,0.0,0.0,0.0,0.0,0.0,0.0,0.0,0.0,0.0,0.0,0.0,0.0,0.0,0.0,0.0,0.0,0.0,0.0,-2.8028,-3.0194,-3.2022,-3.3051,-3.4404,-3.6163,-3.5554,-3.5554,-3.6186,-3.6863,-3.7686,-3.8768,-3.9106,-3.9648,-4.0358,-4.0358,-4.0561,-4.0865,-4.1305,-4.0629,0.0,0.0,-3.7584,-3.5554,-3.4134,-3.1833,-2.9262,-2.8536,-2.8536,-2.9348,0.0,0.0,-3.799,-4.0426,-4.1644,-4.2591,-4.4728,0.0,-4.8781,-5.0507,-5.2232,-5.3518,-5.3518,-5.3518,-5.3145,-5.1826,-5.1522,-5.0574,-4.7225,-4.506,0.0,-4.0663,0.0,0.0,0.0,0.0,0.0,-5.301,-5.4194,-5.5243,0.0,-5.663,0.0,-5.7848,-5.7881,-5.7881,0.0,-5.7881,-5.7881,-5.7881,-5.7881,-5.7881,-5.7881,-5.7881,-5.7881,-5.7881,-5.7881,-5.7881,-5.7881,-5.7881,-5.7881,-5.7881,-5.7881,-5.7881,-5.7881,0.0,-5.7881,-5.7881,-5.7881,-5.7881,-5.7881,-5.7881,-5.7881,-5.7881,-5.7881,-5.7881,-5.7881,0.0,0.0,0.0,0.0,0.0,0.0,0.0,0.0,0.0,0.0,0.0,0.0,0.0,0.0,0.0,0.0,0.0,0.0,0.0,0.0,-2.6522,-2.8604,-2.752,-2.8112,-3.0852,-2.9551,-2.9484,-3.0751,-3.1935,-3.322,-3.4585,-3.5284,-3.5994,-3.6738,-3.6738,-3.7077,-3.7652,-3.7652,-3.6829,-3.534,-3.41,-3.1968,-2.9296,0.0,-2.6251,-2.5541,-2.4982,-2.8908,-3.4945,0.0,-4.0696,-4.1467,-4.2489,-4.3707,-4.5235,-4.7872,-4.912,-5.0168,-5.2807,-5.3518,-5.3518,-5.3518,-5.3518,-5.2706,-4.9695,-4.8917,-4.7733,-4.3673,0.0,-4.0257,-3.8565,-4.1914,-4.4621,-4.3578,0.0,-5.2942,-5.2638,-5.4397,-5.575,-5.5852,-5.707,-5.7881,-5.7881,-5.7881,-5.7881,-5.7881,-5.7881,-5.7881,-5.7881,-5.7881,-5.7881,-5.7881,-5.7881,-5.7881,-5.7881,-5.7881,-5.7881,-5.7881,-5.7881,-5.7881,-5.7881,-5.7881,-5.7881,-5.7881,-5.7881,0.0,-5.7881,-5.7881,-5.7881,-5.7881,-5.7881,-5.7881,-5.7881,-5.7881,-5.7881,-5.7881,0.0,0.0,0.0,0.0,0.0,0.0,0.0,0.0,0.0,0.0,-2.5236,-2.4391,0.0,0.0,0.0,0.0,0.0,0.0,0.0,0.0,0.0,-2.708,-2.7435,-2.818,-2.9348,-2.8484,-2.8128,-2.8398,-2.8044,-2.8315,-2.9176,-2.9311,-2.9803,-3.0533,-3.0533,-3.0601,-3.0736,-3.0736,-2.9856,-2.8484,-2.8822,-2.7925,-2.642,-2.6623,0.0,0.0,-2.615,-2.9465,-3.437,-3.9343,-4.3876,-4.7902,-5.0541,-5.1555,-5.186,-5.2401,-5.2638,-5.2841,-5.3382,-5.3518,-5.3518,-5.3518,-5.3518,-5.2706,-4.9695,-4.8545,0.0,0.0,-3.9073,-3.7652,-3.4878,-3.8058,-4.1583,-4.3139,0.0,0.0,0.0,0.0,-5.5953,0.0,0.0,0.0,0.0,0.0,0.0,0.0,0.0,-5.7881,-5.7881,-5.7881,-5.7881,-5.7881,-5.7881,-5.7881,-5.7881,-5.7881,-5.7881,-5.7881,-5.7881,-5.7881,-5.7881,-5.7881,-5.7881,-5.7881,-5.7881,0.0,-5.7881,-5.7881,-5.7881,-5.7881,-5.7881,-5.7881,-5.7881,-5.7881,-5.7881,-5.7881,0.0,0.0,0.0,0.0,0.0,0.0,0.0,-2.7537,-2.9161,-3.1055,-3.1055,-2.9991,-2.7638,-2.5981,-2.5372,0.0,0.0,0.0,0.0,0.0,0.0,0.0,0.0,0.0,-2.7791,-2.7807,-2.7418,-2.664,0.0,-2.6691,-2.664,-2.664,-2.6843,-2.7232,-2.7232,-2.7013,-2.6674,-2.6674,-2.6234,-2.5591,-2.5947,-2.5642,-2.5067,0.0,0.0,0.0,0.0,0.0,-3.4856,-3.7009,-4.2726,-4.9526,-5.257,-5.3518,-5.3518,-5.3518,-5.3518,-5.3518,-5.3518,-5.3518,-5.3518,-5.3518,-5.3518,-5.2198,-4.7225,0.0,0.0,0.0,-3.552,-3.4878,-3.2645,-3.6231,0.0,0.0,0.0,0.0,0.0,0.0,0.0,0.0,0.0,0.0,0.0,0.0,0.0,0.0,0.0,-5.7881,-5.7881,-5.7881,-5.7881,-5.7881,-5.7881,-5.7881,-5.7881,-5.7881,-5.7881,-5.7881,-5.7881,-5.7881,-5.7881,-5.7881,-5.7881,-5.7881,-5.7881,0.0,-5.7881,-5.7881,-5.7881,-5.7881,-5.7881,-5.7881,-5.7881,-5.7881,-5.7881,-5.7881,0.0,0.0,0.0,0.0,0.0,0.0,0.0,-3.0412,-3.2341,-3.5318,-3.6626,-3.5577,-3.1142,-2.8484,-2.6928,0.0,0.0,0.0,0.0,0.0,0.0,0.0,0.0,0.0,0.0,0.0,0.0,0.0,0.0,0.0,0.0,0.0,0.0,0.0,0.0,-2.5033,-2.4508,-2.4508,-2.4508,0.0,0.0,-2.4745,0.0,0.0,0.0,0.0,0.0,0.0,0.0,0.0,-3.9817,-4.6752,-5.0236,-5.2131,-5.2976,-5.2807,-5.2875,-5.3078,-5.3416,-5.3518,-5.3518,-5.3518,-5.3518,-5.1725,-4.493,-4.3139,0.0,0.0,-3.251,-3.2442,-3.1596,-3.4912,-3.8125,0.0,-4.3775,0.0,0.0,0.0,0.0,0.0,0.0,0.0,0.0,0.0,0.0,0.0,0.0,0.0,-5.7881,-5.7881,-5.7881,-5.7881,-5.7881,-5.7881,-5.7881,-5.7881,-5.7881,-5.7881,-5.7881,-5.7881,-5.7881,-5.7881,-5.7881,-5.7881,-5.7881,0.0,0.0,-5.7881,-5.7881,-5.7881,-5.7881,-5.7881,-5.7881,-5.7881,-5.7881,-5.7881,0.0,0.0,0.0,0.0,0.0,0.0,0.0,-3.2895,-3.6197,-3.9199,-3.9131,-3.8091,-3.6288,-3.3444,-3.033,0.0,0.0,0.0,0.0,0.0,0.0,0.0,0.0,0.0,0.0,0.0,0.0,0.0,0.0,0.0,0.0,0.0,0.0,0.0,0.0,0.0,0.0,-2.4508,0.0,0.0,0.0,0.0,0.0,0.0,0.0,0.0,0.0,0.0,0.0,0.0,0.0,-3.7696,-4.2733,-4.7597,-5.1285,-5.0608,0.0,0.0,-5.3112,-5.3518,-5.3518,-5.3518,-5.3518,-5.1725,-4.493,0.0,0.0,-3.358,-3.1292,-3.0784,-3.1989,-3.3119,-3.525,-3.9334,0.0,-4.4316,0.0,0.0,0.0,0.0,0.0,0.0,0.0,0.0,0.0,0.0,0.0,0.0,-5.7881,-5.7881,-5.7881,-5.7881,-5.7881,-5.7881,-5.7881,-5.7881,-5.7881,-5.7881,-5.7881,-5.7881,-5.7881,-5.7881,-5.7881,-5.7881,-5.7881,0.0,0.0,-5.7881,-5.7881,-5.7881,-5.7881,-5.7881,-5.7881,-5.7881,-5.7881,-5.7881,0.0,0.0,0.0,0.0,0.0,0.0,-3.207,-3.3998,-3.684,-4.211,-4.255,-4.161,-3.9648,-3.7178,-3.3423,-2.7858,0.0,0.0,0.0,0.0,0.0,0.0,0.0,0.0,0.0,0.0,-2.6488,-2.6911,0.0,0.0,0.0,0.0,0.0,0.0,0.0,0.0,0.0,0.0,0.0,0.0,0.0,0.0,0.0,0.0,0.0,0.0,0.0,0.0,0.0,0.0,0.0,0.0,-3.6637,-4.0595,0.0,0.0,-4.9965,-5.098,-5.2976,-5.3518,-5.3518,-5.3518,-5.2469,-4.9932,-4.4079,0.0,-3.7787,-3.2679,-3.0818,-3.0412,-3.1427,-3.2259,-3.3761,-3.6874,0.0,0.0,0.0,0.0,0.0,0.0,0.0,0.0,0.0,0.0,0.0,0.0,0.0,0.0,-5.7881,-5.7881,-5.7881,-5.7881,-5.7881,-5.7881,-5.7881,-5.7881,-5.7881,-5.7881,-5.7881,-5.7881,-5.7881,-5.7881,-5.7881,-5.7881,-5.7881,0.0,0.0,-5.7881,-5.7881,-5.7881,-5.7881,-5.7881,-5.7881,-5.7881,-5.7881,-5.7881,0.0,0.0,0.0,0.0,0.0,-2.8383,-3.3389,-3.4742,-3.728,-4.3159,-4.3735,-4.3064,-4.1677,-3.8565,-3.4742,-3.0156,-2.7909,0.0,0.0,0.0,0.0,0.0,0.0,0.0,0.0,0.0,-2.7402,-2.8128,-2.8365,-2.8466,0.0,0.0,0.0,0.0,0.0,0.0,0.0,0.0,0.0,0.0,0.0,0.0,0.0,0.0,0.0,0.0,0.0,0.0,0.0,0.0,0.0,0.0,0.0,-3.4979,-3.9918,0.0,-4.7834,-4.9627,-5.1894,-5.2976,-5.3518,-5.3518,-5.1792,-4.8714,0.0,0.0,-3.6366,-3.207,-3.0446,-3.0074,-3.1021,-3.1819,-3.297,-3.4945,0.0,-4.0316,-4.3741,0.0,0.0,0.0,0.0,0.0,0.0,0.0,0.0,0.0,0.0,0.0,-5.7881,-5.7881,-5.7881,-5.7881,-5.7881,-5.7881,-5.7881,-5.7881,-5.7881,-5.7881,-5.7881,-5.7881,-5.7881,-5.7881,-5.7881,-5.7881,-5.7881,0.0,0.0,-5.7881,-5.7881,-5.7881,-5.7881,-5.7881,-5.7881,-5.7881,-5.7881,-5.7881,0.0,0.0,0.0,0.0,0.0,0.0,-3.2713,-3.5318,-3.8115,-4.1813,-4.1677,-4.1508,-4.2185,-3.7009,-3.3728,-3.437,-2.9668,0.0,0.0,0.0,0.0,0.0,0.0,0.0,0.0,0.0,-2.818,-2.8976,-2.9736,-3.0055,-3.0055,-2.9348,0.0,0.0,0.0,0.0,0.0,0.0,0.0,0.0,0.0,0.0,-2.6691,0.0,0.0,0.0,0.0,0.0,0.0,0.0,0.0,0.0,0.0,-3.1664,-3.4506,-3.9749,-4.391,-4.7327,-4.9526,-5.1792,-5.3518,-5.3518,-5.1792,-4.8714,0.0,0.0,-3.5746,-3.1989,-3.0025,-2.945,-3.092,-3.1819,-3.2801,-3.429,-3.5814,0.0,-4.2767,0.0,0.0,0.0,0.0,0.0,0.0,0.0,0.0,0.0,0.0,0.0,-5.7881,-5.7881,-5.7881,-5.7881,-5.7881,-5.7881,-5.7881,-5.7881,-5.7881,-5.7881,-5.7881,-5.7881,-5.7881,-5.7881,-5.7881,0.0,0.0,0.0,0.0,-5.7881,-5.7881,-5.7881,-5.7881,-5.7881,-5.7881,-5.7881,-5.7881,-5.7881,0.0,0.0,0.0,0.0,0.0,0.0,0.0,-3.251,-3.4472,-3.8734,-3.8633,-3.887,-4.0629,-3.6806,-3.4235,-3.4472,-3.0702,0.0,0.0,0.0,0.0,0.0,0.0,0.0,0.0,-2.8991,-3.0006,-3.1244,-3.2002,-3.2611,-3.3085,-3.1853,-3.0581,-2.9311,0.0,0.0,0.0,0.0,0.0,0.0,0.0,-2.6691,-2.6691,0.0,0.0,0.0,0.0,0.0,0.0,0.0,0.0,0.0,0.0,0.0,0.0,-3.4607,-3.8836,-4.347,-4.5703,-4.7225,-4.8037,-4.753,-4.5703,-4.32,-4.002,0.0,-3.3863,-3.163,-3.0412,-3.004,-3.1021,-3.1413,-3.2564,-3.5577,-3.6491,0.0,0.0,0.0,0.0,0.0,0.0,0.0,0.0,0.0,0.0,0.0,0.0,0.0,-5.7881,-5.7881,-5.7881,-5.7881,-5.7881,-5.7881,-5.7881,-5.7881,-5.7881,-5.7881,-5.7881,-5.7881,-5.7881,-5.7881,-5.7881,0.0,0.0,0.0,0.0,-5.7881,-5.7881,-5.7881,-5.7881,-5.7881,-5.7881,-5.7881,-5.7881,-5.7881,0.0,0.0,0.0,0.0,0.0,0.0,0.0,-3.0615,-3.2104,-3.5723,-3.5554,-3.6186,-3.8946,-3.5656,-3.3694,-3.481,-3.1799,0.0,0.0,0.0,0.0,0.0,0.0,0.0,-2.9397,-2.9871,-3.1393,-3.3986,-3.446,-3.5182,-3.6163,-3.4945,-3.3152,-3.0886,-2.9634,-2.8331,0.0,0.0,0.0,0.0,-2.6691,-2.6691,-2.6691,0.0,0.0,0.0,0.0,0.0,0.0,0.0,0.0,0.0,0.0,0.0,0.0,0.0,-3.4303,-3.8227,-4.1907,-4.4073,-4.5162,-4.4716,-4.2685,-4.029,0.0,0.0,-3.2239,-3.1021,-3.0209,-2.9905,-3.0649,-3.1224,-3.2395,-3.473,-3.6051,0.0,0.0,0.0,0.0,0.0,0.0,0.0,0.0,0.0,0.0,0.0,0.0,0.0,-5.7881,-5.7881,-5.7881,-5.7881,-5.7881,-5.7881,-5.7881,-5.7881,-5.7881,-5.7881,-5.7881,-5.7881,-5.7881,-5.7881,-5.7881,0.0,0.0,0.0,0.0,-5.7881,-5.7881,-5.7881,-5.7881,-5.7881,-5.7881,-5.7881,-5.7881,-5.7881,0.0,0.0,0.0,0.0,0.0,0.0,0.0,-2.9499,-3.0717,-3.2882,-3.2577,-3.3512,-3.7043,-3.3694,-3.2307,-3.5059,0.0,0.0,0.0,0.0,0.0,0.0,0.0,0.0,-3.0176,-3.0345,-3.2476,-3.6728,-3.6998,-3.7811,-3.914,-3.8464,-3.6129,-3.2496,-3.1698,-3.0074,-2.7824,-2.7165,-2.686,-2.686,-2.6793,-2.6759,0.0,0.0,0.0,0.0,0.0,0.0,0.0,0.0,0.0,0.0,0.0,0.0,0.0,0.0,0.0,0.0,0.0,-4.1568,-4.3802,-4.3802,-4.1704,-3.9233,-3.7753,0.0,0.0,-3.0176,-2.9465,-2.9281,-3.0108,-3.1292,-3.2259,-3.2632,0.0,0.0,0.0,0.0,0.0,0.0,0.0,0.0,0.0,0.0,0.0,0.0,0.0,0.0,-5.7881,-5.7881,-5.7881,-5.7881,-5.7881,-5.7881,-5.7881,-5.7881,-5.7881,-5.7881,-5.7881,-5.7881,-5.7881,-5.7881,-5.7881,0.0,0.0,0.0,0.0,-5.7881,-5.7881,-5.7881,-5.7881,-5.7881,-5.7881,-5.7881,-5.7881,-5.7881,0.0,0.0,0.0,0.0,0.0,0.0,0.0,0.0,0.0,0.0,-3.0717,-3.1157,-3.2611,-3.1833,-3.1461,0.0,0.0,0.0,0.0,0.0,0.0,0.0,0.0,0.0,-3.0954,-3.2611,-3.4269,-3.5893,-3.8768,-4.0324,-4.0696,-4.0527,-3.843,-3.4754,-3.3457,-3.1326,-2.8705,-2.8536,-2.8468,-2.84,-2.7807,-2.7553,0.0,0.0,0.0,0.0,-2.7774,-2.8703,0.0,0.0,0.0,0.0,0.0,0.0,0.0,0.0,-2.977,-3.0683,-3.207,0.0,-3.6028,-3.6028,-3.5487,-3.4573,0.0,-3.1968,0.0,0.0,0.0,0.0,0.0,0.0,0.0,0.0,0.0,0.0,0.0,0.0,0.0,0.0,0.0,0.0,0.0,0.0,0.0,0.0,0.0,-5.7881,-5.7881,-5.7881,-5.7881,-5.7881,-5.7881,-5.7881,-5.7881,-5.7881,-5.7881,-5.7881,-5.7881,-5.7881,-5.7881,-5.7881,-5.7881,0.0,0.0,0.0,-5.7881,-5.7881,-5.7881,-5.7881,-5.7881,-5.7881,-5.7881,-5.7881,-5.7881,-5.7881,0.0,0.0,0.0,0.0,0.0,0.0,0.0,0.0,0.0,0.0,0.0,0.0,0.0,0.0,0.0,0.0,0.0,0.0,0.0,0.0,0.0,0.0,0.0,-3.136,-3.1718,-3.322,-3.5182,-3.7652,-3.9715,-4.1407,-4.2726,-4.2049,-3.9918,-3.6512,-3.366,-3.1326,-2.9465,-2.9145,-2.901,-2.8976,-2.8518,0.0,0.0,0.0,0.0,0.0,-2.7943,-2.889,0.0,-3.1562,-3.2679,-3.3186,0.0,0.0,0.0,0.0,-2.8484,-2.8619,-2.8939,-3.1427,-3.3897,-3.3897,-3.366,-3.3186,-3.2374,0.0,0.0,0.0,0.0,0.0,0.0,0.0,0.0,0.0,-3.9174,0.0,0.0,0.0,0.0,0.0,0.0,0.0,0.0,0.0,0.0,0.0,0.0,-5.7881,-5.7881,-5.7881,-5.7881,-5.7881,-5.7881,-5.7881,-5.7881,-5.7881,-5.7881,-5.7881,-5.7881,-5.7881,-5.7881,-5.7881,-5.7881,0.0,0.0,0.0,-5.7881,-5.7881,-5.7881,-5.7881,-5.7881,-5.7881,-5.7881,-5.7881,-5.7881,-5.7881,0.0,0.0,0.0,0.0,0.0,0.0,0.0,0.0,0.0,0.0,0.0,0.0,0.0,0.0,0.0,0.0,0.0,0.0,0.0,0.0,0.0,0.0,-3.1258,-3.165,-3.2598,-3.3254,-3.5656,-3.9943,-4.0527,-4.2117,-4.4581,-4.3707,-4.1441,-3.7889,-3.3592,-3.1157,-3.0243,-2.96,-2.9348,-2.9314,-2.9213,0.0,0.0,0.0,0.0,0.0,0.0,0.0,0.0,-3.2632,-3.3525,-3.3322,-3.2882,0.0,0.0,0.0,0.0,0.0,-2.7891,-3.1529,-3.481,-3.4032,-3.3626,-3.3322,-3.2983,0.0,0.0,0.0,0.0,0.0,0.0,-3.4709,0.0,0.0,0.0,0.0,0.0,0.0,0.0,0.0,0.0,0.0,0.0,0.0,0.0,0.0,0.0,-5.7881,-5.7881,-5.7881,-5.7881,-5.7881,-5.7881,-5.7881,-5.7881,-5.7881,-5.7881,-5.7881,-5.7881,-5.7881,-5.7881,-5.7881,-5.7881,-5.7881,0.0,0.0,-5.7881,-5.7881,-5.7881,-5.7881,-5.7881,-5.7881,-5.7881,-5.7881,-5.7881,-5.7881,0.0,0.0,0.0,0.0,0.0,0.0,0.0,0.0,0.0,0.0,0.0,0.0,0.0,0.0,0.0,0.0,0.0,0.0,0.0,0.0,0.0,-3.209,-3.1549,-3.2138,-3.41,-3.4269,-3.5926,-3.9174,-4.2347,-4.4175,-4.4649,-4.6921,-4.4688,-3.87,-3.5419,-3.2882,-3.1021,-3.092,-3.0852,-3.0818,-3.0176,0.0,0.0,0.0,0.0,0.0,0.0,0.0,0.0,-2.9653,-3.1427,-3.2949,-3.0465,0.0,0.0,0.0,0.0,0.0,-2.9194,-3.3491,-3.6332,-3.1901,-3.2104,-3.2916,-3.1035,0.0,0.0,0.0,0.0,0.0,0.0,-3.6197,-3.6975,0.0,0.0,0.0,0.0,0.0,0.0,0.0,0.0,0.0,0.0,0.0,0.0,0.0,0.0,-5.7881,-5.7881,-5.7881,-5.7881,-5.7881,-5.7881,-5.7881,-5.7881,-5.7881,-5.7881,-5.7881,-5.7881,-5.7881,-5.7881,-5.7881,-5.7881,-5.7881,0.0,-5.7881,-5.7881,-5.7881,-5.7881,-5.7881,-5.7881,-5.7881,-5.7881,-5.7881,-5.7881,-5.7881,0.0,0.0,0.0,0.0,0.0,0.0,0.0,0.0,0.0,0.0,0.0,0.0,0.0,0.0,0.0,0.0,0.0,0.0,0.0,0.0,-3.2476,-3.4032,-3.3761,-3.4066,-3.5081,-3.7077,-3.9208,-4.1373,-4.4756,-4.6583,-4.6955,-4.5872,-4.2895,-3.8261,-3.525,-3.2882,-3.119,-3.119,-3.119,-3.1157,0.0,0.0,0.0,0.0,0.0,0.0,0.0,0.0,0.0,0.0,-3.163,-3.3017,-3.0871,0.0,0.0,0.0,0.0,0.0,-2.8568,-3.1799,-3.4675,-3.3897,-3.6907,-3.9783,-3.8768,-3.7584,0.0,0.0,0.0,0.0,0.0,0.0,-4.3572,-5.1082,0.0,0.0,0.0,0.0,0.0,0.0,0.0,0.0,0.0,0.0,0.0,0.0,0.0,0.0,-5.7881,-5.7881,-5.7881,-5.7881,-5.7881,-5.7881,-5.7881,-5.7881,-5.7881,-5.7881,-5.7881,-5.7881,-5.7881,-5.7881,-5.7881,-5.7881,0.0,-5.7881,-5.7881,-5.7881,-5.7881,-5.7881,-5.7881,-5.7881,-5.7881,-5.7881,-5.7881,-5.7881,0.0,0.0,0.0,0.0,0.0,0.0,0.0,0.0,0.0,0.0,0.0,0.0,0.0,0.0,0.0,0.0,0.0,0.0,0.0,-3.1989,-3.3288,-3.5498,-3.6107,-3.6783,-3.7686,-4.0189,-4.2523,-4.4694,-4.7225,-4.8815,-4.9424,-4.5297,-4.1576,-3.827,-3.5284,-3.2916,-3.119,-3.119,-3.119,-3.119,0.0,0.0,0.0,0.0,0.0,0.0,0.0,0.0,0.0,0.0,0.0,0.0,0.0,0.0,0.0,-2.948,-2.8331,-2.8229,-2.8906,-3.119,-3.402,-3.6863,-4.0324,-4.3504,-4.506,-4.3267,-4.0933,0.0,0.0,0.0,0.0,-4.5297,0.0,0.0,0.0,0.0,0.0,0.0,0.0,0.0,0.0,0.0,0.0,0.0,0.0,0.0,0.0,0.0,-5.7881,-5.7881,-5.7881,-5.7881,-5.7881,-5.7881,-5.7881,-5.7881,-5.7881,-5.7881,-5.7881,-5.7881,-5.7881,-5.7881,-5.7881,-5.7881,-5.7881,-5.7881,-5.7881,-5.7881,-5.7881,-5.7881,-5.7881,-5.7881,-5.7881,-5.7881,-5.7881,-5.7881,0.0,0.0,0.0,0.0,0.0,0.0,0.0,0.0,0.0,0.0,0.0,0.0,0.0,0.0,0.0,0.0,0.0,0.0,0.0,-3.2259,-3.3288,-3.5498,-3.7618,-4.0392,-4.3904,-4.2794,-4.4316,-4.8612,-4.9492,-5.0304,-5.0948,-4.7902,-4.4147,-3.9792,-3.6783,-3.3863,-3.119,-3.119,-3.119,-3.119,-3.119,0.0,0.0,0.0,0.0,0.0,0.0,0.0,0.0,0.0,0.0,0.0,0.0,0.0,-3.2192,-3.1224,-2.9991,-2.9517,-3.2239,-3.4709,-3.7032,-3.93,-3.7574,-3.6941,-4.3166,-4.1271,-3.9343,-4.3295,0.0,0.0,0.0,-4.9864,0.0,0.0,0.0,0.0,0.0,0.0,0.0,0.0,0.0,0.0,0.0,0.0,0.0,0.0,0.0,0.0,-5.7881,-5.7881,-5.7881,-5.7881,-5.7881,-5.7881,-5.7881,-5.7881,-5.7881,-5.7881,-5.7881,-5.7881,-5.7881,-5.7881,-5.7881,-5.7881,-5.7881,-5.7881,-5.7881,-5.7881,-5.7881,-5.7881,-5.7881,-5.7881,-5.7881,-5.7881,-5.7881,-5.7881,0.0,0.0,0.0,0.0,0.0,0.0,0.0,0.0,0.0,0.0,0.0,0.0,0.0,0.0,0.0,0.0,0.0,0.0,0.0,-3.2476,-3.3998,-3.6231,-3.8497,-4.1001,-4.3809,-4.6007,-4.8409,-5.1048,-5.1826,-5.186,-5.1083,-4.6752,-4.3064,-3.9952,-3.6468,-3.4303,-3.3186,-3.2293,-3.2138,-3.2476,-3.1562,-3.033,0.0,0.0,0.0,0.0,0.0,0.0,0.0,0.0,-2.8991,-3.0581,-2.9447,-3.119,-3.3275,-3.1157,-3.0108,-2.9939,-3.1055,-3.3998,-3.7235,-3.8996,-3.9039,-4.0426,-4.7158,-4.8105,-4.78,-4.8545,-4.9695,0.0,0.0,0.0,0.0,0.0,0.0,0.0,0.0,0.0,0.0,0.0,0.0,0.0,0.0,0.0,0.0,0.0,0.0,0.0,-5.7881,-5.7881,-5.7881,-5.7881,-5.7881,-5.7881,-5.7881,-5.7881,-5.7881,-5.7881,-5.7881,-5.7881,-5.7881,-5.7881,-5.7881,-5.7881,-5.7881,-5.7881,-5.7881,-5.7881,-5.7881,-5.7881,-5.7881,-5.7881,-5.7881,-5.7881,-5.7881,-5.7881,0.0,0.0,0.0,0.0,0.0,0.0,0.0,0.0,0.0,0.0,0.0,0.0,0.0,0.0,0.0,0.0,0.0,0.0,-3.1549,-3.2476,-3.4066,-3.6299,-3.8362,-4.0535,-4.2997,-4.7462,-5.0338,-5.1623,-5.2875,-5.2367,-5.0035,-4.5805,-4.2692,-4.0654,-3.6897,-3.5351,-3.5453,-3.3457,-3.2949,-3.3288,-3.1799,-3.0446,0.0,0.0,0.0,0.0,0.0,0.0,0.0,0.0,-2.8619,-3.0074,-2.9683,-3.1529,-3.3457,-3.1664,-3.2002,-3.2848,-3.2645,-3.4979,-3.8014,-4.0189,-4.1136,-4.3234,-4.9729,-5.1319,-5.1758,-5.3044,-5.3585,-5.3382,-5.1792,0.0,0.0,0.0,0.0,0.0,0.0,0.0,0.0,0.0,0.0,0.0,0.0,0.0,0.0,0.0,0.0,0.0,0.0,-5.7881,-5.7881,-5.7881,-5.7881,-5.7881,-5.7881,-5.7881,-5.7881,-5.7881,-5.7881,-5.7881,-5.7881,-5.7881,-5.7881,-5.7881,-5.7881,-5.7881,-5.7881,-5.7881,-5.7881,-5.7881,-5.7881,-5.7881,-5.7881,-5.7881,-5.7881,-5.7881,0.0,0.0,0.0,0.0,0.0,0.0,0.0,0.0,0.0,0.0,0.0,0.0,0.0,0.0,0.0,0.0,0.0,0.0,-3.2259,-3.2293,-3.3275,-3.5464,-3.7053,-3.9276,-4.2185,-4.6616,-4.9323,-5.0101,-5.2367,-5.1555,-4.7804,-4.5602,-4.3768,-4.2117,-3.8454,-3.7212,-3.7719,-3.4709,-3.3423,-3.3288,-3.1799,-3.0784,-3.004,0.0,0.0,0.0,0.0,0.0,0.0,0.0,-2.845,-2.8466,-3.2185,-3.2882,-3.2462,-3.3186,-3.6028,-3.8768,-3.8024,-3.843,-3.9884,-4.3538,0.0,0.0,-4.9866,-4.8951,-4.8951,-5.6359,-5.6122,-5.46,-5.46,0.0,0.0,0.0,0.0,0.0,0.0,0.0,0.0,0.0,0.0,0.0,0.0,0.0,0.0,0.0,0.0,0.0,0.0,-5.7881,-5.7881,-5.7881,-5.7881,-5.7881,-5.7881,-5.7881,-5.7881,-5.7881,-5.7881,-5.7881,-5.7881,-5.7881,-5.7881,-5.7881,-5.7881,-5.7881,-5.7881,-5.7881,-5.7881,-5.7881,-5.7881,-5.7881,-5.7881,-5.7881,-5.7881,-5.7881,0.0,0.0,0.0,0.0,0.0,0.0,0.0,0.0,0.0,0.0,0.0,0.0,0.0,0.0,0.0,0.0,0.0,0.0,-3.2293,-3.2293,-3.2835,-3.3998,-3.6028,-3.754,-3.842,-4.1779,-4.594,-5.0879,-5.1014,-4.9221,-4.5534,-4.4316,-4.2692,-4.0722,-3.9605,-3.8667,-3.7787,-3.5769,-3.4957,-3.4822,-3.3355,-3.2002,-3.0784,0.0,0.0,0.0,0.0,0.0,0.0,0.0,0.0,0.0,-2.9939,-3.1955,-3.3558,-3.2239,-3.3017,-3.402,-3.2747,-3.6772,0.0,-4.073,0.0,0.0,0.0,-5.2131,0.0,0.0,-5.6562,-5.5209,-5.4702,0.0,0.0,0.0,0.0,0.0,0.0,0.0,0.0,0.0,0.0,0.0,0.0,0.0,0.0,0.0,0.0,0.0,0.0,-5.7881,-5.7881,-5.7881,-5.7881,-5.7881,-5.7881,-5.7881,-5.7881,-5.7881,-5.7881,-5.7881,-5.7881,-5.7881,-5.7881,-5.7881,-5.7881,-5.7881,-5.7881,-5.7881,-5.7881,-5.7881,-5.7881,-5.7881,-5.7881,-5.7881,-5.7881,-5.7881,0.0,0.0,0.0,0.0,0.0,0.0,0.0,0.0,0.0,0.0,-3.2124,-3.2767,0.0,0.0,0.0,0.0,0.0,0.0,0.0,-3.2293,-3.2767,-3.3795,-3.5419,-3.7009,-3.8522,-4.0561,-4.3335,-4.6786,-4.7225,-4.6007,-4.3234,-4.3673,-4.3335,-4.232,-4.2651,-4.1914,-4.0426,-3.8294,-3.6874,-3.596,-3.4438,-3.3119,-3.1968,0.0,0.0,0.0,0.0,0.0,0.0,0.0,0.0,0.0,-2.8807,-3.0533,-3.2462,-3.3207,-3.4155,-3.5385,-3.7483,-4.1001,0.0,-4.6109,-4.9796,-5.3416,-5.4905,0.0,0.0,0.0,0.0,-5.6427,-5.5987,-5.7002,0.0,0.0,0.0,0.0,0.0,0.0,0.0,0.0,0.0,0.0,0.0,0.0,0.0,0.0,0.0,0.0,0.0,-5.7881,-5.7881,-5.7881,-5.7881,-5.7881,-5.7881,-5.7881,-5.7881,-5.7881,-5.7881,-5.7881,-5.7881,-5.7881,-5.7881,-5.7881,-5.7881,-5.7881,-5.7881,-5.7881,-5.7881,-5.7881,-5.7881,-5.7881,-5.7881,-5.7881,-5.7881,-5.7881,0.0,0.0,-3.119,-3.119,0.0,0.0,0.0,0.0,0.0,0.0,-3.1785,-3.2496,0.0,0.0,0.0,0.0,0.0,0.0,0.0,-3.2429,-3.3072,-3.4539,-3.5453,-3.7493,-4.0933,-4.1508,-4.1162,-3.9808,-4.2083,-4.2395,-4.0967,-4.3436,-4.4925,-4.5534,-4.6346,-4.5805,-4.4107,-4.1094,-3.8589,-3.6558,-3.5081,-3.4066,-3.3254,-3.1765,0.0,0.0,0.0,0.0,0.0,0.0,0.0,0.0,-2.8502,-2.9044,-3.0025,-3.4798,-3.7506,-4.0358,-4.7056,-4.8003,-4.8748,-5.5581,-5.504,0.0,-5.7103,-5.7881,-5.7881,-5.7881,0.0,-5.7881,-5.7881,0.0,0.0,0.0,0.0,0.0,0.0,0.0,0.0,0.0,0.0,0.0,0.0,0.0,0.0,0.0,0.0,0.0,0.0,-5.7881,-5.7881,-5.7881,-5.7881,-5.7881,-5.7881,-5.7881,-5.7881,-5.7881,-5.7881,-5.7881,-5.7881,-5.7881,-5.7881,-5.7881,-5.7881,-5.7881,-5.7881,-5.7881,-5.7881,-5.7881,-5.7881,-5.7881,-5.7881,-5.7881,-5.7881,-5.7881,0.0,0.0,-3.119,-3.119,0.0,0.0,0.0,0.0,0.0,0.0,0.0,0.0,0.0,-3.3051,0.0,0.0,0.0,0.0,0.0,-3.3491,-3.3829,-3.5295,-3.7246,-3.8633,-3.9445,-3.8488,-3.7845,-3.7506,-4.0324,-4.0629,-3.87,-4.2726,-4.435,-4.395,-4.5331,-4.4451,-4.1745,-3.8792,-3.6874,-3.5791,-3.4878,-3.4066,-3.3254,-3.1765,-3.0296,0.0,0.0,0.0,0.0,0.0,0.0,0.0,-2.8502,-2.9416,-3.0074,-3.1224,-3.4675,-3.8362,-3.9377,-4.4445,0.0,0.0,-5.4668,-5.69,-5.7712,-5.7881,-5.7881,-5.7881,-5.7881,0.0,0.0,0.0,0.0,0.0,0.0,0.0,0.0,0.0,0.0,0.0,0.0,0.0,0.0,0.0,0.0,0.0,0.0,0.0,-5.7881,-5.7881,-5.7881,-5.7881,-5.7881,-5.7881,-5.7881,-5.7881,-5.7881,0.0,-5.7881,-5.7881,-5.7881,-5.7881,-5.7881,-5.7881,-5.7881,-5.7881,-5.7881,-5.7881,-5.7881,-5.7881,-5.7881,-5.7881,-5.7881,-5.7881,-5.7881,-5.7881,0.0,0.0,0.0,0.0,0.0,0.0,0.0,0.0,0.0,0.0,0.0,0.0,0.0,-3.2666,0.0,0.0,-3.3626,0.0,0.0,0.0,-3.4404,-3.658,-3.8531,-3.9174,-3.8497,-3.7347,-3.6457,-3.5712,-3.7246,-3.7787,-3.7449,-4.1204,-4.3132,-4.3477,-4.5026,-4.3842,-4.0595,-3.9005,-3.7313,-3.56,-3.5588,-3.4709,-3.3288,-3.2138,-3.0345,-2.8281,-2.7097,0.0,0.0,0.0,0.0,0.0,0.0,0.0,-2.8958,-3.1461,-3.3389,-3.5926,-4.161,0.0,0.0,-5.3416,0.0,-5.7881,-5.7881,-5.7881,-5.7881,-5.7881,0.0,0.0,0.0,0.0,0.0,0.0,0.0,0.0,0.0,0.0,0.0,0.0,0.0,0.0,0.0,0.0,0.0,0.0,0.0,-5.7881,-5.7881,-5.7881,-5.7881,-5.7881,-5.7881,-5.7881,-5.7881,-5.7881,-5.7881,-5.7881,-5.7881,-5.7881,-5.7881,-5.7881,-5.7881,-5.7881,-5.7881,-5.7881,-5.7881,-5.7881,-5.7881,-5.7881,-5.7881,-5.7881,-5.7881,-5.7881,-5.7881,-5.7881,0.0,0.0,0.0,0.0,0.0,0.0,0.0,0.0,0.0,0.0,0.0,0.0,0.0,0.0,-3.2564,0.0,0.0,0.0,0.0,0.0,0.0,-3.7584,-3.9005,-3.9097,-3.7753,-3.684,-3.578,-3.4506,-3.437,-3.5216,-3.7066,-3.9884,-4.2016,-4.3443,-4.4621,-4.3267,-4.0054,-3.9411,-3.755,-3.5059,-3.5622,-3.4607,-3.2747,-3.2022,-3.0074,-2.7689,-2.6962,-2.6691,-2.6725,-2.686,0.0,0.0,0.0,0.0,-2.774,-3.207,-3.2679,-3.4235,-4.4756,0.0,-4.9052,-5.6122,-5.7881,0.0,-5.7881,-5.7881,0.0,0.0,0.0,0.0,0.0,0.0,0.0,0.0,0.0,0.0,0.0,0.0,0.0,0.0,0.0,0.0,0.0,0.0,0.0,0.0,0.0,-5.7881,-5.7881,-5.7881,-5.7881,-5.7881,-5.7881,-5.7881,-5.7881,-5.7881,-5.7881,-5.7881,-5.7881,-5.7881,-5.7881,-5.7881,-5.7881,-5.7881,-5.7881,-5.7881,-5.7881,-5.7881,-5.7881,-5.7881,-5.7881,-5.7881,-5.7881,-5.7881,-5.7881,-5.7881,0.0,0.0,0.0,0.0,0.0,0.0,0.0,0.0,0.0,0.0,-3.2226,-3.2293,0.0,0.0,0.0,-3.2429,-3.2949,0.0,0.0,0.0,0.0,-3.6897,-3.7753,-3.7787,-3.6965,-3.5543,-3.4709,-3.4506,-3.3863,-3.4979,-3.7821,-4.0121,-4.2016,-4.3375,-4.2963,-4.1745,-3.991,-3.6626,-3.429,-3.2699,-3.2138,-3.1393,-3.048,-2.9721,-2.8755,-2.7689,-2.6962,-2.6691,-2.6793,-2.7418,-2.7655,0.0,0.0,0.0,-2.779,-2.85,-3.1678,-3.5363,0.0,0.0,-5.098,0.0,-5.7881,-5.7881,0.0,0.0,0.0,0.0,0.0,0.0,0.0,0.0,0.0,0.0,0.0,0.0,0.0,0.0,0.0,0.0,0.0,0.0,0.0,0.0,0.0,0.0,-5.7881,-5.7881,-5.7881,-5.7881,-5.7881,-5.7881,-5.7881,-5.7881,-5.7881,-5.7881,-5.7881,-5.7881,-5.7881,-5.7881,-5.7881,-5.7881,-5.7881,-5.7881,-5.7881,-5.7881,-5.7881,-5.7881,-5.7881,-5.7881,-5.7881,-5.7881,-5.7881,-5.7881,-5.7881,-5.7881,0.0,0.0,0.0,0.0,0.0,0.0,0.0,0.0,0.0,0.0,0.0,-3.3207,0.0,0.0,0.0,-3.1718,0.0,0.0,0.0,0.0,0.0,-3.6096,-3.6434,-3.6445,-3.6129,-3.4641,-3.41,-3.4506,-3.3376,-3.4742,-3.8531,-3.9512,-4.0764,-4.2117,-4.0967,-3.9377,-3.7415,-3.4945,-3.3017,-3.1684,-3.1326,-3.2273,-3.3491,-3.0228,-3.004,-3.1123,-2.7875,-2.6691,-2.6793,-2.7553,-2.779,-2.779,-2.779,0.0,0.0,0.0,-2.9431,0.0,-3.9039,-4.5568,-5.186,0.0,-5.7881,0.0,0.0,0.0,0.0,0.0,0.0,0.0,0.0,0.0,0.0,0.0,0.0,0.0,0.0,0.0,0.0,0.0,0.0,0.0,0.0,0.0,0.0,0.0,-5.7881,-5.7881,-5.7881,-5.7881,-5.7881,-5.7881,-5.7881,-5.7881,-5.7881,-5.7881,-5.7881,-5.7881,-5.7881,-5.7881,-5.7881,-5.7881,-5.7881,-5.7881,-5.7881,-5.7881,-5.7881,-5.7881,-5.7881,-5.7881,-5.7881,-5.7881,-5.7881,-5.7881,-5.7881,-5.7881,0.0,0.0,0.0,0.0,0.0,0.0,0.0,0.0,0.0,0.0,0.0,0.0,0.0,0.0,0.0,0.0,-3.119,0.0,0.0,0.0,0.0,-3.4991,-3.5025,-3.4957,-3.4776,-3.3694,-3.3389,-3.3952,-3.3207,-3.5069,-3.9276,-3.9648,-4.073,-4.2252,-4.0392,-3.8396,-3.6332,-3.4269,-3.2645,-3.1549,-3.207,-3.3863,-3.5949,-3.3376,-3.4087,-3.5791,-3.0548,-2.8687,-2.8586,0.0,0.0,-2.779,0.0,0.0,0.0,0.0,0.0,0.0,0.0,0.0,-4.9187,0.0,0.0,0.0,0.0,0.0,0.0,0.0,0.0,0.0,0.0,0.0,0.0,0.0,0.0,0.0,0.0,0.0,0.0,0.0,0.0,0.0,0.0,0.0,0.0,0.0,-5.7881,-5.7881,-5.7881,-5.7881,-5.7881,-5.7881,-5.7881,-5.7881,-5.7881,-5.7881,-5.7881,-5.7881,-5.7881,-5.7881,-5.7881,-5.7881,-5.7881,-5.7881,-5.7881,-5.7772,-5.7517,-5.7772,-5.7701,-5.7517,-5.7808,-5.7881,-5.7881,-5.7881,-5.7881,-5.7881,0.0,0.0,0.0,0.0,0.0,0.0,0.0,0.0,0.0,0.0,0.0,0.0,-3.3355,-3.2713,-3.1989,-3.1258,-3.119,-3.1495,-3.2259,-3.2361,0.0,-3.3491,-3.3525,0.0,-3.2496,-3.2395,-3.2395,-3.2429,-3.3749,-3.6321,-4.0079,-4.1467,-4.3301,-4.5331,-4.2388,-4.0257,-3.8565,-3.4945,-3.2949,-3.2429,-3.4539,-3.5081,-3.5115,-3.9817,-4.1711,-4.1204,-3.596,-3.41,0.0,0.0,0.0,0.0,0.0,0.0,0.0,0.0,0.0,0.0,0.0,-3.729,0.0,0.0,0.0,0.0,0.0,0.0,0.0,0.0,0.0,0.0,0.0,0.0,0.0,0.0,0.0,0.0,0.0,0.0,0.0,0.0,0.0,0.0,0.0,0.0,0.0,0.0,-5.7881,-5.7881,-5.7881,-5.7881,-5.7881,-5.7881,-5.7881,-5.7881,-5.7881,-5.7881,-5.7881,-5.7881,-5.7881,-5.7881,-5.7881,-5.7881,-5.7881,-5.7881,-5.7881,-5.7297,-5.636,-5.7446,-5.726,-5.6398,-5.748,-5.7881,-5.7881,-5.7881,-5.7881,-5.7881,0.0,0.0,0.0,0.0,0.0,0.0,0.0,0.0,0.0,0.0,0.0,0.0,0.0,-3.2462,-3.1989,-3.1258,-3.119,-3.1292,-3.1562,-3.1582,0.0,-3.2666,-3.2239,-3.207,-3.2293,-3.1853,-3.1582,-3.1582,-3.2104,-3.4032,-3.7246,-3.8768,-4.0426,-4.2057,-4.1474,-4.0663,-3.9411,-3.4675,-3.253,-3.2496,-3.4709,-3.7753,-4.0891,-3.9851,-4.3335,-4.7797,-4.0121,0.0,0.0,0.0,0.0,0.0,0.0,0.0,0.0,0.0,0.0,0.0,0.0,0.0,0.0,0.0,0.0,0.0,0.0,0.0,0.0,0.0,0.0,0.0,0.0,0.0,0.0,0.0,0.0,0.0,0.0,0.0,0.0,0.0,0.0,0.0,0.0,0.0,0.0,0.0,0.0,-5.7881,-5.7881,-5.7881,-5.7881,-5.7881,-5.7881,-5.7881,-5.7881,-5.7881,-5.7881,-5.7881,-5.7881,-5.7881,-5.7881,-5.7881,-5.7881,-5.7881,-5.7881,-5.7665,-5.726,-5.6963,-5.7001,-5.726,-5.6963,-5.726,-5.7881,-5.7881,-5.7881,-5.7881,0.0,0.0,0.0,0.0,0.0,0.0,0.0,0.0,0.0,-3.2259,0.0,0.0,0.0,0.0,-3.2632,-3.1684,-3.1582,-3.1481,-3.1224,-3.119,-3.1427,-3.1921,-3.1481,-3.1427,-3.1921,-3.1427,-3.1089,-3.0818,-3.1326,-3.2814,-3.5261,-3.7077,-3.8836,-4.0434,-4.0223,-4.0257,-4.0164,-3.5712,-3.3816,-3.4155,-3.7855,-4.0865,-4.3159,-4.3673,-4.6955,0.0,0.0,0.0,0.0,0.0,0.0,0.0,0.0,0.0,0.0,0.0,0.0,0.0,-3.0108,0.0,0.0,0.0,0.0,0.0,0.0,0.0,0.0,0.0,0.0,0.0,0.0,0.0,0.0,0.0,0.0,0.0,0.0,0.0,0.0,0.0,0.0,0.0,0.0,0.0,0.0,0.0,0.0,0.0,-5.7881,-5.7881,-5.7881,-5.7881,-5.7881,-5.7881,-5.7881,-5.7881,-5.7881,-5.7881,-5.7881,-5.7881,-5.7881,-5.7881,-5.7881,-5.7881,-5.7881,-5.7665,-5.726,-5.6509,-5.6432,-5.6773,-5.636,-5.6663,-5.7372,-5.7772,-5.7881,-5.7881,0.0,0.0,0.0,0.0,0.0,0.0,0.0,0.0,-3.1495,-3.2226,0.0,0.0,0.0,0.0,0.0,-3.253,-3.2395,-3.2022,-3.1258,-3.119,-3.1157,-3.1157,0.0,0.0,-3.119,-3.119,-3.0818,-3.0074,-3.1529,-3.297,-3.4404,-3.6671,-3.8903,-4.0899,-3.8802,-3.9039,-4.0832,-3.7889,-3.6728,-3.7371,-4.4079,-4.4209,-4.15,0.0,0.0,0.0,-4.8477,-4.7631,0.0,-4.5263,0.0,0.0,0.0,0.0,0.0,0.0,0.0,0.0,0.0,0.0,0.0,0.0,0.0,0.0,-5.1792,0.0,0.0,0.0,0.0,0.0,0.0,0.0,0.0,0.0,0.0,0.0,0.0,0.0,0.0,0.0,0.0,0.0,0.0,0.0,0.0,0.0,-5.7881,-5.7881,-5.7881,-5.7881,-5.7881,-5.7881,-5.7881,-5.7881,-5.7881,-5.7881,-5.7881,-5.7881,-5.7881,-5.7881,-5.7881,-5.7881,-5.7845,-5.7845,-5.7808,-5.7151,-5.6165,-5.6165,-5.5538,-5.4713,-5.5698,-5.6165,-5.6321,-5.7409,-5.7881,-5.7881,0.0,0.0,0.0,0.0,0.0,0.0,-3.1258,-3.165,-3.2056,0.0,0.0,0.0,-3.3423,-3.4539,-3.5126,-3.4742,-3.4201,-3.3139,-3.1326,-3.0717,-3.0412,-3.0412,-3.0412,-3.0649,-3.119,-3.119,-3.0581,-2.9314,-3.0243,-3.092,-3.136,-3.3051,-3.4742,-3.6332,-3.6276,-3.658,-3.6986,-3.4573,-3.4798,-3.7337,-4.3504,-4.621,0.0,0.0,0.0,0.0,0.0,-5.2131,-4.9458,0.0,-4.5331,-3.6434,0.0,0.0,0.0,0.0,0.0,0.0,-2.6556,0.0,0.0,0.0,0.0,0.0,-4.2286,-4.6989,0.0,0.0,0.0,0.0,0.0,0.0,0.0,0.0,0.0,0.0,0.0,0.0,0.0,0.0,0.0,0.0,0.0,0.0,0.0,0.0,-5.7881,-5.7881,-5.7881,-5.7881,-5.7881,-5.7881,-5.7881,-5.7881,-5.7881,-5.7881,-5.7881,-5.7881,-5.7881,-5.7881,-5.7881,-5.7039,-5.6663,-5.6624,-5.585,-5.5329,-5.5043,-5.5043,-5.4879,-5.4547,-5.4041,-5.4806,-5.6243,-5.6547,-5.7222,-5.7881,0.0,0.0,0.0,0.0,0.0,-3.3525,-3.3119,-3.3389,-3.366,0.0,0.0,0.0,-3.5216,-3.6603,-3.711,-3.6197,-3.5115,-3.3694,-3.1785,-3.0683,-3.0108,-3.0108,-3.0108,-3.0581,-3.165,-3.136,-3.0615,-2.9465,-2.9905,-2.9751,-2.9176,-3.0987,-3.2158,-3.2713,-3.3457,-3.3931,-3.4066,-3.1853,-3.3004,0.0,-4.4485,0.0,0.0,-5.4093,-5.707,0.0,0.0,0.0,-5.3382,-5.6731,-4.9729,0.0,0.0,0.0,0.0,0.0,0.0,0.0,0.0,0.0,0.0,0.0,0.0,0.0,-4.0798,-4.4857,-4.8714,0.0,0.0,0.0,0.0,0.0,0.0,0.0,0.0,0.0,0.0,0.0,0.0,0.0,0.0,0.0,0.0,-5.7881,-5.7881,-5.7881,-5.7881,-5.7881,-5.7881,-5.7881,-5.7881,-5.7881,-5.7881,-5.7881,-5.7881,-5.7881,-5.7881,-5.7881,-5.7881,-5.7628,-5.7151,-5.6476,-5.5968,-5.5498,-5.4879,-5.4337,-5.3871,-5.3871,-5.3871,-5.3828,-5.3165,-5.3967,-5.5611,-5.6047,-5.6925,-5.7881,0.0,0.0,-3.2564,-3.3389,-3.4754,-3.5769,-3.5836,-3.5836,-3.5938,0.0,-3.6276,-3.6952,-3.8599,-3.9715,-3.9571,-3.7574,-3.578,-3.4066,-3.253,-3.0886,-2.9987,-3.0108,-3.0108,-3.0751,-3.2158,-3.1616,-3.0886,-2.9973,-2.9973,-2.9277,-2.7993,-2.9939,-3.0548,-3.0142,-3.0615,-3.1244,-3.1819,-3.0025,0.0,-3.6749,-4.5669,-4.7192,0.0,0.0,-5.5716,-5.2976,-5.6968,-5.7746,-5.734,-6.0182,-5.5141,0.0,0.0,0.0,0.0,0.0,-2.824,0.0,0.0,0.0,0.0,0.0,0.0,0.0,-4.2591,-4.391,-4.5365,0.0,0.0,0.0,0.0,0.0,0.0,0.0,0.0,0.0,0.0,0.0,0.0,0.0,0.0,0.0,-5.7881,-5.7881,-5.7881,-5.7881,-5.7881,-5.7881,-5.7881,-5.7881,-5.7881,-5.7881,-5.7881,-5.7881,-5.7881,-5.7881,-5.7881,-5.7881,-5.7772,-5.7185,-5.6204,-5.5968,-5.5296,-5.4421,-5.4295,-5.3656,-5.2678,-5.2678,-5.2678,-5.2678,-5.2678,-5.3483,-5.4713,-5.5658,-5.6849,-5.7881,0.0,0.0,-3.2733,-3.4032,-3.5554,-3.6772,-3.7381,-3.7425,-3.8091,-3.9884,-4.0629,-4.1813,-4.3944,-4.2794,-4.1677,-4.1238,-3.8251,-3.5475,-3.3322,-3.0683,-2.9465,-3.0074,-3.0108,-3.0514,-3.1393,-3.1853,-3.1142,-2.9213,-2.9213,-2.9077,-2.8773,-2.8568,-2.9041,-3.0074,-2.8939,-2.889,-2.9687,-3.0465,0.0,-3.8667,-4.232,0.0,-4.9526,-5.6224,-5.937,-6.0317,-6.1197,-5.9844,-5.7239,-5.4363,-5.3247,-5.1623,0.0,0.0,0.0,0.0,0.0,0.0,0.0,0.0,0.0,0.0,0.0,0.0,-3.322,-3.6738,-4.0223,0.0,0.0,0.0,0.0,0.0,0.0,0.0,0.0,0.0,0.0,0.0,0.0,0.0,0.0,0.0,-5.7881,-5.7881,-5.7881,-5.7881,-5.7881,-5.7881,-5.7881,-5.7881,-5.7881,-5.7881,-5.7881,-5.7881,-5.7881,-5.7881,-5.7881,-5.7881,-5.6963,-5.6398,-5.6165,-5.4348,-5.3439,-5.3209,-5.226,-5.1727,-5.1496,-5.1496,-5.1496,-5.1496,-5.1496,-5.2767,-5.463,-5.4838,-5.6198,-5.7881,0.0,-3.2903,-3.3964,-3.5859,-3.7449,-3.8802,-3.9918,-4.0087,-4.0629,-4.2117,-4.3301,-4.4012,-4.4012,-4.3301,-4.2252,-4.0764,-3.8285,-3.5847,-3.3558,-3.0987,-2.9702,-3.0055,-2.9736,-3.0412,-3.2273,-3.1935,-3.121,-3.0093,-2.9736,-2.8958,-2.7859,-2.8213,-3.0006,-3.2692,-2.9311,-2.9886,-3.3254,0.0,-3.2104,-3.6772,-4.3098,0.0,-5.345,-5.8693,-6.14,-6.2381,-6.2381,-6.1434,-5.9776,-5.7543,-5.5074,0.0,0.0,-4.5833,-4.367,0.0,-3.7253,-4.0087,0.0,0.0,0.0,-3.4134,0.0,0.0,0.0,-3.596,-3.8261,0.0,0.0,0.0,0.0,0.0,0.0,0.0,0.0,0.0,0.0,0.0,0.0,0.0,0.0,0.0,-5.7881,-5.7881,-5.7881,-5.7881,-5.7881,-5.7881,-5.7881,-5.7881,-5.7881,-5.7881,-5.7881,-5.7881,-5.7881,-5.7881,-5.7881,-5.7881,-5.6739,-5.5929,-5.5369,-5.3656,-5.262,-5.2018,-5.1433,-5.1229,-5.1229,-5.1229,-5.1496,-5.2063,-5.2063,-5.3077,-5.4672,-5.5174,-5.647,-5.7881,-3.2226,-3.3376,-3.4945,-3.711,-3.8836,-4.0392,-4.1847,-4.2083,-4.2455,-4.3504,-4.5331,-4.5974,-4.4418,-4.4891,-4.4384,-4.1982,-4.0155,-3.799,-3.5284,-3.2916,-3.1732,-3.2002,-3.0364,-3.0939,-3.4201,-3.2239,-3.0987,-3.0548,-2.9973,-2.8653,-2.6725,-2.796,-3.0548,-3.3943,-3.0596,-3.1881,-3.6332,0.0,0.0,-3.6941,0.0,-5.0541,-5.3653,-5.8592,-6.0723,-6.1197,-6.2076,-6.2381,-6.2313,-6.1704,-5.7408,-5.2166,-5.1564,-4.9344,0.0,0.0,0.0,0.0,0.0,0.0,0.0,0.0,0.0,-3.4257,0.0,0.0,0.0,0.0,0.0,0.0,0.0,0.0,0.0,0.0,0.0,0.0,0.0,0.0,0.0,0.0,0.0,0.0,0.0,-5.6765,-5.6968,-5.7814,-5.7103,-5.6968,-5.7848,-5.7881,-5.7881,-5.7881,-5.7881,-5.7881,-5.7881,-5.7881,-5.7808,-5.7554,-5.6432,-5.5296,-5.4253,-5.3077,-5.2063,-5.1229,-5.1229,-5.1229,-5.1229,-5.1229,-5.1727,-5.262,-5.2812,-5.3742,-5.5011,-5.5889,-5.6925,-5.7881,-3.2056,-3.2949,-3.4032,-3.56,-3.7686,-3.9614,-4.1102,-4.1339,-4.2083,-4.4209,-4.7462,-4.9999,-5.1148,-5.1894,-5.2232,-5.1894,-4.9255,-4.5805,-4.1576,0.0,-3.7584,-3.8928,-3.3816,-3.2983,-3.7313,-3.3322,-3.0209,-2.8196,-2.8094,-2.7587,-2.6691,-2.686,-2.7571,-2.8838,-3.2239,0.0,0.0,0.0,-4.0426,0.0,-4.753,-4.6341,0.0,-5.098,-5.4702,-5.7002,-6.096,-6.2381,-6.1975,0.0,-5.7408,-5.504,0.0,-5.061,-5.3078,0.0,0.0,0.0,0.0,0.0,0.0,0.0,-3.6941,0.0,0.0,0.0,0.0,0.0,0.0,0.0,0.0,0.0,0.0,0.0,0.0,0.0,0.0,0.0,0.0,0.0,0.0,0.0,0.0,-5.2773,-5.3619,-5.7577,-5.4228,-5.3721,-5.7679,-5.7881,-5.7881,-5.7881,-5.7881,-5.7881,-5.7881,-5.7881,-5.7372,-5.636,-5.5329,-5.4211,-5.3077,-5.188,-5.1293,-5.1229,-5.1229,-5.1229,-5.1229,-5.1229,-5.1246,-5.1479,-5.253,-5.4179,-5.6047,-5.6165,-5.6925,-5.7881,-3.136,-3.2611,0.0,-3.5329,-3.7144,-3.887,0.0,0.0,-4.4012,-4.4547,-4.7056,-4.8917,-4.912,-4.9424,0.0,0.0,0.0,-4.665,0.0,0.0,0.0,0.0,0.0,0.0,-3.525,-3.2171,-2.9871,-2.8484,-2.8027,-2.7418,-2.6691,-2.6691,-2.9194,-3.3706,-3.4709,0.0,-4.0967,0.0,-4.2794,0.0,0.0,0.0,0.0,-5.3957,-5.8761,-5.9844,-6.1704,-6.2381,-6.2212,0.0,-5.7679,0.0,0.0,0.0,0.0,0.0,0.0,0.0,0.0,0.0,0.0,0.0,0.0,0.0,-3.3288,0.0,-3.1596,0.0,0.0,0.0,0.0,0.0,0.0,0.0,0.0,0.0,0.0,0.0,0.0,0.0,0.0,0.0,0.0,0.0,0.0,0.0,-5.6156,-5.5919,-5.778,-5.7881,-5.7881,-5.7881,-5.7881,-5.7881,-5.7881,-5.7881,-5.7665,-5.7185,-5.545,-5.456,-5.4384,-5.2596,-5.2007,-5.2366,-5.2366,-5.2366,-5.2366,-5.2366,-5.2765,-5.336,-5.3882,-5.441,-5.5038,-5.6311,-5.7363,-5.8153,-3.0296,0.0,0.0,0.0,0.0,0.0,0.0,-4.2117,-4.3944,-4.4215,-4.621,-4.78,-4.824,-4.9221,0.0,0.0,-5.1657,-5.0202,0.0,0.0,-4.1914,0.0,0.0,0.0,0.0,0.0,-2.9837,-2.8653,-2.7875,-2.7435,-2.7351,-2.7097,-3.0345,-3.64,0.0,-4.0569,-4.6413,0.0,-4.6041,-4.4987,-4.8376,-4.8646,-4.8003,-5.7103,-6.1332,-6.2381,-6.2381,-6.2381,-6.2245,-6.1434,-5.778,0.0,-5.8321,0.0,0.0,0.0,0.0,0.0,-4.1488,0.0,0.0,0.0,0.0,0.0,0.0,0.0,0.0,0.0,0.0,0.0,0.0,0.0,0.0,0.0,0.0,0.0,0.0,0.0,0.0,0.0,0.0,0.0,0.0,0.0,0.0,0.0,0.0,-5.6596,-5.7814,-5.7591,-5.7591,-5.7881,-5.7591,-5.7692,-5.8186,-5.8186,-5.7995,-5.7525,-5.5953,-5.508,-5.4888,-5.3249,-5.2918,-5.3675,-5.3368,-5.3417,-5.3675,-5.3368,-5.3675,-5.4497,-5.4746,-5.4515,-5.4252,-5.6294,-5.7552,-5.8297,-2.8773,-3.0262,0.0,0.0,0.0,0.0,0.0,0.0,0.0,0.0,0.0,0.0,0.0,0.0,0.0,0.0,0.0,-6.0047,-5.5546,0.0,-4.9866,0.0,0.0,-3.7821,0.0,0.0,0.0,0.0,-2.7097,-2.7486,-2.8908,-2.8146,-2.9465,-3.2733,-3.8464,-4.1576,-4.2794,-4.7834,-5.2401,-5.6156,-5.4871,-5.7306,-6.1298,0.0,-5.8626,-6.2381,-6.2381,0.0,0.0,-5.9032,-5.7408,0.0,0.0,0.0,0.0,0.0,0.0,0.0,0.0,0.0,0.0,-3.7326,0.0,0.0,0.0,0.0,-3.4167,0.0,0.0,0.0,0.0,0.0,0.0,0.0,0.0,0.0,0.0,0.0,0.0,0.0,0.0,0.0,0.0,0.0,0.0,0.0,0.0,0.0,-5.7645,-5.6854,-5.6739,-5.7881,-5.6816,-5.7143,-5.8927,-5.8964,-5.8202,-5.6723,-5.668,-5.5444,-5.329,-5.3193,-5.3836,-5.4854,-5.3723,-5.3836,-5.4854,-5.3675,-5.3223,-5.3368,-5.4497,-5.4613,-5.4387,-5.592,-5.7278,-5.8297,-2.9634,-3.0514,0.0,0.0,0.0,0.0,0.0,-3.9639,0.0,0.0,-4.7597,0.0,0.0,-5.6122,-5.7949,0.0,0.0,-5.9607,-5.663,-5.2469,0.0,0.0,0.0,-3.8836,0.0,0.0,0.0,0.0,0.0,-2.9228,-2.9736,-2.9465,-3.0649,0.0,0.0,-4.3267,0.0,0.0,0.0,0.0,0.0,-5.6833,-6.0148,0.0,0.0,-6.2381,-6.2381,-6.2381,0.0,-6.1197,-5.9066,-5.707,-5.8524,-5.6258,-5.3348,-5.4566,-5.3854,0.0,0.0,0.0,-5.1059,-4.2814,0.0,0.0,0.0,0.0,0.0,0.0,0.0,0.0,0.0,0.0,0.0,0.0,0.0,0.0,0.0,0.0,0.0,0.0,0.0,0.0,0.0,0.0,0.0,0.0,0.0,0.0,0.0,-5.7554,-5.7719,-5.8626,-5.8257,-5.8593,-5.9742,-5.9742,-5.9087,-5.7729,-5.7045,-5.6118,-5.4983,-5.5047,-5.5084,-5.5152,-5.5529,-5.5481,-5.5103,-5.469,-5.4521,-5.464,-5.5818,-5.618,-5.6159,-5.6992,-5.7836,-5.8864,-3.0818,-3.1055,0.0,0.0,0.0,0.0,0.0,0.0,0.0,0.0,-4.912,0.0,-5.6055,0.0,-5.8761,0.0,-6.14,-6.0419,-5.7374,-5.4702,0.0,-5.3213,-4.6177,0.0,0.0,0.0,0.0,0.0,0.0,-3.1427,-3.2476,-3.1393,0.0,0.0,0.0,-4.3369,-4.9289,0.0,-5.6055,0.0,0.0,-5.849,0.0,0.0,-6.1907,-6.1298,0.0,-6.2381,-6.2381,-6.2381,-6.0791,-5.9201,-6.1637,-5.9066,-5.5683,-5.8084,-5.707,-5.4905,-5.3551,-5.4972,0.0,-4.7327,-4.6515,0.0,-3.7922,0.0,0.0,0.0,0.0,0.0,0.0,0.0,0.0,0.0,0.0,0.0,0.0,-2.6894,0.0,0.0,0.0,0.0,0.0,0.0,0.0,0.0,0.0,0.0,0.0,0.0,-5.8526,-5.9333,-5.9031,-5.9401,-6.052,-6.0068,-5.9425,-5.847,-5.7349,-5.6417,-5.5687,-5.6151,-5.6159,-5.5869,-5.6656,-5.6541,-5.5819,-5.5819,-5.5819,-5.5967,-5.7181,-5.7621,-5.7651,-5.7987,-5.8384,-5.9036,-3.2226,-3.1853,-3.163,0.0,-3.4201,0.0,0.0,0.0,-4.3842,0.0,-5.0137,-5.3281,-5.7746,-5.9471,-6.0892,-6.2381,-6.3802,-6.2787,-5.849,-5.7442,0.0,0.0,-5.2739,-5.1657,-5.4702,0.0,0.0,0.0,0.0,0.0,0.0,0.0,0.0,0.0,-3.7855,0.0,-4.9154,-5.1386,-5.6224,-6.2381,-6.2381,-6.2313,-6.2245,-6.2381,-6.1028,-5.937,-6.1603,-6.2381,-6.2381,-6.2381,-6.2381,-6.2381,-6.2381,-6.2381,-6.2381,-6.2381,-6.2381,-6.1603,-5.8051,-5.707,-5.5852,-5.0676,0.0,0.0,0.0,0.0,-4.4688,0.0,0.0,0.0,0.0,0.0,0.0,0.0,0.0,0.0,0.0,0.0,0.0,0.0,0.0,0.0,0.0,0.0,0.0,0.0,0.0,0.0,0.0,0.0,-5.8667,-6.011,-5.9112,-5.9438,-6.1366,-6.013,-5.9272,-5.8767,-5.7621,-5.6445,-5.533,-5.6541,-5.7086,-5.7086,-5.7086,-5.7086,-5.7086,-5.7086,-5.7086,-5.7198,-5.836,-5.8812,-5.8812,-5.8812,-5.8857,-5.8902,-3.3186,-3.3863,-3.4518,0.0,-3.5228,-3.6107,0.0,0.0,0.0,0.0,-5.46,-5.8524,-6.2448,-6.3226,-6.3599,-6.4005,-6.4377,0.0,0.0,0.0,0.0,-6.2516,-5.619,-5.4025,-5.6968,-4.8477,0.0,-4.2557,0.0,0.0,-3.5103,0.0,0.0,0.0,0.0,0.0,-4.912,-5.0811,-5.5716,-6.2381,-6.2381,-6.14,0.0,0.0,-6.1806,-6.0047,-6.1772,-6.2381,-6.2381,-6.2381,-6.2381,-6.2381,-6.2381,-6.2381,-6.2381,-6.2381,-6.2381,-6.2178,-6.1197,-6.096,-5.9979,-5.5818,-5.3957,-5.2063,0.0,0.0,0.0,0.0,0.0,0.0,0.0,0.0,0.0,0.0,0.0,0.0,0.0,0.0,0.0,-3.0074,0.0,0.0,0.0,0.0,0.0,0.0,0.0,0.0,0.0,0.0,0.0,-6.0786,-5.9838,-6.0163,-6.211,-6.0935,-5.9793,-5.8812,-5.8496,-5.7714,-5.659,-5.7807,-5.836,-5.836,-5.836,-5.836,-5.836,-5.836,-5.836,-5.836,-5.8677,-5.8812,-5.8812,-5.8812,-5.9346,-6.0,-3.4416,-3.6096,0.0,-3.7144,0.0,0.0,-4.1238,-4.3267,0.0,-5.2131,-5.5886,0.0,-6.2313,-6.4377,-6.5561,-6.5561,-6.5561,0.0,-6.2753,0.0,0.0,-6.2178,-5.9708,-5.8998,-6.0317,-5.3822,0.0,-4.679,0.0,0.0,-3.6434,0.0,0.0,0.0,0.0,-4.0933,0.0,-5.1488,-5.6258,-6.0554,-6.2212,0.0,0.0,-6.3226,-6.3193,-6.2178,-6.3057,-6.3159,-6.2888,-6.2888,-6.2651,-6.2381,-6.2381,-6.2381,-6.2381,-6.2381,-6.2381,-6.2381,-6.2381,-6.2381,-6.1873,-5.9776,-5.8626,-5.7036,-5.3281,-5.3044,-5.3416,0.0,0.0,0.0,0.0,0.0,0.0,0.0,0.0,0.0,0.0,0.0,0.0,0.0,0.0,0.0,0.0,0.0,0.0,0.0,0.0,0.0,0.0,0.0,0.0,-5.869,-6.0074,-6.1005,-6.1635,-6.0417,-5.9478,-5.8812,-5.8268,-5.7668,-5.7086,-5.8812,-5.9036,-5.8085,-5.9125,-5.9302,-5.8857,-5.9346,-5.9258,-5.8812,-5.8812,-5.8812,-5.8722,-5.8223,-5.8419,-5.8825,-3.5769,-3.8091,0.0,0.0,0.0,0.0,0.0,-4.5978,0.0,-5.3585,0.0,-5.8829,-6.0757,-6.4478,-6.6812,-6.6812,0.0,-6.5155,-6.1231,-6.4038,-6.4106,-6.0216,-6.3057,-6.4444,-6.3802,-6.0013,0.0,0.0,0.0,0.0,0.0,0.0,0.0,0.0,0.0,0.0,0.0,-5.2976,-5.7509,-5.8896,-6.2212,-6.3565,-6.3734,-6.4478,-6.4749,-6.4749,-6.485,-6.4343,-6.3666,-6.3666,-6.3159,-6.2516,-6.2516,-6.2482,-6.2381,-6.2381,-6.2381,-6.2381,-6.2381,-6.2381,-6.2381,-6.2381,-6.2381,-6.1535,-5.8287,-5.7543,-5.7543,-5.7543,-5.4938,-5.4499,0.0,0.0,0.0,0.0,0.0,0.0,0.0,0.0,0.0,0.0,0.0,0.0,0.0,0.0,0.0,0.0,0.0,0.0,0.0,0.0,0.0,-5.6493,-6.0198,-6.1716,-6.0828,0.0,-5.9036,-5.9036,-5.7807,-5.7245,-5.7292,-5.9434,-5.9302,-5.7574,-5.9697,-6.0118,-5.9346,-6.0417,-6.0,-5.8767,-5.8632,-5.8542,-5.8451,-5.7386,-5.7134,-5.7086,-3.6705,0.0,0.0,0.0,0.0,-4.8003,-5.1589,-5.4499,-5.6934,-5.8727,-6.2516,-6.5222,-6.5595,-6.6339,-6.6812,-6.6812,-6.6812,0.0,0.0,0.0,0.0,-6.5493,-6.5493,-6.5425,-6.5324,-6.1028,-5.6021,0.0,0.0,0.0,0.0,0.0,0.0,0.0,0.0,0.0,-4.9086,-5.4499,0.0,-6.2584,-6.326,-6.3869,-6.4478,-6.5222,-6.5493,-6.5595,-6.6203,-6.5561,-6.441,-6.441,-6.3937,-6.3328,-6.3328,-6.2888,-6.2381,-6.2381,-6.2381,-6.2381,-6.2381,-6.2381,-6.2381,-6.2381,-6.2381,-6.2212,-6.1569,-6.14,-6.14,-6.14,-6.0892,-5.9708,-5.7306,0.0,0.0,0.0,0.0,0.0,0.0,0.0,0.0,0.0,0.0,0.0,0.0,0.0,0.0,0.0,0.0,0.0,0.0,0.0,0.0,0.0,-6.1039,0.0,0.0,0.0,-6.0289,-6.0289,-5.9081,-5.8496,-5.8496,-5.8902,-5.9434,-6.0,-6.0417,-6.1036,-6.1797,-6.1991,-6.0787,-5.8722,-5.7714,-5.7292,-5.7292,-5.7086,-5.7621,-5.8314,0.0,0.0,0.0,0.0,0.0,0.0,0.0,-6.0419,-6.2347,-6.0351,-6.1975,-6.3328,-6.3328,-6.5425,-6.6812,-6.6812,-6.6812,-6.6812,-6.6812,-6.6812,-6.6812,-6.6812,-6.6474,0.0,-6.5696,-6.3565,-5.8795,-5.1217,0.0,0.0,0.0,0.0,0.0,0.0,0.0,-4.2523,0.0,0.0,0.0,-6.14,-6.37,-6.485,-6.5256,-6.6,-6.6271,-6.6305,-6.6677,-6.6339,-6.5696,-6.529,-6.4444,-6.3531,-6.3531,-6.299,-6.2381,-6.2381,-6.2381,-6.2381,-6.2381,-6.2381,-6.2381,-6.2381,-6.2381,-6.2381,-6.2381,-6.2381,-6.2381,-6.2381,-6.2381,-6.1028,-5.6528,-5.1758,0.0,0.0,0.0,0.0,0.0,0.0,0.0,0.0,0.0,0.0,0.0,0.0,0.0,0.0,0.0,0.0,0.0,0.0,0.0,0.0,0.0,0.0,0.0,0.0,0.0,-5.9653,-5.9697,-5.939,-5.8857,-6.0118,-6.0628,-6.0586,-6.0586,-6.0912,-6.1358,-6.0128,-5.8915,-5.7807,-5.7198,-5.6991,-5.7086,-5.7714,-5.79,-5.7761,0.0,-4.3707,0.0,0.0,-5.3281,0.0,-5.9742,-6.3903,-6.5527,-6.2009,-6.1535,-6.1535,-6.1535,-6.4681,-6.6812,-6.6812,-6.6812,-6.6812,-6.6812,-6.6812,-6.6812,-6.6812,-6.6812,-6.6542,-6.5933,-6.5933,-6.1839,0.0,0.0,0.0,0.0,0.0,0.0,0.0,0.0,0.0,0.0,0.0,-5.9032,-6.0723,-6.4275,-6.5764,-6.6,-6.6576,-6.6812,-6.6812,-6.6812,-6.6812,-6.6711,-6.6136,-6.5053,-6.3937,-6.3802,-6.3226,-6.2584,-6.2448,-6.2381,-6.2381,-6.2381,-6.2381,-6.2381,-6.2381,-6.2381,-6.2381,-6.2381,-6.2381,-6.2381,-6.2381,-6.2381,-6.1028,-5.6528,-5.3585,0.0,0.0,0.0,0.0,0.0,0.0,0.0,0.0,0.0,0.0,0.0,0.0,0.0,0.0,0.0,0.0,0.0,0.0,0.0,0.0,0.0,-5.9562,-5.9562,0.0,-5.9566,-5.9566,-6.0289,-6.0118,-5.9258,-6.1119,-6.1358,-6.0247,-6.0501,-6.0459,-6.0043,-5.79,-5.715,-5.7339,-5.68,-5.6943,-5.748,-5.8451,-5.8223,-5.7434,0.0,0.0,0.0,0.0,0.0,0.0,-6.0047,-6.3903,-6.6677,-6.6237,-6.617,-6.617,-6.617,-6.6576,-6.6812,-6.6812,-6.6812,-6.6812,-6.6812,-6.6812,-6.6812,-6.6812,-6.6812,-6.6779,-6.6711,-6.6711,-6.3632,0.0,0.0,0.0,0.0,0.0,0.0,0.0,0.0,0.0,0.0,-5.8321,-6.1298,-6.5087,-6.5527,-6.6102,-6.6711,-6.6779,-6.6812,-6.6812,-6.6812,-6.6812,-6.6812,-6.6745,-6.617,-6.5358,-6.4715,-6.4005,-6.3294,-6.2584,-6.2381,-6.2381,-6.2381,-6.2381,-6.2381,-6.2381,-6.2381,-6.2381,-6.2381,-6.2381,-6.2381,-6.2381,-6.2381,-6.1028,-5.6528,-5.8693,-5.9776,0.0,0.0,0.0,0.0,0.0,0.0,0.0,0.0,0.0,0.0,0.0,0.0,0.0,0.0,0.0,0.0,0.0,0.0,-5.5478,0.0,-5.6147,-5.6147,-6.0088,-6.207,-6.207,-6.1078,-6.0544,-6.0417,-6.0703,-6.0118,-5.9036,-6.0118,-5.9989,-5.8857,-5.7527,-5.7621,-5.8405,-5.6232,-5.6686,-5.8632,-5.8767,-5.8722,-5.8812,0.0,0.0,0.0,0.0,0.0,0.0,0.0,-6.5662,-6.6812,-6.6812,-6.6812,-6.6812,-6.6812,-6.6812,-6.6812,-6.6812,-6.6812,-6.6812,-6.6812,-6.6812,-6.6812,-6.6812,-6.6812,-6.6812,-6.6812,-6.6812,-6.4309,0.0,0.0,0.0,0.0,0.0,0.0,0.0,0.0,-5.5074,-5.8761,-6.1738,-6.4038,-6.573,-6.617,-6.6542,-6.6812,-6.6812,-6.6812,-6.6812,-6.6812,-6.6812,-6.6812,-6.6812,-6.6305,-6.5561,-6.4816,-6.4106,-6.3362,-6.2618,-6.2381,-6.2381,-6.2381,-6.2381,-6.2381,-6.2381,-6.2381,-6.2381,-6.2381,-6.2381,-6.2381,-6.2381,-6.2381,-6.1839,-6.0047,-5.8998,-5.8693,0.0,0.0,0.0,0.0,0.0,0.0,0.0,0.0,0.0,0.0,0.0,0.0,0.0,0.0,0.0,0.0,0.0,0.0,-5.4329,0.0,-5.8992,-5.9708,-6.0772,-6.1317,-6.1317,-6.1561,-6.1317,-6.0586,-6.0586,-5.9566,-5.7761,-5.8237,-5.8177,-5.7668,-5.7198,-5.7714,-5.8767,-5.8542,-5.8587,-5.8992,-6.0417,-6.0043,-5.8992,-5.7137,0.0,-5.7915,0.0,-6.2448,-6.3159,-6.6339,-6.6812,-6.6812,-6.6812,-6.6812,-6.6812,-6.6812,-6.6812,-6.6812,-6.6812,-6.6812,-6.6812,-6.6812,-6.6812,-6.6812,-6.6812,-6.6812,0.0,-6.6812,-6.6812,-6.5256,-6.2076,-5.6528,0.0,0.0,0.0,0.0,0.0,-5.7036,-5.9573,-6.1501,-6.4681,-6.6,-6.6068,-6.6609,-6.6812,-6.6812,-6.6812,-6.6812,-6.6812,-6.6812,-6.6812,-6.6812,-6.6812,-6.644,-6.5865,-6.4884,-6.4241,-6.3632,-6.2685,-6.2381,-6.2381,-6.2381,-6.2381,-6.2381,-6.2381,-6.2381,-6.2381,-6.2381,-6.2381,-6.2381,-6.2381,-6.2381,-6.2381,-6.2381,-5.981,-5.8727,-6.1873,0.0,0.0,0.0,0.0,0.0,0.0,0.0,-5.5175,-5.4634,0.0,0.0,0.0,0.0,0.0,0.0,0.0,0.0,0.0,0.0,0.0,0.0,-6.0886,-6.1119,-6.1152,-6.1635,-6.1399,-6.0586,-5.987,-5.878,-5.7527,-5.715,-5.7198,-5.7527,-5.7527,-5.8268,-5.9346,-5.9478,-5.9478,-5.9478,-6.0828,-6.0247,-5.9036,-6.052,-6.1231,-6.2381,-6.6102,-6.6745,-6.6745,-6.6812,-6.6812,-6.6812,-6.6812,-6.6812,-6.6812,-6.6812,-6.6812,-6.6812,-6.6812,-6.6812,-6.6812,-6.6812,-6.6812,-6.6812,0.0,0.0,-6.6812,-6.6812,-6.6812,-6.6779,-6.6745,0.0,0.0,-5.7611,0.0,-5.389,-5.8964,-5.9708,-6.255,-6.6711,-6.6779,-6.6812,-6.6812,-6.6812,-6.6812,-6.6812,-6.6812,-6.6812,-6.6812,-6.6812,-6.6812,-6.6812,-6.6812,-6.6812,-6.6542,-6.5053,-6.458,-6.4309,-6.2821,-6.2381,-6.2381,-6.2381,-6.2381,-6.2381,-6.2381,-6.2381,-6.2381,-6.2381,-6.2381,-6.2381,-6.2381,-6.2381,-6.2381,-6.2381,-6.2347,-6.2313,-6.2381,0.0,0.0,0.0,0.0,0.0,0.0,-5.4634,-5.46,-5.46,0.0,0.0,0.0,0.0,0.0,0.0,0.0,0.0,-5.5683,-5.5715,0.0,-5.5749,-6.0182,-6.2381,-6.2341,-6.116,-6.0586,-6.0501,-5.8099,-5.7668,-5.8722,-5.7527,-5.7668,-5.8767,-5.8767,-5.9478,-6.0332,-5.7993,-5.8464,-6.0417,-5.9258,-5.8812,-5.9125,-6.4816,-6.5053,-6.5425,-6.6609,-6.6812,-6.6812,-6.6812,-6.6812,-6.6812,-6.6812,-6.6812,-6.6812,-6.6812,-6.6812,-6.6812,0.0,-6.6812,-6.6812,0.0,-6.6812,-6.6812,-6.6812,-6.6812,-6.6812,-6.6812,-6.6812,-6.6812,-6.6812,0.0,0.0,0.0,-5.7949,-5.981,-6.4343,-6.458,-6.5459,-6.6812,-6.6812,-6.6812,-6.6812,-6.6812,-6.6812,-6.6812,-6.6812,-6.6812,-6.6812,-6.6812,-6.6812,-6.6812,-6.6812,-6.6812,-6.6542,-6.5087,-6.4613,-6.4309,-6.2821,-6.2381,-6.2381,-6.2381,-6.2381,-6.2381,-6.2381,-6.2381,-6.2381,-6.2381,-6.2381,-6.2381,-6.2381,-6.2381,-6.2381,-6.2381,-6.2381,-6.2381,-6.2381,-6.2381,0.0,0.0,0.0,0.0,0.0,-5.9911,-5.9911,0.0,-5.9911,0.0,0.0,0.0,0.0,0.0,0.0,0.0,0.0,-5.8152,0.0,-6.0283,-6.167,-6.2381,-6.2381,-6.1193,-6.0161,-5.9346,-5.8587,-5.8451,-5.8722,-5.7527,-5.7668,-5.8812,-5.8812,-5.9036,-5.9478,-6.0374,-6.0161,-5.9522,-6.0787,-6.0745,-6.0247,-6.6812,-6.6812,-6.6812,-6.6812,-6.6812,-6.6812,-6.6812,-6.6812,-6.6812,-6.6812,-6.6812,-6.6812,-6.6812,-6.6812,0.0,-6.6812,-6.6812,-6.6812,-6.6812,-6.6812,-6.6812,-6.6812,-6.6812,-6.6812,-6.6812,-6.6812,0.0,-6.6812,-6.4005,-6.2618,-6.2618,-6.2618,-6.4106,-6.6812,-6.6812,-6.6812,-6.6812,-6.6812,-6.6812,-6.6812,-6.6812,-6.6812,-6.6812,-6.6812,-6.6812,-6.6812,-6.6812,-6.6812,-6.6812,-6.6812,-6.6812,-6.6542,-6.5087,-6.4613,-6.4309,-6.2821,-6.2381,-6.2381,-6.2381,-6.2381,-6.2381,-6.2381,-6.2381,-6.2381,-6.2381,-6.2381,-6.2381,-6.2381,-6.2381,-6.2381,-6.2381,-6.2381,-6.2381,-6.2381,-6.2381,-6.2381,-6.2381,0.0,0.0,0.0,0.0,0.0,0.0,-5.9471,-5.8727,0.0,0.0,0.0,0.0,0.0,0.0,-5.69,-6.0452,0.0,-6.2381,-6.2381,-6.2381,-6.2381,-6.1193,-5.9957,-5.8767,-5.8314,-5.8632,-5.939,-5.7714,-5.8223,-6.0118,-5.9653,-5.974,-6.0247,-6.1317,-6.1078,-6.0289,-6.1358,-6.1521,-6.1399,-6.6812,-6.6812,-6.6812,0.0,-6.6812,0.0,-6.6812,-6.6812,-6.6812,-6.6812,-6.6812,-6.6812,-6.6812,-6.6812,-6.6812,-6.6812,0.0,0.0,0.0,-6.6812,-6.6812,-6.6812,-6.6812,-6.6812,-6.6812,-6.6812,-6.6812,-6.6812,-6.6812,-6.6812,-6.6812,-6.6812,-6.6812,-6.6812,-6.6812,-6.6812,-6.6812,-6.6812,-6.6812,-6.6812,-6.6812,-6.6812,-6.6812,-6.6812,-6.6812,-6.6812,-6.6812,-6.6812,-6.6812,-6.6812,-6.6812,-6.6576,-6.5121,-6.4647,-6.4309,-6.2821,-6.2381,-6.2381,-6.2381,-6.2381,-6.2381,-6.2381,-6.2381,-6.2381,-6.2381,-6.2381,-6.2381,-6.2381,-6.2381,-6.2381,-6.2381,-6.2381,-6.2381,-6.2381,-6.2381,-6.2381,-6.2381,0.0,0.0,0.0,0.0,0.0,0.0,-5.5141,-5.6968,0.0,0.0,0.0,0.0,0.0,-5.778,-6.2245,-6.2381,-6.2381,-6.2381,-6.2381,-6.2341,-6.2263,-6.1119,-6.0,-5.8902,-5.7761,-5.851,-6.0586,-5.8237,-5.9137,-6.2223,-6.1036,-6.1235,-6.207,-6.1078,-6.1358,-6.215,-6.1078,-6.1439,-6.2381,0.0,0.0,-6.6812,-6.6812,-6.6812,-6.6812,-6.6812,-6.6812,-6.6812,-6.6812,-6.6812,-6.6812,-6.6812,-6.6812,-6.6812,-6.6812,-6.6812,-6.6812,-6.6812,-6.6812,-6.6812,-6.6812,-6.6812,-6.6812,-6.6812,-6.6812,-6.6812,-6.6812,-6.6812,-6.6812,-6.6812,-6.6812,-6.6812,-6.6812,-6.6812,-6.6812,-6.6812,-6.6812,-6.6812,-6.6812,-6.6812,-6.6812,-6.6812,-6.6812,-6.6812,-6.6812,-6.6812,-6.6812,-6.6812,-6.6812,-6.6812,-6.6643,-6.573,-6.5053,-6.4309,-6.2821,-6.2381,-6.2381,-6.2381,-6.2381,-6.2381,-6.2381,-6.2381,-6.2381,-6.2381,-6.2381,-6.2381,-6.2381,-6.2381,-6.2381,-6.2381,-6.2381,-6.2381,-6.2381,-6.2381,-6.2381,-6.2381,-6.2381,0.0,0.0,-6.0554,-6.0554,-6.0554,-6.0554,-5.9167,0.0,0.0,0.0,0.0,-5.5683,-5.778,-6.2245,-6.2381,-6.2381,-6.2381,-6.2381,-6.1951,-6.1036,-6.0745,-6.0459,-6.0161,-5.987,-6.0544,-6.1877,-6.0417,-6.0214,-6.0995,-6.0745,-6.0247,-5.9784,-6.1358,-6.1595,-6.1078,-6.1756,-6.215,-6.2381,-6.6812,-6.6812,-6.6812,-6.6812,-6.6812,-6.6812,-6.6812,-6.6812,-6.6812,-6.6812,-6.6812,-6.6812,-6.6812,-6.6812,-6.6812,-6.6812,-6.6812,-6.6812,-6.6812,-6.6812,-6.6812,-6.6812,-6.6812,-6.6812,-6.6812,-6.6812,-6.6812,-6.6812,-6.6812,-6.6812,-6.6812,-6.6812,-6.6812,-6.6812,-6.6812,-6.6812,-6.6812,-6.6812,-6.6812,-6.6812,-6.6812,-6.6812,-6.6812,-6.6812,-6.6812,-6.6812,-6.6812,-6.6812,-6.6812,-6.6812,-6.6812,-6.6677,-6.5933,-6.5189,-6.4377,-6.3226,-6.2651,-6.2381,-6.2381,-6.2381,-6.2381,-6.2381,-6.2381,-6.2381,-6.2381,-6.2381,-6.2381,-6.2381,-6.2381,-6.2381,-6.2381,-6.2381,-6.2381,-6.2381,-6.096,-6.0419,-6.2144,-6.0926,0.0,-6.2178,-6.2381,-6.2381,-6.2381,-6.2381,-6.1061,-5.7814,-5.8321,0.0,-5.7611,-5.866,-6.025,-6.2313,-6.2381,-6.2381,-6.2381,-6.2381,-6.1924,-6.1037,-6.165,-6.1816,-6.1531,-6.1574,-6.2241,-6.3316,-6.1574,-6.1445,-6.2399,-6.1863,-6.1531,-6.1574,-6.2885,-6.3,-6.2482,-6.3161,-6.3396,-6.3396,-6.6812,-6.6812,-6.6812,-6.6812,-6.6812,-6.6812,-6.6812,-6.6812,-6.6812,-6.6812,-6.6812,-6.6812,-6.6812,-6.6812,-6.6812,-6.6812,-6.6812,-6.6812,-6.6812,-6.6812,-6.6812,-6.6812,-6.6812,-6.6812,-6.6812,-6.6812,-6.6812,-6.6812,-6.6812,-6.6812,-6.6812,-6.6812,-6.6812,-6.6812,-6.6812,-6.6812,-6.6812,-6.6812,-6.6812,-6.6812,-6.6812,-6.6812,-6.6812,-6.6812,-6.6812,-6.6812,-6.6812,-6.6812,-6.6812,-6.6812,-6.6812,-6.6711,-6.6068,-6.529,-6.4478,-6.3869,-6.3057,-6.2381,-6.2381,-6.2381,-6.2381,-6.2381,-6.2381,-6.2381,-6.2381,-6.2381,-6.2381,-6.2381,-6.2381,-6.2381,-6.2381,-6.2381,-6.2212,-6.1637,-5.937,-5.8558,-6.1197,0.0,-5.8829,-6.2009,-6.2381,-6.2381,-6.2381,-6.2482,-6.255,-6.255,-6.2651,-6.2719,-6.2719,-6.3328,-6.3396,-6.2753,-6.2719,-6.2719,-6.2719,-6.2719,-6.2508,-6.2052,-6.3146,-6.3407,-6.301,-6.302,-6.3642,-6.4498,-6.2431,-6.2727,-6.4498,-6.3311,-6.3482,-6.4613,-6.4375,-6.4416,-6.4613,-6.4613,-6.4613,-6.4613,-6.6812,-6.6812,-6.6812,-6.6812,-6.6812,-6.6812,-6.6812,-6.6812,-6.6812,-6.6812,-6.6812,-6.6812,-6.6812,-6.6812,-6.6812,-6.6812,-6.6812,-6.6812,-6.6812,-6.6812,-6.6812,-6.6812,-6.6812,-6.6812,-6.6812,-6.6812,-6.6812,-6.6812,-6.6812,-6.6812,-6.6812,-6.6812,-6.6812,-6.6812,-6.6812,-6.6812,-6.6812,-6.6812,-6.6812,-6.6812,-6.6812,-6.6812,-6.6812,-6.6812,-6.6812,-6.6812,-6.6812,-6.6812,-6.6812,-6.6812,-6.6812,-6.6779,-6.6677,-6.5696,-6.458,-6.4478,-6.3463,-6.2381,-6.2381,-6.2381,-6.2381,-6.2381,-6.2381,-6.2381,-6.2381,-6.2381,-6.2381,-6.2381,-6.2381,-6.2381,-6.2381,-6.2381,-6.1366,-5.8186,-5.9844,-6.0622,-5.8017,0.0,-6.1738,-6.2313,-6.2381,-6.2381,-6.2381,-6.2956,-6.3328,-6.3328,-6.3903,-6.4275,-6.4275,-6.4377,-6.4377,-6.4275,-6.4275,-6.4275,-6.4275,-6.4275,-6.4228,-6.4166,-6.4329,-6.4397,-6.4334,-6.4334,-6.4416,-6.4613,-6.4218,-6.4259,-6.4498,-6.3226,-6.3439,-6.4498,-6.343,-6.3642,-6.4613,-6.4613,-6.4613,-6.4613,-6.6812,-6.6812,-6.6812,-6.6812,-6.6812,-6.6812,-6.6812,-6.6812,-6.6812,-6.6812,-6.6812,-6.6812,-6.6812,-6.6812,-6.6812,-6.6812,-6.6812,-6.6812,-6.6812,-6.6812,-6.6812,-6.6812,-6.6812,-6.6812,-6.6812,-6.6812,-6.6812,-6.6812,-6.6812,-6.6812,-6.6812,-6.6812,-6.6812,-6.6812,-6.6812,-6.6812,-6.6812,-6.6812,-6.6812,-6.6812,-6.6812,-6.6812,-6.6812,-6.6812,-6.6812,-6.6812,-6.6812,-6.6812,-6.6812,-6.6812,-6.6812,-6.6812,-6.6812,-6.6068,-6.5189,-6.5189,-6.3869,-6.2381,-6.2381,-6.2381,-6.2381,-6.2381,-6.2381,-6.2381,-6.2381,-6.2381,-6.2381,-6.2381,-6.2381,-6.2381,-6.2381,-6.2381,-6.1806,-6.008,-5.9573,0.0,0.0,-5.9573,-6.0283,-6.2719,-6.299,-6.3159,-6.3531,-6.3903,-6.4106,-6.4106,-6.441,-6.4613,-6.4613,-6.4986,-6.5189,-6.5189,-6.4816,-6.4613,-6.4613,-6.4613,-6.442,-6.4167,-6.4866,-6.5026,-6.4777,-6.5472,-6.5797,-6.5797,-6.5797,-6.5797,-6.5756,-6.5143,-6.5227,-6.5756,-6.5143,-6.527,-6.5797,-6.5797,-6.5797,-6.5797,-6.6812,-6.6812,-6.6812,-6.6812,-6.6812,-6.6812,-6.6812,-6.6812,-6.6812,-6.6812,-6.6812,-6.6812,-6.6812,-6.6812,-6.6812,-6.6812,-6.6812,-6.6812,-6.6812,-6.6812,-6.6812,-6.6812,-6.6812,-6.6812,-6.6812,-6.6812,-6.6812,-6.6812,-6.6812,-6.6812,-6.6812,-6.6812,-6.6812,-6.6812,-6.6812,-6.6812,-6.6812,-6.6812,-6.6812,-6.6812,-6.6812,-6.6812,-6.6812,-6.6812,-6.6812,-6.6812,-6.6812,-6.6812,-6.6812,-6.6812,-6.6812,-6.6812,-6.6812,-6.6305,-6.5696,-6.5696,-6.4377,-6.2821,-6.2482,-6.2381,-6.2381,-6.2381,-6.2381,-6.2381,-6.2381,-6.2381,-6.2381,-6.2381,-6.2381,-6.2381,-6.2381,-6.2381,-6.211,-6.1231,0.0,0.0,0.0,-5.9776,-5.9911,-6.3362,-6.3768,-6.4005,-6.4546,-6.4749,-6.485,-6.485,-6.5019,-6.5121,-6.5121,-6.5628,-6.5967,-6.5967,-6.5392,-6.5121,-6.5121,-6.5121,-6.49,-6.4509,-6.548,-6.574,-6.5349,-6.632,-6.6812,-6.6812,-6.6812,-6.6812,-6.677,-6.6482,-6.6525,-6.677,-6.6482,-6.6525,-6.6812,-6.6812,-6.6812,-6.677,-6.6812,-6.6812,-6.6812,-6.6812,-6.6812,-6.6812,-6.6812,-6.6812,-6.6812,-6.6812,-6.6812,-6.6812,-6.6812,-6.6812,-6.6812,-6.6812,-6.6812,-6.6812,-6.6812,-6.6812,-6.6812,-6.6812,-6.6812,-6.6812,-6.6812,-6.6812,-6.6812,-6.6812,-6.6812,-6.6812,-6.6812,-6.6812,-6.6812,-6.6812,-6.6812,-6.6812,-6.6812,-6.6812,-6.6812,-6.6812,-6.6812,-6.6812,-6.6812,-6.6812,-6.6812,-6.6812,-6.6812,-6.6812,-6.6812,-6.6812,-6.6812,-6.6812,-6.6812,-6.6305,-6.5696,-6.5696,-6.5087,-6.414,-6.2753,-6.2381,-6.2381,-6.2381,-6.2381,-6.2381,-6.2381,-6.2381,-6.2381,-6.2381,-6.2381,-6.2381,-6.2381,-6.2381,-6.1264,-5.778,0.0,0.0,-5.866,-6.1569,-6.414,-6.4478,-6.4512,-6.4546,-6.458,-6.5222,-6.5595,-6.5595,-6.6271,-6.6643,-6.6643,-6.6711,-6.6745,-6.6745,-6.6677,-6.6643,-6.6643,-6.6643,-6.6635,-6.6584,-6.6669,-6.6703,-6.6652,-6.677,-6.6812,-6.6812,-6.6812,-6.6812,-6.6728,-6.5514,-6.5734,-6.6686,-6.5514,-6.5734,-6.6812,-6.6812,-6.6812,-6.661,-6.6812,-6.6812,-6.6812,-6.6812,-6.6812,-6.6812,-6.6812,-6.6812,-6.6812,-6.6812,-6.6812,-6.6812,-6.6812,-6.6812,-6.6812,-6.6812,-6.6812,-6.6812,-6.6812,-6.6812,-6.6812,-6.6812,-6.6812,-6.6812,-6.6812,-6.6812,-6.6812,-6.6812,-6.6812,-6.6812,-6.6812,-6.6812,-6.6812,-6.6812,-6.6812,-6.6812,-6.6812,-6.6812,-6.6812,-6.6812,-6.6812,-6.6812,-6.6812,-6.6812,-6.6812,-6.6812,-6.6812,-6.6812,-6.6812,-6.6812,-6.6812,-6.6812,-6.6812,-6.6609,-6.6305,-6.5831,-6.5493,-6.5053,-6.4038,-6.3429,-6.2956,-6.2516,-6.2381,-6.2381,-6.2381,-6.2381,-6.2381,-6.2381,-6.2753,-6.3091,-6.3091,-6.3463,-6.3294,-6.1873,0.0,-6.37,-6.2245,-6.3531,-6.4783,-6.5222,-6.5256,-6.5459,-6.5933,-6.6237,-6.6373,-6.6373,-6.6643,-6.6812,-6.6812,-6.6812,-6.6812,-6.6812,-6.6812,-6.6812,-6.6812,-6.6812,-6.6812,-6.6812,-6.6812,-6.6812,-6.6812,-6.6812,-6.6812,-6.6812,-6.6812,-6.6812,-6.677,-6.6278,-6.6363,-6.677,-6.6278,-6.6363,-6.6812,-6.6812,-6.6278,-6.5559,-6.6812,-6.6812,-6.6812,-6.6812,-6.6812,-6.6812,-6.6812,-6.6812,-6.6812,-6.6812,-6.6812,-6.6812,-6.6812,-6.6812,-6.6812,-6.6812,-6.6812,-6.6812,-6.6812,-6.6812,-6.6812,-6.6812,-6.6812,-6.6812,-6.6812,-6.6812,-6.6812,-6.6812,-6.6812,-6.6812,-6.6812,-6.6812,-6.6812,-6.6812,-6.6812,-6.6812,-6.6812,-6.6812,-6.6812,-6.6812,-6.6812,-6.6812,-6.6812,-6.6812,-6.6812,-6.6812,-6.6812,-6.6812,-6.6812,-6.6812,-6.6812,-6.6812,-6.6812,-6.6812,-6.6711,-6.6203,-6.6034,-6.5865,-6.5155,-6.458,-6.4005,-6.326,-6.3091,-6.3091,-6.3091,-6.3091,-6.3091,-6.3091,-6.3497,-6.3869,-6.3869,-6.4275,-6.4613,-6.4613,-6.4783,-6.4952,-6.4952,-6.5155,-6.5493,-6.6,-6.6034,-6.6237,-6.6779,-6.6812,-6.6812,-6.6812,-6.6812,-6.6812,-6.6812,-6.6812,-6.6812,-6.6812,-6.6812,-6.6812,-6.6812,-6.6812,-6.6812,-6.6812,-6.6812,-6.6812,-6.6812,-6.6812,-6.6812,-6.6812,-6.6812,-6.6812,-6.6812,-6.6812,-6.6812,-6.677,-6.6363,-6.644,-6.6728,-6.5898,-6.5337,-6.4778,-6.6812,-6.6812,-6.6812,-6.6812,-6.6812,-6.6812,-6.6812,-6.6812,-6.6812,-6.6812,-6.6812,-6.6812,-6.6812,-6.6812,-6.6812,-6.6812,-6.6812,-6.6812,-6.6812,-6.6812,-6.6812,-6.6812,-6.6812,-6.6812,-6.6812,-6.6812,-6.6812,-6.6812,-6.6812,-6.6812,-6.6812,-6.6812,-6.6812,-6.6812,-6.6812,-6.6812,-6.6812,-6.6812,-6.6812,-6.6812,-6.6812,-6.6812,-6.6812,-6.6812,-6.6812,-6.6812,-6.6812,-6.6812,-6.6812,-6.6812,-6.6812,-6.6812,-6.6812,-6.6812,-6.6812,-6.6812,-6.6812,-6.6643,-6.5899,-6.5696,-6.5527,-6.4783,-6.4613,-6.4613,-6.4613,-6.4613,-6.4613,-6.4613,-6.4613,-6.4613,-6.4613,-6.4613,-6.4613,-6.4613,-6.5222,-6.5696,-6.5696,-6.6339,-6.6812,-6.6812,-6.6812,-6.6812,-6.6812,-6.6812,-6.6812,-6.6812,-6.6812,-6.6812,-6.6812,-6.6812,-6.6812,-6.6812,-6.6812,-6.6812,-6.6812,-6.6812,-6.6812,-6.6812,-6.6812,-6.6812,-6.6812,-6.6812,-6.6812,-6.6812,-6.677,-6.677,-6.677,-6.677,-6.677,-6.661,-6.5349,-6.5646,-6.6482,-6.3952,-6.3779,-6.4473,-6.6812,-6.6812,-6.6812,-6.6812,-6.6812,-6.6812,-6.6812,-6.6812,-6.6812,-6.6812,-6.6812,-6.6812,-6.6812,-6.6812,-6.6812,-6.6812,-6.6812,-6.6812,-6.6812,-6.6812,-6.6812,-6.6812,-6.6812,-6.6812,-6.6812,-6.6812,-6.6812,-6.6812,-6.6812,-6.6812,-6.6812,-6.6812,-6.6812,-6.6812,-6.6812,-6.6812,-6.6812,-6.6812,-6.6812,-6.6812,-6.6812,-6.6812,-6.6812,-6.6812,-6.6812,-6.6812,-6.6812,-6.6812,-6.6812,-6.6812,-6.6812,-6.6812,-6.6812,-6.6812,-6.6812,-6.6812,-6.6812,-6.6779,-6.6542,-6.6474,-6.617,-6.4918,-6.4613,-6.4613,-6.4613,-6.4613,-6.4613,-6.4613,-6.5019,-6.5358,-6.5358,-6.5797,-6.6136,-6.6136,-6.6339,-6.6474,-6.6474,-6.6677,-6.6812,-6.6812,-6.6812,-6.6812,-6.6812,-6.6812,-6.6812,-6.6812,-6.6812,-6.6812,-6.6812,-6.6812,-6.6812,-6.6812,-6.6812,-6.6812,-6.6812,-6.6812,-6.6812,-6.6812,-6.6812,-6.6812,-6.6812,-6.6812,-6.6812,-6.677,-6.5855,-6.547,-6.5426,-6.4505,-6.4137,-6.4091,-6.3718,-6.3811,-6.4045,-6.3292,-6.2634,-6.2211,-6.6812,-6.6812,-6.6812,-6.6812,-6.6812,-6.6812,-6.6812,-6.6812,-6.6812,-6.6812,-6.6812,-6.6812,-6.6812,-6.6812,-6.6812,-6.6812,-6.6812,-6.6812,-6.6812,-6.6812,-6.6812,-6.6812,-6.6812,-6.6812,-6.6812,-6.6812,-6.6812,-6.6812,-6.6812,-6.6812,-6.6812,-6.6812,-6.6812,-6.6812,-6.6812,-6.6812,-6.6812,-6.6812,-6.6812,-6.6812,-6.6812,-6.6812,-6.6812,-6.6812,-6.6812,-6.6812,-6.6812,-6.6812,-6.6812,-6.6812,-6.6812,-6.6812,-6.6812,-6.6812,-6.6812,-6.6812,-6.6812,-6.6812,-6.6812,-6.6812,-6.6609,-6.5696,-6.5459,-6.5459,-6.5459,-6.5459,-6.5459,-6.5459,-6.5831,-6.6136,-6.6136,-6.6508,-6.6812,-6.6812,-6.6812,-6.6812,-6.6812,-6.6812,-6.6812,-6.6812,-6.6812,-6.6812,-6.6812,-6.6812,-6.6812,-6.6812,-6.6812,-6.6812,-6.6812,-6.6812,-6.6812,-6.6812,-6.6812,-6.6812,-6.6812,-6.6812,-6.6812,-6.6812,-6.6812,-6.6525,-6.6072,-6.6567,-6.6525,-6.5985,-6.5215,-6.4869,-6.4778,-6.3529,-6.3004,-6.2956,-6.239,-6.2536,-6.2956,-6.239,-6.2045,-6.1896,-6.6812,-6.6812,-6.6812,-6.6812,-6.6812,-6.6812,-6.6812,-6.6812,-6.6812,-6.6812,-6.6812,-6.6812,-6.6812,-6.6812,-6.6812,-6.6812,-6.6812,-6.6812,-6.6812,-6.6812,-6.6812,-6.6812,-6.6812,-6.6812,-6.6812,-6.6812,-6.6812,-6.6812,-6.6812,-6.6812,-6.6812,-6.6812,-6.6812,-6.6812,-6.6812,-6.6812,-6.6812,-6.6812,-6.6812,-6.6812,-6.6812,-6.6812,-6.6812,-6.6812,-6.6812,-6.6812,-6.6812,-6.6812,-6.6812,-6.6812,-6.6812,-6.6812,-6.6812,-6.6812,-6.6812,-6.6812,-6.6812,-6.6812,-6.6812,-6.6812,-6.6812,-6.6812,-6.6812,-6.6812,-6.6812,-6.6812,-6.6812,-6.6812,-6.6812,-6.6812,-6.6812,-6.6812,-6.6812,-6.6812,-6.6812,-6.6812,-6.6812,-6.6812,-6.6812,-6.6812,-6.6812,-6.6812,-6.6812,-6.6812,-6.6812,-6.6812,-6.6812,-6.6812,-6.6812,-6.6812,-6.6812,-6.6812,-6.6812,-6.6812,-6.6812,-6.6686,-6.661,-6.661,-6.661,-6.5942,-6.4778,-6.5942,-6.5855,-6.4733,-6.4597,-6.4551,-6.4427,-6.3164,-6.2665,-6.2519,-6.1325,-6.1546,-6.2519,-6.1395,-6.1746,-6.2828,-6.6812,-6.6812,-6.6812,-6.6812,-6.6812,-6.6812,-6.6812,-6.6812,-6.6812,-6.6812,-6.6812,-6.6812,-6.6812,-6.6812,-6.6812,-6.6812,-6.6812,-6.6812,-6.6812,-6.6812,-6.6812,-6.6812,-6.6812,-6.6812,-6.6812,-6.6812,-6.6812,-6.6812,-6.6812,-6.6812,-6.6812,-6.6812,-6.6812,-6.6812,-6.6812,-6.6812,-6.6812,-6.6812,-6.6812,-6.6812,-6.6812,-6.6812,-6.6812,-6.6812,-6.6812,-6.6812,-6.6812,-6.6812,-6.6812,-6.6812,-6.6812,-6.6812,-6.6812,-6.6812,-6.6812,-6.6812,-6.6812,-6.6812,-6.6812,-6.6812,-6.6812,-6.6812,-6.6812,-6.6812,-6.6812,-6.6812,-6.6812,-6.6812,-6.6812,-6.6812,-6.6812,-6.6812,-6.6812,-6.6812,-6.6812,-6.6812,-6.6812,-6.6812,-6.6812,-6.6812,-6.6812,-6.6812,-6.6812,-6.6812,-6.6812,-6.6812,-6.6812,-6.6812,-6.6812,-6.6812,-6.6812,-6.6812,-6.6812,-6.6812,-6.6812,-6.5811,-6.5304,-6.5304,-6.5304,-6.4642,-6.3402,-6.3718,-6.3671,-6.3355,-6.2309,-6.1865,-6.1715,-6.0463,-5.9948,-5.9948,-5.9629,-5.9683,-6.0023,-6.0712,-6.1193,-6.1746,-6.6812,-6.6812,-6.6812,-6.6812,-6.6812,-6.6812,-6.6812,-6.6812,-6.6812,-6.6812,-6.6812,-6.6812,-6.6812,-6.6812,-6.6812,-6.6812,-6.6812,-6.6812,-6.6812,-6.6812,-6.6812,-6.6812,-6.6812,-6.6812,-6.6812,-6.6812,-6.6812,-6.6812,-6.6812,-6.6812,-6.6812,-6.6812,-6.6812,-6.6812,-6.6812,-6.6812,-6.6812,-6.6812,-6.6812,-6.6812,-6.6812,-6.6812,-6.6812,-6.6812,-6.6812,-6.6812,-6.6812,-6.6812,-6.6812,-6.6812,-6.6812,-6.6812,-6.6812,-6.6812,-6.6812,-6.6812,-6.6812,-6.6812,-6.6812,-6.6812,-6.6812,-6.6812,-6.6812,-6.6812,-6.6812,-6.6812,-6.6812,-6.6812,-6.6812,-6.6812,-6.6812,-6.6812,-6.6812,-6.6812,-6.6812,-6.6812,-6.6812,-6.6812,-6.6812,-6.6812,-6.6812,-6.6812,-6.6812,-6.6812,-6.6812,-6.6812,-6.6812,-6.6812,-6.6812,-6.6812,-6.6525,-6.5898,-6.5898,-6.5603,-6.4992,-6.4322,-6.3685,-6.3036,-6.3685,-6.3307,-6.2045,-6.2682,-6.2634,-6.1995,-6.1294,-6.0989,-6.0938,-6.0276,-5.9992,-5.9992,-5.9992,-5.9992,-6.0097,-6.0764,-6.1765,-6.3132,-6.6812,-6.6812,-6.6812,-6.6812,-6.6812,-6.6812,-6.6812,-6.6812,-6.6812,-6.6812,-6.6812,-6.6812,-6.6812,-6.6812,-6.6812,-6.6812,-6.6812,-6.6812,-6.6812,-6.6812,-6.6812,-6.6812,-6.6812,-6.6812,-6.6812,-6.6812,-6.6812,-6.6812,-6.6812,-6.6812,-6.6812,-6.6812,-6.6812,-6.6812,-6.6812,-6.6812,-6.6812,-6.6812,-6.6812,-6.6812,-6.6812,-6.6812,-6.6812,-6.6812,-6.6812,-6.6812,-6.6812,-6.6812,-6.6812,-6.6812,-6.6812,-6.6812,-6.6812,-6.6812,-6.6812,-6.6812,-6.6812,-6.6812,-6.6812,-6.6812,-6.6812,-6.6812,-6.6812,-6.6812,-6.6812,-6.6812,-6.6812,-6.6812,-6.6812,-6.6812,-6.6812,-6.6812,-6.6812,-6.6812,-6.6812,-6.6812,-6.6812,-6.6812,-6.6812,-6.6812,-6.6812,-6.6812,-6.6812,-6.6812,-6.6812,-6.6812,-6.6812,-6.6812,-6.6812,-6.6812,-6.6235,-6.4914,-6.4869,-6.4322,-6.3004,-6.2779,-6.2094,-6.0989,-6.1896,-6.1778,-6.0712,-6.1828,-6.1846,-6.0989,-6.0989,-6.1142,-6.1344,-6.1344,-6.1344,-6.1294,-6.1091,-6.0989,-6.0989,-6.0989,-6.2504,-6.4733,-6.6812,-6.6812,-6.6812,-6.6812,-6.6812,-6.6812,-6.6812,-6.6812,-6.6812,-6.6812,-6.6812,-6.6812,-6.6812,-6.6812,-6.6812,-6.6812,-6.6812,-6.6812,-6.6812,-6.6812,-6.6812,-6.6812,-6.6812,-6.6812,-6.6812,-6.6812,-6.6812,-6.6812,-6.6812,-6.6812,-6.6812,-6.6812,-6.6812,-6.6812,-6.6812,-6.6812,-6.6812,-6.6812,-6.6812,-6.6812,-6.6812,-6.6812,-6.6812,-6.6812,-6.6812,-6.6812,-6.6812,-6.6812,-6.6812,-6.6812,-6.6812,-6.6812,-6.6812,-6.6812,-6.6812,-6.6812,-6.6812,-6.6812,-6.6812,-6.6812,-6.6812,-6.6812,-6.6812,-6.6812,-6.6812,-6.6812,-6.6812,-6.6812,-6.6812,-6.6812,-6.6812,-6.6812,-6.6812,-6.6812,-6.6812,-6.6812,-6.6812,-6.6812,-6.6812,-6.6812,-6.6812,-6.6812,-6.6812,-6.6812,-6.6812,-6.6812,-6.6812,-6.6812,-6.6812,-6.6812,-6.6235,-6.4914,-6.4869,-6.4322,-6.3004,-6.1846,-6.1193,-6.0989,-6.0075,-5.9553,-5.9339,-5.9553,-6.0097,-6.0989,-6.0989,-6.1646,-6.2731,-6.2731,-6.2731,-6.2585,-6.1445,-6.0989,-6.0989,-6.0989,-6.1946,-6.3292,-6.6812,-6.6812,-6.6812,-6.6812,-6.6812,-6.6812,-6.6812,-6.6812,-6.6812,-6.6812,-6.6812,-6.6812,-6.6812,-6.6812,-6.6812,-6.6812,-6.6812,-6.6812,-6.6812,-6.6812,-6.6812,-6.6812,-6.6812,-6.6812,-6.6812,-6.6812,-6.6812,-6.6812,-6.6812,-6.6812,-6.6812,-6.6812,-6.6812,-6.6812,-6.6812,-6.6812,-6.6812,-6.6812,-6.6812,-6.6812,-6.6812,-6.6812,-6.6812,-6.6812,-6.6812,-6.6812,-6.6812,-6.6812,-6.6812,-6.6812,-6.6812,-6.6812,-6.6812,-6.6812,-6.6812,-6.6812,-6.6812,-6.6812,-6.6812,-6.6812,-6.6812,-6.6812,-6.6812,-6.6812,-6.6812,-6.6812,-6.6812,-6.6812,-6.6812,-6.6812,-6.6812,-6.6812,-6.6812,-6.6812,-6.6812,-6.6812,-6.6812,-6.6812,-6.6812,-6.6812,-6.6812,-6.6812,-6.6812,-6.6812,-6.6812,-6.6812,-6.6812,-6.6812,-6.6812,-6.6812,-6.6235,-6.4914,-6.4869,-6.3919,-6.1896,-6.1294,-6.0609,-5.9917,-5.9392,-5.9469,-6.015,-6.015,-6.0484,-6.0989,-6.0989,-6.0918,-6.0846,-6.1628,-6.1896,-6.1846,-6.1243,-6.0588,-5.9992,-6.0712,-6.1395,-6.1995]},{"header":{"parameterUnit":"m.s-1","parameterCategory":1,"la1":30.6,"la2":28.766,"lo1":-90.7593,"lo2":-88.6598,"dy":0.0162,"dx":0.0183,"nx":116,"ny":114,"refTime":"2024-03-11T18:00:00:Z","depth":0,"parameterNumber":3,"parameterNumberName":"V-component_of_WINDS"},"data":[0.0,0.0,0.0,0.0,0.0,0.0,0.0,0.0,0.0,0.0,0.0,0.0,0.0,0.0,0.0,0.0,0.0,0.0,0.0,0.0,0.0,0.0,0.0,0.0,0.0,0.0,0.0,0.0,0.0,0.0,0.0,0.0,0.0,0.0,0.0,0.0,0.0,0.0,0.0,0.0,0.0,0.0,0.0,0.0,0.0,0.0,0.0,0.0,0.0,0.0,0.0,0.0,0.0,0.0,0.0,0.0,0.0,0.0,0.0,0.0,0.0,0.0,0.0,0.0,0.0,0.0,0.0,0.0,0.0,0.0,0.0,0.0,0.0,0.0,0.0,0.0,0.0,0.0,0.0,0.0,0.0,0.0,0.0,0.0,0.0,0.0,0.0,0.0,0.0,0.0,0.0,0.0,0.0,0.0,0.0,0.0,0.0,0.0,0.0,0.0,0.0,0.0,0.0,0.0,0.0,0.0,0.0,0.0,0.0,0.0,0.0,0.0,0.0,0.0,0.0,0.0,0.0,0.0,0.0,0.0,0.0,0.0,0.0,0.0,0.0,0.0,0.0,0.0,0.0,0.0,0.0,0.0,0.0,0.0,0.0,0.0,0.0,0.0,0.0,0.0,0.0,0.0,0.0,0.0,0.0,0.0,0.0,0.0,0.0,0.0,0.0,0.0,0.0,0.0,0.0,0.0,0.0,0.0,0.0,0.0,0.0,0.0,0.0,0.0,0.0,0.0,0.0,0.0,0.0,0.0,0.0,0.0,0.0,0.0,0.0,0.0,0.0,0.0,0.0,0.0,0.0,0.0,0.0,0.0,0.0,0.0,0.0,0.0,0.0,0.0,0.0,0.0,0.0,0.0,0.0,0.0,0.0,0.0,0.0,0.0,0.0,0.0,0.0,0.0,0.0,0.0,0.0,0.0,0.0,0.0,0.0,0.0,0.0,0.0,0.0,0.0,0.0,0.0,0.0,0.0,0.0,0.0,0.0,0.0,0.0,0.0,0.0,0.0,0.0,0.0,0.0,0.0,0.0,0.0,0.0,0.0,0.0,0.0,0.0,0.0,0.0,0.0,0.0,0.0,0.0,0.0,0.0,0.0,0.0,0.0,0.0,0.0,0.0,0.0,0.0,0.0,0.0,0.0,0.0,0.0,0.0,0.0,0.0,0.0,0.0,0.0,0.0,0.0,0.0,0.0,0.0,0.0,0.0,0.0,0.0,0.0,0.0,0.0,0.0,0.0,0.0,0.0,0.0,0.0,0.0,0.0,0.0,0.0,0.0,0.0,0.0,0.0,0.0,0.0,0.0,0.0,0.0,0.0,0.0,0.0,0.0,0.0,0.0,0.0,0.0,0.0,0.0,0.0,0.0,0.0,0.0,0.0,0.0,0.0,0.0,0.0,0.0,0.0,0.0,0.0,0.0,0.0,0.0,0.0,0.0,0.0,0.0,0.0,0.0,0.0,0.0,0.0,0.0,0.0,0.0,0.0,0.0,0.0,0.0,0.0,0.0,0.0,0.0,0.0,0.0,0.0,0.0,0.0,0.0,0.0,0.0,0.0,0.0,0.0,0.0,0.0,0.0,0.0,0.0,0.0,0.0,0.0,0.0,0.0,0.0,0.0,0.0,0.0,0.0,0.0,0.0,0.0,0.0,0.0,0.0,0.0,0.0,0.0,0.0,0.0,0.0,0.0,0.0,0.0,0.0,0.0,0.0,0.0,0.0,0.0,0.0,0.0,0.0,0.0,0.0,0.0,0.0,0.0,0.0,0.0,0.0,0.0,0.0,0.0,0.0,0.0,0.0,0.0,0.0,0.0,0.0,0.0,0.0,0.0,0.0,0.0,0.0,0.0,0.0,0.0,0.0,0.0,0.0,0.0,0.0,0.0,0.0,0.0,0.0,0.0,0.0,0.0,0.0,0.0,0.0,0.0,0.0,0.0,0.0,0.0,0.0,0.0,0.0,0.0,0.0,0.0,0.0,0.0,0.0,0.0,0.0,0.0,0.0,0.0,0.0,0.0,0.0,0.0,0.0,0.0,0.0,0.0,0.0,0.0,0.0,0.0,0.0,0.0,0.0,0.0,0.0,0.0,0.0,0.0,0.0,0.0,0.0,0.0,0.0,0.0,0.0,0.0,0.0,0.0,0.0,0.0,0.0,0.0,0.0,0.0,0.0,0.0,0.0,0.0,0.0,0.0,0.0,0.0,0.0,0.0,0.0,0.0,0.0,0.0,0.0,0.0,0.0,0.0,0.0,0.0,0.0,0.0,0.0,0.0,0.0,0.0,0.0,0.0,0.0,0.0,0.0,0.0,0.0,0.0,0.0,0.0,0.0,0.0,0.0,0.0,0.0,0.0,0.0,0.0,0.0,0.0,0.0,0.0,0.0,0.0,0.0,0.0,0.0,0.0,0.0,0.0,0.0,0.0,0.0,0.0,0.0,0.0,0.0,0.0,0.0,0.0,0.0,0.0,0.0,0.0,0.0,0.0,0.0,0.0,0.0,0.0,0.0,0.0,0.0,0.0,0.0,0.0,0.0,0.0,0.0,0.0,0.0,0.0,0.0,0.0,0.0,0.0,0.0,0.0,0.0,0.0,0.0,0.0,0.0,0.0,0.0,0.0,0.0,0.0,0.0,0.0,0.0,0.0,0.0,0.0,0.0,0.0,0.0,0.0,0.0,0.0,0.0,0.0,0.0,0.0,0.0,0.0,0.0,0.0,0.0,0.0,0.0,0.0,0.0,0.0,0.0,0.0,0.0,0.0,0.0,0.0,0.0,0.0,0.0,0.0,0.0,0.0,0.0,0.0,0.0,0.0,0.0,0.0,0.0,0.0,0.0,0.0,0.0,0.0,0.0,0.0,0.0,0.0,0.0,0.0,0.0,0.0,0.0,0.0,0.0,0.0,0.0,0.0,0.0,0.0,0.0,0.0,0.0,0.0,0.0,0.0,0.0,0.0,0.0,0.0,0.0,0.0,0.0,0.0,0.0,0.0,0.0,0.0,0.0,0.0,0.0,0.0,0.0,0.0,0.0,0.0,0.0,0.0,0.0,0.0,0.0,0.0,0.0,0.0,0.0,0.0,0.0,0.0,0.0,0.0,0.0,0.0,0.0,0.0,0.0,0.0,0.0,0.0,0.0,0.0,0.0,0.0,0.0,0.0,0.0,0.0,0.0,0.0,0.0,0.0,0.0,0.0,0.0,0.0,0.0,0.0,0.0,0.0,0.0,0.0,0.0,0.0,0.0,0.0,0.0,0.0,0.0,0.0,0.0,0.0,0.0,0.0,0.0,0.0,0.0,0.0,0.0,0.0,0.0,0.0,0.0,0.0,0.0,0.0,0.0,0.0,0.0,0.0,0.0,0.0,0.0,0.0,0.0,0.0,0.0,0.0,0.0,0.0,0.0,0.0,0.0,0.0,0.0,0.0,0.0,0.0,0.0,0.0,0.0,0.0,0.0,0.0,0.0,0.0,0.0,0.0,0.0,0.0,0.0,0.0,0.0,0.0,0.0,0.0,0.0,0.0,0.0,0.0,0.0,0.0,0.0,0.0,0.0,0.0,0.0,0.0,0.0,0.0,0.0,0.0,0.0,0.0,0.0,0.0,0.0,0.0,0.0,0.0,0.0,0.0,0.0,0.0,0.0,0.0,0.0,0.0,0.0,0.0,0.0,0.0,0.0,0.0,0.0,0.0,0.0,0.0,0.0,0.0,0.0,0.0,0.0,0.0,0.0,0.0,0.0,0.0,0.0,0.0,0.0,0.0,0.0,0.0,0.0,0.0,0.0,0.0,0.0,0.0,0.0,0.0,0.0,0.0,0.0,0.0,0.0,0.0,0.0,0.0,0.0,0.0,0.0,0.0,0.0,0.0,0.0,0.0,0.0,0.0,0.0,0.0,0.0,0.0,0.0,0.0,0.0,0.0,0.0,0.0,0.0,0.0,0.0,0.0,0.0,0.0,0.0,0.0,0.0,0.0,0.0,0.0,0.0,0.0,0.0,0.0,0.0,0.0,0.0,0.0,0.0,0.0,0.0,0.0,0.0,0.0,0.0,0.0,0.0,0.0,0.0,0.0,0.0,0.0,0.0,0.0,0.0,0.0,0.0,0.0,0.0,0.0,0.0,0.0,0.0,0.0,0.0,0.0,0.0,0.0,0.0,0.0,0.0,0.0,0.0,0.0,0.0,0.0,0.0,0.0,0.0,0.0,0.0,0.0,0.0,0.0,0.0,0.0,0.0,0.0,0.0,0.0,0.0,0.0,0.0,0.0,0.0,0.0,0.0,0.0,0.0,0.0,0.0,0.0,0.0,0.0,0.0,0.0,0.0,0.0,0.0,0.0,0.0,0.0,0.0,0.0,0.0,0.0,0.0,0.0,0.0,0.0,0.0,0.0,0.0,0.0,0.0,0.0,0.0,0.0,0.0,0.0,0.0,0.0,0.0,0.0,0.0,0.0,0.0,0.0,0.0,0.0,0.0,0.0,0.0,0.0,0.0,0.0,0.0,0.0,0.0,0.0,0.0,0.0,0.0,0.0,0.0,0.0,0.0,0.0,0.0,0.0,0.0,0.0,0.0,0.0,0.0,0.0,0.0,0.0,0.0,0.0,0.0,0.0,0.0,0.0,0.0,0.0,0.0,0.0,0.0,0.0,0.0,0.0,0.0,0.0,0.0,0.0,0.0,0.0,0.0,0.0,0.0,0.0,0.0,0.0,0.0,0.0,0.0,0.0,0.0,0.0,0.0,0.0,0.0,0.0,0.0,0.0,0.0,0.0,0.0,0.0,0.0,0.0,0.0,0.0,0.0,0.0,0.0,0.0,0.0,0.0,0.0,0.0,0.0,0.0,0.0,0.0,0.0,0.0,0.0,0.0,0.0,0.0,0.0,0.0,0.0,0.0,0.0,0.0,0.0,0.0,0.0,0.0,0.0,0.0,0.0,0.0,0.0,0.0,0.0,0.0,0.0,0.0,0.0,0.0,0.0,0.0,0.0,0.0,0.0,0.0,0.0,0.0,0.0,0.0,0.0,0.0,0.0,0.0,0.0,0.0,0.0,0.0,0.0,0.0,0.0,0.0,0.0,0.0,0.0,0.0,0.0,0.0,0.0,0.0,0.0,0.0,0.0,0.0,0.0,0.0,0.0,0.0,0.0,0.0,0.0,0.0,0.0,0.0,0.0,0.0,0.0,0.0,0.0,0.0,0.0,0.0,0.0,0.0,0.0,0.0,0.0,0.0,0.0,0.0,0.0,0.0,0.0,0.0,0.0,0.0,0.0,0.0,0.0,0.0,0.0,0.0,0.0,0.0,0.0,0.0,0.0,0.0,0.0,0.0,0.0,0.0,0.0,0.0,0.0,0.0,0.0,0.0,0.0,0.0,0.0,0.0,0.0,0.0,0.0,0.0,0.0,0.0,0.0,0.0,0.0,0.0,0.0,0.0,0.0,0.0,0.0,0.0,0.0,0.0,0.0,0.0,0.0,0.0,0.0,0.0,0.0,0.0,0.0,0.0,0.0,0.0,0.0,0.0,0.0,0.0,0.0,0.0,0.0,0.0,0.0,0.0,0.0,0.0,0.0,0.0,0.0,0.0,0.0,0.0,0.0,0.0,0.0,0.0,0.0,0.0,0.0,0.0,0.0,0.0,0.0,0.0,0.0,0.0,0.0,0.0,0.0,0.0,0.0,0.0,0.0,0.0,0.0,0.0,0.0,0.0,0.0,0.0,0.0,0.0,0.0,0.0,0.0,0.0,0.0,0.0,0.0,0.0,0.0,0.0,0.0,0.0,0.0,0.0,0.0,0.0,0.0,0.0,0.0,0.0,0.0,0.0,0.0,0.0,0.0,0.0,0.0,0.0,0.0,0.0,0.0,0.0,0.0,0.0,0.0,0.0,0.0,0.0,0.0,0.0,0.0,0.0,0.0,0.0,0.0,0.0,0.0,0.0,0.0,0.0,0.0,0.0,0.0,0.0,0.0,0.0,0.0,0.0,0.0,0.0,0.0,0.0,0.0,0.0,0.0,0.0,0.0,0.0,0.0,0.0,0.0,0.0,0.0,0.0,0.0,0.0,0.0,0.0,0.0,0.0,0.0,0.0,0.0,0.0,0.0,0.0,2.043,0.0,0.0,0.0,0.0,0.0,0.0,0.0,0.0,0.0,0.0,0.0,0.0,0.0,0.0,0.0,0.0,0.0,0.0,0.0,0.0,0.0,0.0,0.0,0.0,0.0,0.0,0.0,1.0919,1.0821,1.0605,1.0586,0.0,0.0,0.0,0.0,0.0,0.0,1.0137,1.1191,1.1816,1.3652,1.6562,1.4785,1.3281,1.2012,0.0,0.0,0.0,0.0,0.0,0.0,0.0,0.0,0.0,0.0,0.0,0.0,0.0,0.0,0.0,0.0,0.0,0.0,0.0,0.0,0.0,0.0,0.0,0.0,0.0,0.0,0.0,0.0,0.0,0.0,0.0,0.0,0.0,0.0,0.0,0.0,0.0,0.0,0.0,0.0,0.0,0.0,0.0,0.0,0.0,0.0,0.0,0.0,0.0,0.0,0.0,0.0,0.0,0.0,0.0,0.0,0.0,0.0,0.0,0.0,0.0,0.0,0.0,0.0,0.0,0.0,0.0,0.0,0.0,0.0,0.0,2.0703,0.0,0.0,0.0,0.0,0.0,0.0,0.0,0.0,0.0,0.0,0.0,0.0,0.0,0.0,0.0,0.0,0.0,0.0,0.0,0.0,0.0,0.0,0.0,1.1073,1.1348,1.1878,1.178,1.1584,1.127,1.1113,1.084,1.043,1.0488,1.0488,1.041,1.0547,1.1565,1.3463,1.5469,1.7734,2.0176,2.0254,1.9141,1.6953,1.3789,0.0,0.0,0.0,0.0,0.0,0.0,0.0,0.0,0.0,0.0,0.0,0.0,0.0,0.0,0.0,0.0,0.0,0.0,0.0,0.0,0.0,0.0,0.0,0.0,0.0,0.0,0.0,0.0,0.0,0.0,0.0,0.0,0.0,0.0,0.0,0.0,0.0,0.0,0.0,0.0,0.0,0.0,0.0,0.0,0.0,0.0,0.0,0.0,0.0,0.0,0.0,0.0,0.0,0.0,0.0,0.0,0.0,0.0,0.0,0.0,0.0,0.0,0.0,2.375,2.416,2.4558,2.4558,2.5684,2.7539,2.4687,2.4609,2.6133,2.1406,0.0,0.0,0.0,0.0,0.0,0.0,0.0,0.0,0.0,0.0,0.0,0.0,0.0,0.0,0.0,0.0,0.0,0.0,0.0,0.0,0.0,1.1816,1.2359,1.3184,1.2578,1.2285,1.2598,1.1917,1.131,1.084,1.1213,1.1232,1.084,1.156,1.3184,1.5674,2.0684,2.3359,2.375,2.4121,2.4167,2.3677,1.9863,1.8184,1.8008,0.0,0.0,0.0,0.0,0.0,0.0,0.0,0.0,0.0,0.0,0.0,0.0,0.0,0.0,0.0,0.0,0.0,0.0,0.0,0.0,0.0,0.0,0.0,0.0,0.0,0.0,0.0,0.0,0.0,0.0,0.0,0.0,0.0,0.0,0.0,0.0,0.0,0.0,0.0,0.0,0.0,2.1855,2.1914,0.0,0.0,0.0,0.0,0.0,0.0,0.0,0.0,0.0,0.0,0.0,0.0,0.0,2.2383,2.3032,2.5215,2.6367,2.6445,2.8711,2.9824,2.9863,2.9863,3.0059,3.0351,2.9902,0.0,2.6855,2.5742,0.0,0.0,0.0,0.0,0.0,0.0,0.0,0.0,0.0,0.0,0.0,0.0,0.0,0.0,0.0,0.0,0.0,0.0,0.0,0.0,0.0,1.4036,1.5167,1.6258,1.6719,1.6269,1.4793,1.4324,1.3267,1.1389,1.1486,1.1604,1.1619,1.3437,1.6484,2.0762,2.4199,2.6113,2.6602,2.6797,2.6875,2.6797,2.5098,2.2871,2.0254,1.8437,0.0,0.0,0.0,0.0,0.0,0.0,0.0,0.0,0.0,0.0,0.0,0.0,0.0,0.0,0.0,0.0,0.0,0.0,0.0,0.0,0.0,0.0,0.0,0.0,0.0,0.0,0.0,0.0,0.0,0.0,0.0,0.0,0.0,0.0,0.0,0.0,0.0,0.0,0.0,1.9961,2.123,2.1697,2.0313,1.8711,0.0,0.0,0.0,0.0,0.0,0.0,0.0,0.0,0.0,2.4961,2.5273,2.6094,2.75,2.8633,2.9199,2.9199,3.0351,3.0898,3.0898,3.0898,3.0898,3.0898,3.0898,3.0234,2.9062,2.7422,2.5371,2.3105,0.0,0.0,0.0,0.0,2.1016,2.123,0.0,0.0,0.0,0.0,0.0,0.0,0.0,0.0,0.0,0.0,0.0,0.0,1.4777,1.6687,1.8325,1.9494,2.0312,1.9764,1.7396,1.6633,1.5107,1.2524,1.2116,1.2132,1.2515,1.584,1.9863,2.459,2.6426,2.7656,2.8301,2.8301,2.8301,2.8301,2.8301,2.6328,2.2906,2.1621,1.9707,1.7383,0.0,0.0,0.0,0.0,0.0,0.0,0.0,0.0,0.0,0.0,0.0,0.0,0.0,0.0,0.0,0.0,0.0,0.0,0.0,0.0,0.0,0.0,0.0,0.0,0.0,0.0,0.0,0.0,0.0,0.0,0.0,0.0,0.0,0.0,0.0,0.0,0.0,2.0859,2.2012,2.2301,2.1951,2.0723,0.0,0.0,0.0,0.0,0.0,0.0,2.3789,2.4434,2.5781,2.7949,2.832,2.9258,3.0879,3.0898,3.0898,3.0898,3.0898,3.0898,3.0898,3.0898,3.0898,3.0898,3.0898,3.0898,3.0742,2.8809,2.75,2.6523,2.459,2.3301,2.2676,2.3912,2.4102,2.4277,0.0,0.0,0.0,0.0,0.0,0.0,0.0,0.0,0.0,0.0,0.0,1.6222,1.7109,1.9492,2.1327,2.2246,2.16,2.0957,2.041,1.8047,1.6044,1.4715,1.3482,1.3008,1.3437,1.8789,2.2715,2.5086,2.7187,2.8262,2.8301,2.8301,2.8301,2.8301,2.8301,2.8164,2.7773,2.5254,2.3867,2.291,1.7519,0.0,0.0,0.0,0.0,0.0,0.0,0.0,0.0,0.0,0.0,0.0,0.0,0.0,0.0,0.0,0.0,0.0,0.0,0.0,0.0,0.0,0.0,0.0,0.0,0.0,0.0,0.0,0.0,0.0,0.0,0.0,0.0,0.0,0.0,0.0,0.0,0.0,0.0,2.5596,2.6191,0.0,0.0,0.0,0.0,2.2867,2.3418,2.4805,2.7317,2.7493,2.8511,3.0625,3.0723,3.0781,3.0898,3.0898,3.0898,3.0898,3.0898,3.0898,3.0898,3.0898,3.0898,3.0898,3.0898,3.0898,3.0879,3.0762,2.9473,2.765,2.7513,2.6133,2.4551,2.666,2.7474,2.7734,0.0,0.0,0.0,0.0,0.0,0.0,0.0,0.0,1.1055,1.1547,1.4434,1.6934,1.8066,2.1484,2.4062,2.4922,2.5488,2.5,2.3164,2.0625,1.875,1.7734,1.5644,1.6133,1.9592,2.248,2.498,2.7148,2.791,2.8301,2.8301,2.8301,2.8301,2.8301,2.8301,2.8301,2.8242,2.7305,2.5859,2.3984,2.1719,1.8711,0.0,0.0,0.0,0.0,0.0,0.0,0.0,0.0,0.0,0.0,0.0,0.0,0.0,0.0,0.0,0.0,0.0,0.0,0.0,0.0,0.0,0.0,0.0,0.0,0.0,0.0,0.0,0.0,0.0,0.0,0.0,0.0,0.0,0.0,0.0,0.0,0.0,2.5469,2.6562,0.0,2.4199,2.5234,2.6055,2.5986,2.748,2.8769,2.9687,2.9746,3.0098,3.0859,3.0898,3.0898,3.0898,3.0898,3.0898,3.0898,3.0898,3.0898,3.0898,3.0898,3.0898,3.0898,3.0898,3.0898,3.0898,3.0898,3.043,2.9746,2.9746,2.9277,2.8672,2.9453,2.9746,2.9863,0.0,0.0,0.0,0.0,0.0,0.0,0.0,0.0,1.166,1.315,1.6055,1.873,2.0605,2.4004,2.6387,2.6973,2.7793,2.7305,2.4972,2.2578,2.0703,1.9551,1.7852,1.9004,2.3432,2.4707,2.6269,2.8301,2.8301,2.8301,2.8301,2.8301,2.8301,2.8301,2.8301,2.8301,2.8301,2.8301,2.7305,2.5625,2.4473,2.1953,1.8613,0.0,0.0,0.0,0.0,0.0,0.0,0.0,0.0,0.0,0.0,0.0,0.0,0.0,0.0,0.0,0.0,0.0,0.0,0.0,0.0,0.0,0.0,0.0,0.0,0.0,0.0,0.0,0.0,0.0,0.0,0.0,0.0,0.0,0.0,0.0,2.6758,2.5449,2.7344,2.7891,2.5723,2.748,2.875,2.873,3.0078,3.0898,3.0898,3.0898,3.0898,3.0898,3.0898,3.0898,3.0898,3.0898,3.0898,3.0898,3.0898,3.0898,3.0898,3.0898,3.0898,3.0898,3.0898,3.0898,3.0898,3.0898,3.0898,3.0898,3.0898,3.0898,3.0898,3.0898,3.0898,3.0898,0.0,0.0,0.0,0.0,0.0,0.0,0.0,1.131,1.2837,1.6239,1.8965,2.176,2.4773,2.6992,2.8301,2.8301,2.8301,2.7578,2.583,2.373,2.1758,2.0039,2.0078,2.1504,2.4434,2.5323,2.6641,2.8301,2.8301,2.8301,2.8301,2.8301,2.8301,2.8301,2.8301,2.8301,2.8301,2.8301,2.8301,2.8066,2.5547,2.4492,2.3926,0.0,0.0,0.0,0.0,0.0,0.0,0.0,0.0,0.0,0.0,0.0,0.0,0.0,0.0,0.0,0.0,0.0,0.0,0.0,0.0,0.0,0.0,0.0,0.0,0.0,0.0,0.0,0.0,0.0,0.0,0.0,0.0,0.0,2.4668,2.6387,2.7305,2.6005,2.8848,3.0059,2.8022,2.9668,3.0898,3.0898,3.0898,3.0898,3.0898,3.0898,3.0898,3.0898,3.0898,3.0898,3.0898,3.0898,3.0898,3.0898,3.0898,3.0898,3.0898,3.0898,3.0898,3.0898,3.0898,3.0898,3.0898,3.0898,3.0898,3.0898,3.0898,3.0898,3.0898,3.0898,3.0898,3.0898,0.0,0.0,0.0,0.0,0.0,0.0,0.0,1.1562,1.3066,1.5879,1.9043,2.1953,2.4336,2.6816,2.8301,2.8301,2.8301,2.7832,2.6738,2.4062,2.2012,2.0878,2.3555,2.5449,2.6289,2.7148,2.7812,2.8301,2.8301,2.8301,2.8301,2.8301,2.8301,2.8301,2.8301,2.8301,2.8301,2.8301,2.8301,2.8223,2.7519,2.6094,2.4277,0.0,0.0,0.0,0.0,0.0,0.0,0.0,0.0,0.0,0.0,0.0,0.0,0.0,0.0,0.0,0.0,0.0,0.0,0.0,0.0,0.0,0.0,0.0,0.0,0.0,0.0,0.0,0.0,0.0,0.0,0.0,2.4687,2.6719,2.6348,2.8437,2.9863,2.9512,3.0312,3.0664,3.0059,3.0547,3.0898,3.0898,3.0898,3.0898,3.0898,3.0898,3.0898,3.0898,3.0898,3.0898,3.0898,3.0898,3.0898,3.0898,3.0898,3.0898,3.0898,3.0898,3.0898,3.0898,3.0898,3.0898,3.0898,3.0898,3.0898,3.0898,3.0898,3.0898,3.0898,3.0898,3.0898,3.0898,0.0,0.0,0.0,0.0,0.0,0.0,0.0,1.2028,1.3809,1.7494,1.9863,2.2418,2.5684,2.7383,2.8301,2.8301,2.7969,2.7305,2.6269,2.4043,2.2969,2.3379,2.5547,2.7012,2.7539,2.8027,2.8301,2.8301,2.8301,2.8301,2.8301,2.8301,2.8301,2.8301,2.8301,2.8301,2.8301,2.8301,2.8301,2.8301,2.8301,2.7383,2.5957,2.5234,2.3926,2.2425,2.1897,2.1466,2.1114,2.0742,0.0,0.0,0.0,0.0,0.0,0.0,0.0,0.0,0.0,0.0,0.0,0.0,0.0,0.0,0.0,0.0,0.0,0.0,0.0,0.0,0.0,0.0,0.0,0.0,2.6953,2.8633,2.8633,2.9941,3.0898,3.0898,3.0898,3.0898,3.0898,3.0898,3.0898,3.0898,3.0898,3.0898,3.0898,3.0898,3.0898,3.0898,3.0898,3.0898,3.0898,3.0898,3.0898,3.0898,3.0898,3.0898,3.0898,3.0898,3.0898,3.0898,3.0898,3.0898,3.0898,3.0898,3.0898,0.0,0.0,0.0,0.0,0.0,3.0898,3.0898,0.0,0.0,0.0,0.0,0.0,0.0,0.0,1.2637,1.4813,1.994,2.0996,2.3042,2.7793,2.8301,2.8301,2.8301,2.7559,2.6543,2.5234,2.416,2.4414,2.6309,2.6523,2.7129,2.8262,2.8301,2.8301,2.8301,2.8301,2.8301,2.8301,2.8301,2.8301,2.8301,2.8301,2.8301,2.8301,2.8301,2.8301,2.8301,2.8301,2.8301,2.8125,2.6602,2.5801,2.5399,2.4264,2.3423,2.2871,2.3144,0.0,0.0,0.0,0.0,0.0,0.0,0.0,0.0,0.0,0.0,0.0,0.0,0.0,0.0,0.0,0.0,0.0,0.0,0.0,0.0,0.0,0.0,0.0,0.0,2.9219,3.0898,3.0898,3.0898,3.0898,3.0898,3.0898,3.0898,3.0898,3.0898,3.0898,3.0898,3.0898,3.0898,3.0898,0.0,0.0,0.0,0.0,3.0957,3.0957,3.1016,3.1035,3.1035,3.1035,3.1016,3.0957,3.0957,3.0937,3.0898,3.0898,3.0898,3.0898,3.0898,3.0898,3.0898,3.0898,3.0898,3.0898,3.0898,3.0898,3.0898,0.0,0.0,0.0,0.0,0.0,0.0,0.0,1.2866,1.5117,1.9979,2.1269,2.3437,2.7812,2.8301,2.8301,2.8301,2.7832,2.6992,2.5684,2.6016,2.6309,2.6387,2.7383,2.8047,2.8281,2.8301,2.8301,2.8301,2.8301,2.8301,2.8301,2.8301,2.8301,2.8301,2.8301,2.8301,2.8301,2.8301,2.8301,2.8301,2.8301,2.8301,2.8262,2.793,2.7949,2.8144,2.7891,2.8144,2.8496,2.7891,2.6719,2.5391,2.4668,2.2973,0.0,0.0,0.0,0.0,0.0,0.0,0.0,0.0,0.0,0.0,0.0,0.0,0.0,0.0,0.0,0.0,0.0,0.0,0.0,2.7422,2.9434,3.0898,3.0898,3.0898,3.0898,3.0898,3.0898,3.0898,3.0898,3.0898,3.0898,3.0898,3.0898,3.0898,3.0898,3.0898,3.0898,3.0898,3.1211,3.1406,3.1406,3.1738,3.1914,3.1914,0.0,0.0,3.1406,3.1406,3.1211,3.0898,3.0898,3.0898,3.0898,3.0898,3.0898,3.0898,3.0898,3.0898,3.0898,3.0898,3.0898,3.0898,0.0,0.0,0.0,0.0,0.0,0.0,0.0,1.3105,1.4902,1.8769,2.0039,2.1894,2.5332,2.5723,2.5625,2.543,2.541,2.5312,2.5098,2.6094,2.6894,2.7324,2.7949,2.8301,2.8301,2.8301,2.8301,2.8301,2.8301,2.8301,2.8301,2.8301,2.8301,2.8301,2.8301,2.8301,2.8301,2.8301,2.8301,2.8301,2.8301,2.8301,2.8301,2.8301,2.8555,2.8945,2.916,2.9648,3.0176,2.9961,2.9336,2.8574,2.8125,2.6367,2.3945,0.0,0.0,0.0,0.0,0.0,0.0,0.0,0.0,0.0,0.0,0.0,0.0,0.0,0.0,2.3867,2.5223,0.0,2.8008,2.9101,3.0195,3.0898,3.0898,3.0898,3.0898,3.0898,3.0898,3.0898,3.0898,3.0898,3.0898,3.0898,3.1094,3.1211,3.1211,3.1406,3.1523,3.1523,3.1738,3.1836,3.1836,3.207,3.2229,3.2229,3.2229,3.2051,3.1836,3.1836,3.1738,3.1523,3.1523,3.1523,3.1504,3.1289,3.1211,3.1191,3.0976,3.0898,3.0898,3.0898,3.0898,3.0898,0.0,0.0,0.0,0.0,0.0,0.0,0.0,1.3242,1.4531,1.735,1.8516,1.9961,2.234,2.2672,2.2594,2.2285,2.2969,2.373,2.4492,2.5937,2.7226,2.8242,2.8301,2.8301,2.8301,2.8301,2.8301,2.8301,2.8301,2.8301,2.8301,2.8301,2.8301,2.8301,2.8301,2.8301,2.8301,2.8301,2.8301,2.8301,2.8301,2.834,2.8418,2.8418,2.8672,2.9101,2.9531,2.9961,3.0391,3.0762,3.0898,3.0898,3.0898,2.9453,2.7226,2.4407,2.3237,0.0,0.0,0.0,0.0,0.0,0.0,0.0,0.0,0.0,2.1934,2.4199,2.5195,2.6211,2.7969,2.8574,2.9258,3.0664,3.0898,3.0898,3.0898,3.0898,3.0898,3.0898,3.0898,3.0898,3.0898,3.0957,3.1016,3.1016,3.1406,3.1641,3.1641,3.1973,3.2229,3.2229,3.2307,3.2285,3.2285,3.2363,3.2422,3.2422,3.2422,3.2363,3.2285,3.2285,3.2246,3.2229,3.2229,3.2229,3.2148,3.1797,3.1641,3.1601,3.1269,3.1094,3.0996,3.0918,3.0898,3.0898,0.0,0.0,0.0,0.0,0.0,0.0,0.0,0.0,1.4316,1.6551,1.7584,1.8848,2.0703,2.1211,2.1385,2.1346,2.3164,2.4473,2.5008,2.6934,2.8144,2.8281,2.8301,2.8301,2.8301,2.8301,2.8301,2.8301,2.8301,2.8301,2.8301,2.8301,2.8301,2.8301,2.8301,2.8301,2.8301,2.8301,2.8301,2.8301,2.8301,2.8516,2.8848,2.8848,2.9121,2.9551,2.998,3.043,3.082,3.0879,3.0898,3.0898,3.0898,3.0703,2.9805,2.6376,2.4816,2.3359,1.9436,1.8984,2.0078,2.219,2.2402,2.3437,0.0,0.0,2.6953,2.9492,3.0098,3.0234,3.0488,3.0566,3.0664,3.0859,3.0898,3.0898,3.0898,3.0898,3.0898,3.0898,3.0898,3.0898,3.0898,3.123,3.1445,3.1445,3.1855,3.209,3.209,3.2148,3.2229,3.2229,3.2539,3.2734,3.2734,3.3105,3.3281,3.3281,3.3281,3.3086,3.2734,3.2734,3.2519,3.2229,3.2229,3.2229,3.2229,3.2109,3.209,3.209,3.2051,3.1797,3.1406,3.1035,3.0898,3.0898,0.0,0.0,0.0,0.0,0.0,0.0,0.0,0.0,0.0,1.5011,1.5742,1.6504,1.7461,1.7519,1.7676,1.8184,2.0879,2.2969,2.3887,2.668,2.8301,2.8301,2.8301,2.8301,2.8301,2.8301,2.8301,2.8301,2.8301,2.8301,2.8301,2.8301,2.8301,2.8301,2.8301,2.8301,2.8301,2.8301,2.8301,2.832,2.8555,2.8769,2.8965,2.9473,2.9785,2.9863,2.9297,2.9375,0.0,2.9746,2.9746,2.9883,3.0644,3.0195,2.8906,2.6415,2.5664,2.543,2.4785,2.4043,0.0,0.0,2.584,2.6426,2.8535,2.8359,2.8359,3.0449,3.0898,3.0898,3.0898,3.0898,3.0898,0.0,3.0898,3.0898,3.0898,3.0898,3.0898,3.0898,3.1113,3.125,3.125,3.1406,3.1621,3.1875,3.2285,3.2539,3.2539,3.2773,3.2891,3.2891,3.3066,3.3164,3.3164,3.334,3.3418,3.3418,3.3418,3.332,3.3164,3.3164,3.3066,3.2891,3.2891,3.2891,3.2871,3.2637,3.2539,3.2519,3.2266,3.2051,3.1836,3.1406,3.1094,3.0898,0.0,0.0,0.0,0.0,0.0,0.0,0.0,0.0,0.0,0.0,1.416,1.4551,1.4844,1.4512,1.4676,1.5654,1.8769,2.1307,2.2828,2.6094,2.8047,2.8281,2.8301,2.8301,2.8301,2.8301,2.8301,2.8301,2.8301,2.8301,2.8301,2.8301,2.8301,2.8301,2.8301,2.8301,2.8301,2.8301,2.8359,2.8496,2.8789,2.9062,2.9336,2.9961,2.9902,2.9375,2.8457,2.832,2.8457,2.7754,2.7734,2.8164,2.8887,2.8496,2.748,2.5996,2.5449,2.5605,2.6973,0.0,0.0,2.7474,2.834,2.8926,2.8633,2.8789,2.9375,3.0625,3.0898,3.0898,3.0898,3.0898,3.0898,3.0898,3.0898,3.0898,3.0898,3.0898,3.0937,3.1055,3.1328,3.1601,3.1855,3.1875,3.1992,3.2324,3.2734,3.2969,3.2969,3.3262,3.3418,3.3418,3.3418,3.3418,3.3418,3.3418,3.3418,3.3418,3.3418,3.3418,3.3418,3.3418,3.3418,3.3418,3.3418,3.3418,3.3398,3.3086,3.2969,3.293,3.2637,3.2441,3.2305,3.1992,3.1523,3.1055,0.0,0.0,0.0,0.0,0.0,0.0,0.0,0.0,0.0,0.0,0.0,0.0,0.0,1.3184,1.3482,1.4735,1.7598,2.0254,2.2383,2.5371,2.7422,2.8262,2.8301,2.8301,2.8301,2.8301,2.8301,2.8301,2.8301,2.8301,2.8301,2.8301,2.8301,2.8301,2.8301,2.8301,2.8301,2.8301,2.8535,2.8906,2.8906,2.9414,3.0156,3.0176,2.918,2.7787,2.7748,2.7748,2.7376,2.4805,2.4785,2.5635,2.4863,2.5449,2.6269,2.5399,2.3926,2.2734,2.3247,0.0,2.6025,2.7344,2.9258,3.082,3.0801,3.0801,3.082,3.0879,3.0898,3.0898,3.0898,3.0898,3.0898,3.0898,3.0898,3.0898,3.0898,3.0898,3.1035,3.1445,3.1504,3.1836,0.0,3.2754,3.2754,3.2773,3.3164,3.3398,3.3398,3.3418,3.3418,3.3418,3.3418,3.3418,3.3418,3.3418,3.3418,3.3418,3.3418,3.3418,3.3418,3.3418,3.3418,3.3418,3.3418,3.3418,3.3418,3.3418,3.3398,3.3398,3.3379,3.3144,3.2773,3.2754,3.2226,3.1504,0.0,0.0,0.0,0.0,0.0,0.0,0.0,0.0,0.0,0.0,0.0,0.0,0.0,0.0,0.0,0.0,1.7031,1.9238,2.1134,2.4316,2.6426,2.7012,2.7851,2.8301,2.8301,2.8301,2.8301,2.8301,2.8301,2.8301,2.8301,2.8301,2.8301,2.8301,2.8301,2.8301,2.832,2.8594,2.8789,2.8965,2.9531,2.9941,3.0195,3.0195,2.8965,2.6973,0.0,2.4062,2.3652,2.248,2.234,2.2808,2.3354,2.3257,2.2852,2.2288,2.2542,2.3281,2.4863,0.0,2.7812,2.9414,3.0351,3.0898,3.0898,3.0898,3.0898,3.0898,3.0195,2.9668,2.9961,2.9785,2.9668,2.9961,3.0508,3.0898,3.0898,3.0898,3.1055,3.1465,3.1777,0.0,0.0,0.0,0.0,3.3184,3.334,3.3418,3.3418,3.3418,3.3418,3.3418,3.3418,3.3418,3.3418,3.3418,3.3418,3.3418,3.3418,3.3418,3.3418,3.3418,3.3418,3.3418,3.3418,3.3418,3.3418,3.3418,3.3418,3.3418,3.3418,3.334,3.3203,3.3203,3.2851,3.2324,0.0,0.0,0.0,0.0,0.0,0.0,0.0,0.0,0.0,0.0,0.0,0.0,0.0,0.0,0.0,0.0,0.0,1.7988,1.9588,2.2461,2.4485,2.543,2.5957,2.6445,2.6894,2.6465,2.6523,2.7148,2.7305,2.7617,2.8066,2.8223,2.8301,2.8301,2.8301,2.8379,2.8535,2.8809,2.8926,2.8945,2.9199,2.9101,2.8789,2.832,2.6621,0.0,2.1892,2.0371,1.9297,1.9023,1.9336,1.998,2.0605,2.0878,2.1035,2.1211,2.2266,2.3971,2.6406,2.7676,2.8711,3.0449,3.0898,3.0898,3.0898,3.0898,3.0898,3.0898,2.9844,2.9004,2.9277,2.9101,2.8965,2.9101,3.0117,3.084,3.0664,3.0918,3.1269,3.1699,3.2129,3.2559,0.0,0.0,0.0,3.3398,3.3418,3.3418,3.3418,3.3418,3.3418,3.3418,3.3418,3.3418,3.3418,3.3418,3.3418,3.3418,3.3418,3.3418,3.3418,3.3418,3.3418,3.3418,3.3418,3.3418,3.3418,3.3418,3.3418,3.3418,3.3418,3.3418,3.3418,3.3418,3.3242,3.2969,0.0,0.0,0.0,0.0,0.0,0.0,0.0,0.0,0.0,0.0,0.0,0.0,0.0,0.0,0.0,0.0,0.0,0.0,1.7793,1.9865,2.1795,2.3516,2.2891,2.3086,2.4316,2.3164,2.334,2.5008,2.5391,2.625,2.7532,2.7871,2.8066,2.8086,2.8086,2.832,2.8691,2.8711,2.8691,2.8594,2.7812,2.6992,2.6074,2.4805,2.2461,1.9709,1.887,1.6953,1.4766,1.4852,1.6085,1.7533,1.7155,1.8769,2.1016,2.2266,2.3281,2.4609,2.75,2.8359,2.8828,3.0469,3.0898,3.0898,3.0898,3.0898,3.0859,3.0781,2.9707,2.8769,0.0,0.0,2.8652,2.8262,2.9707,3.0742,3.0293,3.0976,3.168,0.0,0.0,0.0,0.0,0.0,0.0,3.3418,0.0,3.3418,3.3418,3.3418,3.3418,3.3418,3.3418,3.3418,3.3418,3.3418,3.3418,3.3418,3.3418,3.3418,3.3418,3.3418,3.3418,3.3418,3.3418,3.3418,3.3418,3.3418,3.3418,3.3418,3.3418,3.3418,3.3418,3.3418,3.3418,3.3359,0.0,0.0,0.0,0.0,0.0,0.0,0.0,0.0,0.0,0.0,0.0,0.0,0.0,0.0,0.0,0.0,0.0,0.0,1.6016,1.8071,1.9748,2.0859,2.1934,2.2812,2.3477,2.3208,2.3203,2.3633,2.3705,2.4141,2.4785,2.4883,2.5098,2.541,2.541,2.5469,2.5586,2.5918,2.5684,2.5098,2.5215,2.4727,2.3842,2.3242,2.1288,1.8851,1.8325,1.6473,1.4426,1.5439,1.7553,0.0,2.1523,2.2441,2.3164,2.4141,2.5488,2.6965,2.8008,2.9238,3.0332,3.0781,3.0898,3.0898,3.0898,3.0898,3.0527,2.9219,2.793,2.6641,0.0,0.0,0.0,2.6894,2.9141,0.0,3.0723,3.1172,0.0,3.2109,0.0,3.2969,3.3379,3.3418,0.0,0.0,3.3418,3.3418,3.3418,3.3418,3.3418,3.3418,3.3418,3.3418,3.3418,3.3418,3.3418,3.3418,3.3418,3.3418,3.3418,3.3418,3.3418,3.3418,3.3418,3.3418,3.3418,3.3418,3.3418,3.3418,3.3418,3.3418,3.3418,3.3418,3.3418,3.3398,0.0,0.0,0.0,0.0,0.0,0.0,0.0,0.0,0.0,0.0,0.0,0.0,0.0,0.0,0.0,0.0,0.0,0.0,0.0,1.6141,1.7389,1.8442,1.9082,1.9863,2.0879,2.0527,2.0527,2.0839,2.1229,2.1758,2.2383,2.2578,2.2891,2.3301,2.3301,2.3418,2.3594,2.3848,2.3457,0.0,0.0,2.1699,2.0527,1.9707,1.8379,1.6894,1.6434,1.6434,1.6902,0.0,0.0,2.1934,2.334,2.4043,2.459,2.5889,0.0,2.8164,2.916,3.0156,3.0898,3.0898,3.0898,3.0684,2.9922,2.9746,2.9199,2.7266,2.6016,0.0,2.3477,0.0,0.0,0.0,0.0,0.0,3.0605,3.1289,3.1894,0.0,3.2695,0.0,3.3398,3.3418,3.3418,0.0,3.3418,3.3418,3.3418,3.3418,3.3418,3.3418,3.3418,3.3418,3.3418,3.3418,3.3418,3.3418,3.3418,3.3418,3.3418,3.3418,3.3418,3.3418,0.0,3.3418,3.3418,3.3418,3.3418,3.3418,3.3418,3.3418,3.3418,3.3418,3.3418,3.3418,0.0,0.0,0.0,0.0,0.0,0.0,0.0,0.0,0.0,0.0,0.0,0.0,0.0,0.0,0.0,0.0,0.0,0.0,0.0,0.0,1.5312,1.6473,1.5849,1.623,1.7812,1.7019,1.698,1.7754,1.8437,1.918,2.0018,2.0371,2.0781,2.1211,2.1211,2.1406,2.1738,2.1738,2.121,2.0352,1.9687,1.8457,1.6914,0.0,1.5156,1.4746,1.4387,1.6648,2.0176,0.0,2.3496,2.3881,2.4531,2.5234,2.6182,2.7708,2.8359,2.8965,3.0488,3.0898,3.0898,3.0898,3.0898,3.043,2.8691,2.8242,2.7559,2.5215,0.0,2.3242,2.2266,2.4199,2.5762,2.5223,0.0,3.0566,3.0391,3.1406,3.2187,3.2246,3.2949,3.3418,3.3418,3.3418,3.3418,3.3418,3.3418,3.3418,3.3418,3.3418,3.3418,3.3418,3.3418,3.3418,3.3418,3.3418,3.3418,3.3418,3.3418,3.3418,3.3418,3.3418,3.3418,3.3418,3.3418,0.0,3.3418,3.3418,3.3418,3.3418,3.3418,3.3418,3.3418,3.3418,3.3418,3.3418,0.0,0.0,0.0,0.0,0.0,0.0,0.0,0.0,0.0,0.0,1.457,1.4082,0.0,0.0,0.0,0.0,0.0,0.0,0.0,0.0,0.0,1.5595,1.584,1.6269,1.6902,1.6445,1.6281,1.6437,1.6191,1.6348,1.6887,1.6966,1.7207,1.7584,1.7584,1.7623,1.7701,1.7701,1.7194,1.6445,1.6641,1.6163,1.5254,1.5371,0.0,0.0,1.5098,1.7012,1.9844,2.2715,2.5332,2.7656,2.918,2.9766,2.9941,3.0254,3.0391,3.0508,3.082,3.0898,3.0898,3.0898,3.0898,3.043,2.8691,2.8027,0.0,0.0,2.2559,2.1738,2.0137,2.1973,2.4069,2.4969,0.0,0.0,0.0,0.0,3.2305,0.0,0.0,0.0,0.0,0.0,0.0,0.0,0.0,3.3418,3.3418,3.3418,3.3418,3.3418,3.3418,3.3418,3.3418,3.3418,3.3418,3.3418,3.3418,3.3418,3.3418,3.3418,3.3418,3.3418,3.3418,0.0,3.3418,3.3418,3.3418,3.3418,3.3418,3.3418,3.3418,3.3418,3.3418,3.3418,0.0,0.0,0.0,0.0,0.0,0.0,0.0,1.5898,1.6836,1.793,1.793,1.7272,1.5957,1.5,1.4648,0.0,0.0,0.0,0.0,0.0,0.0,0.0,0.0,0.0,1.6005,1.6055,1.587,1.542,0.0,1.541,1.542,1.542,1.5537,1.5723,1.5723,1.5556,1.5362,1.5362,1.5108,1.4738,1.498,1.4805,1.4473,0.0,0.0,0.0,0.0,0.0,2.0175,2.1367,2.4668,2.8594,3.0351,3.0898,3.0898,3.0898,3.0898,3.0898,3.0898,3.0898,3.0898,3.0898,3.0898,3.0137,2.7266,0.0,0.0,0.0,2.0508,2.0137,1.8848,2.0918,0.0,0.0,0.0,0.0,0.0,0.0,0.0,0.0,0.0,0.0,0.0,0.0,0.0,0.0,0.0,3.3418,3.3418,3.3418,3.3418,3.3418,3.3418,3.3418,3.3418,3.3418,3.3418,3.3418,3.3418,3.3418,3.3418,3.3418,3.3418,3.3418,3.3418,0.0,3.3418,3.3418,3.3418,3.3418,3.3418,3.3418,3.3418,3.3418,3.3418,3.3418,0.0,0.0,0.0,0.0,0.0,0.0,0.0,1.7559,1.8672,2.0391,2.1093,2.0489,1.7935,1.6445,1.5547,0.0,0.0,0.0,0.0,0.0,0.0,0.0,0.0,0.0,0.0,0.0,0.0,0.0,0.0,0.0,0.0,0.0,0.0,0.0,0.0,1.4453,1.4114,1.4114,1.4114,0.0,0.0,1.425,0.0,0.0,0.0,0.0,0.0,0.0,0.0,0.0,2.2988,2.6992,2.9004,3.0098,3.0586,3.0488,3.0527,3.0644,3.084,3.0898,3.0898,3.0898,3.0898,2.9863,2.6006,2.4969,0.0,0.0,1.8769,1.873,1.8242,2.0156,2.2012,0.0,2.5273,0.0,0.0,0.0,0.0,0.0,0.0,0.0,0.0,0.0,0.0,0.0,0.0,0.0,3.3418,3.3418,3.3418,3.3418,3.3418,3.3418,3.3418,3.3418,3.3418,3.3418,3.3418,3.3418,3.3418,3.3418,3.3418,3.3418,3.3418,0.0,0.0,3.3418,3.3418,3.3418,3.3418,3.3418,3.3418,3.3418,3.3418,3.3418,0.0,0.0,0.0,0.0,0.0,0.0,0.0,1.904,2.0898,2.2574,2.2535,2.1992,2.0898,1.926,1.7467,0.0,0.0,0.0,0.0,0.0,0.0,0.0,0.0,0.0,0.0,0.0,0.0,0.0,0.0,0.0,0.0,0.0,0.0,0.0,0.0,0.0,0.0,1.4114,0.0,0.0,0.0,0.0,0.0,0.0,0.0,0.0,0.0,0.0,0.0,0.0,0.0,2.1818,2.4734,2.748,2.9609,2.9219,0.0,0.0,3.0664,3.0898,3.0898,3.0898,3.0898,2.9863,2.6006,0.0,0.0,1.9338,1.8066,1.7773,1.8422,1.9121,2.0352,2.2652,0.0,2.5586,0.0,0.0,0.0,0.0,0.0,0.0,0.0,0.0,0.0,0.0,0.0,0.0,3.3418,3.3418,3.3418,3.3418,3.3418,3.3418,3.3418,3.3418,3.3418,3.3418,3.3418,3.3418,3.3418,3.3418,3.3418,3.3418,3.3418,0.0,0.0,3.3418,3.3418,3.3418,3.3418,3.3418,3.3418,3.3418,3.3418,3.3418,0.0,0.0,0.0,0.0,0.0,0.0,1.8516,1.9629,2.1269,2.4251,2.4504,2.4023,2.2891,2.1465,1.9297,1.6124,0.0,0.0,0.0,0.0,0.0,0.0,0.0,0.0,0.0,0.0,1.5293,1.5576,0.0,0.0,0.0,0.0,0.0,0.0,0.0,0.0,0.0,0.0,0.0,0.0,0.0,0.0,0.0,0.0,0.0,0.0,0.0,0.0,0.0,0.0,0.0,0.0,2.1152,2.3437,0.0,0.0,2.8848,2.9434,3.0586,3.0898,3.0898,3.0898,3.0293,2.8828,2.5449,0.0,2.1816,1.8867,1.7793,1.7559,1.8144,1.8578,1.9492,2.1289,0.0,0.0,0.0,0.0,0.0,0.0,0.0,0.0,0.0,0.0,0.0,0.0,0.0,0.0,3.3418,3.3418,3.3418,3.3418,3.3418,3.3418,3.3418,3.3418,3.3418,3.3418,3.3418,3.3418,3.3418,3.3418,3.3418,3.3418,3.3418,0.0,0.0,3.3418,3.3418,3.3418,3.3418,3.3418,3.3418,3.3418,3.3418,3.3418,0.0,0.0,0.0,0.0,0.0,1.6387,1.9277,2.0059,2.1523,2.4855,2.5187,2.4863,2.4062,2.2266,2.0059,1.7455,1.6113,0.0,0.0,0.0,0.0,0.0,0.0,0.0,0.0,0.0,1.582,1.6281,1.6418,1.6476,0.0,0.0,0.0,0.0,0.0,0.0,0.0,0.0,0.0,0.0,0.0,0.0,0.0,0.0,0.0,0.0,0.0,0.0,0.0,0.0,0.0,0.0,0.0,2.0195,2.3047,0.0,2.7617,2.8652,2.9961,3.0586,3.0898,3.0898,2.9902,2.8125,0.0,0.0,2.0996,1.8516,1.7578,1.7363,1.791,1.8325,1.8987,2.0176,0.0,2.3218,2.5254,0.0,0.0,0.0,0.0,0.0,0.0,0.0,0.0,0.0,0.0,0.0,3.3418,3.3418,3.3418,3.3418,3.3418,3.3418,3.3418,3.3418,3.3418,3.3418,3.3418,3.3418,3.3418,3.3418,3.3418,3.3418,3.3418,0.0,0.0,3.3418,3.3418,3.3418,3.3418,3.3418,3.3418,3.3418,3.3418,3.3418,0.0,0.0,0.0,0.0,0.0,0.0,1.8887,2.0391,2.1951,2.4141,2.4062,2.3965,2.4355,2.1367,1.9473,1.9844,1.7129,0.0,0.0,0.0,0.0,0.0,0.0,0.0,0.0,0.0,1.6269,1.6687,1.7168,1.7396,1.7396,1.6902,0.0,0.0,0.0,0.0,0.0,0.0,0.0,0.0,0.0,0.0,1.541,0.0,0.0,0.0,0.0,0.0,0.0,0.0,0.0,0.0,0.0,1.8281,1.9922,2.2949,2.5352,2.7324,2.8594,2.9902,3.0898,3.0898,2.9902,2.8125,0.0,0.0,2.0586,1.8422,1.7291,1.696,1.7852,1.8325,1.889,1.9748,2.0625,0.0,2.4754,0.0,0.0,0.0,0.0,0.0,0.0,0.0,0.0,0.0,0.0,0.0,3.3418,3.3418,3.3418,3.3418,3.3418,3.3418,3.3418,3.3418,3.3418,3.3418,3.3418,3.3418,3.3418,3.3418,3.3418,0.0,0.0,0.0,0.0,3.3418,3.3418,3.3418,3.3418,3.3418,3.3418,3.3418,3.3418,3.3418,0.0,0.0,0.0,0.0,0.0,0.0,0.0,1.8769,1.9902,2.2363,2.2305,2.2441,2.3457,2.125,1.9766,1.9902,1.7681,0.0,0.0,0.0,0.0,0.0,0.0,0.0,0.0,1.6738,1.7324,1.7993,1.8477,1.8828,1.9102,1.8344,1.7656,1.6966,0.0,0.0,0.0,0.0,0.0,0.0,0.0,1.541,1.541,0.0,0.0,0.0,0.0,0.0,0.0,0.0,0.0,0.0,0.0,0.0,0.0,1.998,2.2422,2.5098,2.6387,2.7266,2.7734,2.7441,2.6387,2.4941,2.3105,0.0,1.9551,1.8262,1.7559,1.7344,1.791,1.8091,1.8754,2.0489,2.1015,0.0,0.0,0.0,0.0,0.0,0.0,0.0,0.0,0.0,0.0,0.0,0.0,0.0,3.3418,3.3418,3.3418,3.3418,3.3418,3.3418,3.3418,3.3418,3.3418,3.3418,3.3418,3.3418,3.3418,3.3418,3.3418,0.0,0.0,0.0,0.0,3.3418,3.3418,3.3418,3.3418,3.3418,3.3418,3.3418,3.3418,3.3418,0.0,0.0,0.0,0.0,0.0,0.0,0.0,1.7676,1.8535,2.0625,2.0527,2.0839,2.2542,2.0586,1.9453,2.0098,1.8359,0.0,0.0,0.0,0.0,0.0,0.0,0.0,1.6973,1.7246,1.8125,1.9572,1.9845,2.0312,2.0879,2.0176,1.9141,1.7832,1.7109,1.6398,0.0,0.0,0.0,0.0,1.541,1.541,1.541,0.0,0.0,0.0,0.0,0.0,0.0,0.0,0.0,0.0,0.0,0.0,0.0,0.0,1.9805,2.207,2.4134,2.5382,2.6074,2.5752,2.4582,2.3262,0.0,0.0,1.8613,1.791,1.7441,1.7266,1.7695,1.8027,1.8656,2.0001,2.0761,0.0,0.0,0.0,0.0,0.0,0.0,0.0,0.0,0.0,0.0,0.0,0.0,0.0,3.3418,3.3418,3.3418,3.3418,3.3418,3.3418,3.3418,3.3418,3.3418,3.3418,3.3418,3.3418,3.3418,3.3418,3.3418,0.0,0.0,0.0,0.0,3.3418,3.3418,3.3418,3.3418,3.3418,3.3418,3.3418,3.3418,3.3418,0.0,0.0,0.0,0.0,0.0,0.0,0.0,1.7031,1.7734,1.8984,1.8809,1.9299,2.1387,1.9453,1.8652,2.0292,0.0,0.0,0.0,0.0,0.0,0.0,0.0,0.0,1.7422,1.7519,1.875,2.1151,2.1307,2.1775,2.2598,2.2207,2.0859,1.8715,1.8301,1.7363,1.6105,1.5684,1.5508,1.5508,1.5469,1.5449,0.0,0.0,0.0,0.0,0.0,0.0,0.0,0.0,0.0,0.0,0.0,0.0,0.0,0.0,0.0,0.0,0.0,2.3939,2.5226,2.5226,2.4017,2.2594,2.1797,0.0,0.0,1.7422,1.7012,1.6863,1.7383,1.8066,1.8578,1.8792,0.0,0.0,0.0,0.0,0.0,0.0,0.0,0.0,0.0,0.0,0.0,0.0,0.0,0.0,3.3418,3.3418,3.3418,3.3418,3.3418,3.3418,3.3418,3.3418,3.3418,3.3418,3.3418,3.3418,3.3418,3.3418,3.3418,0.0,0.0,0.0,0.0,3.3418,3.3418,3.3418,3.3418,3.3418,3.3418,3.3418,3.3418,3.3418,0.0,0.0,0.0,0.0,0.0,0.0,0.0,0.0,0.0,0.0,1.7734,1.7988,1.8828,1.8379,1.8164,0.0,0.0,0.0,0.0,0.0,0.0,0.0,0.0,0.0,1.7871,1.8828,1.9785,2.0723,2.2383,2.3281,2.3496,2.3398,2.2187,2.0116,1.9316,1.8086,1.6531,1.6434,1.6395,1.6356,1.6055,1.5948,0.0,0.0,0.0,0.0,1.6035,1.6613,0.0,0.0,0.0,0.0,0.0,0.0,0.0,0.0,1.7187,1.7715,1.8516,0.0,2.0801,2.0801,2.0488,1.9961,0.0,1.8457,0.0,0.0,0.0,0.0,0.0,0.0,0.0,0.0,0.0,0.0,0.0,0.0,0.0,0.0,0.0,0.0,0.0,0.0,0.0,0.0,0.0,3.3418,3.3418,3.3418,3.3418,3.3418,3.3418,3.3418,3.3418,3.3418,3.3418,3.3418,3.3418,3.3418,3.3418,3.3418,3.3418,0.0,0.0,0.0,3.3418,3.3418,3.3418,3.3418,3.3418,3.3418,3.3418,3.3418,3.3418,3.3418,0.0,0.0,0.0,0.0,0.0,0.0,0.0,0.0,0.0,0.0,0.0,0.0,0.0,0.0,0.0,0.0,0.0,0.0,0.0,0.0,0.0,0.0,0.0,1.8105,1.8266,1.918,2.0312,2.1738,2.293,2.3906,2.4668,2.4277,2.3047,2.1134,1.9434,1.8086,1.7012,1.6785,1.6707,1.6687,1.6465,0.0,0.0,0.0,0.0,0.0,1.6133,1.668,0.0,1.8223,1.8867,1.916,0.0,0.0,0.0,0.0,1.6445,1.6523,1.675,1.8144,1.957,1.957,1.9434,1.916,1.8691,0.0,0.0,0.0,0.0,0.0,0.0,0.0,0.0,0.0,2.2617,0.0,0.0,0.0,0.0,0.0,0.0,0.0,0.0,0.0,0.0,0.0,0.0,3.3418,3.3418,3.3418,3.3418,3.3418,3.3418,3.3418,3.3418,3.3418,3.3418,3.3418,3.3418,3.3418,3.3418,3.3418,3.3418,0.0,0.0,0.0,3.3418,3.3418,3.3418,3.3418,3.3418,3.3418,3.3418,3.3418,3.3418,3.3418,0.0,0.0,0.0,0.0,0.0,0.0,0.0,0.0,0.0,0.0,0.0,0.0,0.0,0.0,0.0,0.0,0.0,0.0,0.0,0.0,0.0,0.0,1.8047,1.8227,1.8773,1.9199,2.0586,2.3003,2.3398,2.4316,2.5674,2.5234,2.3926,2.1875,1.9394,1.7988,1.7461,1.709,1.6902,1.6882,1.6824,0.0,0.0,0.0,0.0,0.0,0.0,0.0,0.0,1.8792,1.9355,1.9238,1.8984,0.0,0.0,0.0,0.0,0.0,1.6144,1.8203,2.0098,1.9648,1.9414,1.9238,1.9043,0.0,0.0,0.0,0.0,0.0,0.0,2.0039,0.0,0.0,0.0,0.0,0.0,0.0,0.0,0.0,0.0,0.0,0.0,0.0,0.0,0.0,0.0,3.3418,3.3418,3.3418,3.3418,3.3418,3.3418,3.3418,3.3418,3.3418,3.3418,3.3418,3.3418,3.3418,3.3418,3.3418,3.3418,3.3418,0.0,0.0,3.3418,3.3418,3.3418,3.3418,3.3418,3.3418,3.3418,3.3418,3.3418,3.3418,0.0,0.0,0.0,0.0,0.0,0.0,0.0,0.0,0.0,0.0,0.0,0.0,0.0,0.0,0.0,0.0,0.0,0.0,0.0,0.0,0.0,1.8481,1.8169,1.8555,1.9687,1.9785,2.0742,2.2617,2.4387,2.544,2.5713,2.709,2.5801,2.2344,2.0449,1.8984,1.791,1.7852,1.7812,1.7793,1.7422,0.0,0.0,0.0,0.0,0.0,0.0,0.0,0.0,1.7077,1.8144,1.9023,1.7545,0.0,0.0,0.0,0.0,0.0,1.6855,1.9336,2.0977,1.8418,1.8535,1.9004,1.7964,0.0,0.0,0.0,0.0,0.0,0.0,2.0898,2.1348,0.0,0.0,0.0,0.0,0.0,0.0,0.0,0.0,0.0,0.0,0.0,0.0,0.0,0.0,3.3418,3.3418,3.3418,3.3418,3.3418,3.3418,3.3418,3.3418,3.3418,3.3418,3.3418,3.3418,3.3418,3.3418,3.3418,3.3418,3.3418,0.0,3.3418,3.3418,3.3418,3.3418,3.3418,3.3418,3.3418,3.3418,3.3418,3.3418,3.3418,0.0,0.0,0.0,0.0,0.0,0.0,0.0,0.0,0.0,0.0,0.0,0.0,0.0,0.0,0.0,0.0,0.0,0.0,0.0,0.0,1.875,1.9648,1.9492,1.9668,2.0254,2.1406,2.2637,2.3887,2.584,2.6894,2.7109,2.6484,2.4766,2.209,2.0352,1.8984,1.8008,1.8008,1.8008,1.7988,0.0,0.0,0.0,0.0,0.0,0.0,0.0,0.0,0.0,0.0,1.8262,1.9062,1.7779,0.0,0.0,0.0,0.0,0.0,1.6535,1.8359,2.0019,1.957,2.1309,2.2969,2.2383,2.1699,0.0,0.0,0.0,0.0,0.0,0.0,2.5156,2.9492,0.0,0.0,0.0,0.0,0.0,0.0,0.0,0.0,0.0,0.0,0.0,0.0,0.0,0.0,3.3418,3.3418,3.3418,3.3418,3.3418,3.3418,3.3418,3.3418,3.3418,3.3418,3.3418,3.3418,3.3418,3.3418,3.3418,3.3418,0.0,3.3418,3.3418,3.3418,3.3418,3.3418,3.3418,3.3418,3.3418,3.3418,3.3418,3.3418,0.0,0.0,0.0,0.0,0.0,0.0,0.0,0.0,0.0,0.0,0.0,0.0,0.0,0.0,0.0,0.0,0.0,0.0,0.0,1.8422,1.9219,2.0546,2.0899,2.129,2.1758,2.3203,2.4551,2.5869,2.7266,2.8184,2.8535,2.6152,2.4004,2.2151,2.0371,1.9004,1.8008,1.8008,1.8008,1.8008,0.0,0.0,0.0,0.0,0.0,0.0,0.0,0.0,0.0,0.0,0.0,0.0,0.0,0.0,0.0,1.7063,1.6398,1.6339,1.6731,1.8008,1.9592,2.1229,2.3281,2.5117,2.6016,2.498,2.3633,0.0,0.0,0.0,0.0,2.6152,0.0,0.0,0.0,0.0,0.0,0.0,0.0,0.0,0.0,0.0,0.0,0.0,0.0,0.0,0.0,0.0,3.3418,3.3418,3.3418,3.3418,3.3418,3.3418,3.3418,3.3418,3.3418,3.3418,3.3418,3.3418,3.3418,3.3418,3.3418,3.3418,3.3418,3.3418,3.3418,3.3418,3.3418,3.3418,3.3418,3.3418,3.3418,3.3418,3.3418,3.3418,0.0,0.0,0.0,0.0,0.0,0.0,0.0,0.0,0.0,0.0,0.0,0.0,0.0,0.0,0.0,0.0,0.0,0.0,0.0,1.8578,1.9219,2.0546,2.1719,2.332,2.5284,2.4707,2.5586,2.8066,2.8574,2.9043,2.9489,2.7656,2.5488,2.3032,2.129,1.9551,1.8008,1.8008,1.8008,1.8008,1.8008,0.0,0.0,0.0,0.0,0.0,0.0,0.0,0.0,0.0,0.0,0.0,0.0,0.0,1.8539,1.8027,1.7272,1.6999,1.8613,2.0039,2.1327,2.2633,2.1639,2.1328,2.4922,2.3828,2.2715,2.4933,0.0,0.0,0.0,2.8789,0.0,0.0,0.0,0.0,0.0,0.0,0.0,0.0,0.0,0.0,0.0,0.0,0.0,0.0,0.0,0.0,3.3418,3.3418,3.3418,3.3418,3.3418,3.3418,3.3418,3.3418,3.3418,3.3418,3.3418,3.3418,3.3418,3.3418,3.3418,3.3418,3.3418,3.3418,3.3418,3.3418,3.3418,3.3418,3.3418,3.3418,3.3418,3.3418,3.3418,3.3418,0.0,0.0,0.0,0.0,0.0,0.0,0.0,0.0,0.0,0.0,0.0,0.0,0.0,0.0,0.0,0.0,0.0,0.0,0.0,1.875,1.9629,2.0918,2.2227,2.3672,2.5293,2.6562,2.7949,2.9473,2.9922,2.9941,2.9567,2.6992,2.4863,2.3066,2.1055,1.9805,1.916,1.8598,1.8555,1.875,1.8223,1.7467,0.0,0.0,0.0,0.0,0.0,0.0,0.0,0.0,1.6738,1.7656,1.7044,1.8008,1.9163,1.7988,1.7383,1.7285,1.793,1.9629,2.1444,2.2457,2.2539,2.334,2.7226,2.7773,2.7598,2.8027,2.8691,0.0,0.0,0.0,0.0,0.0,0.0,0.0,0.0,0.0,0.0,0.0,0.0,0.0,0.0,0.0,0.0,0.0,0.0,0.0,3.3418,3.3418,3.3418,3.3418,3.3418,3.3418,3.3418,3.3418,3.3418,3.3418,3.3418,3.3418,3.3418,3.3418,3.3418,3.3418,3.3418,3.3418,3.3418,3.3418,3.3418,3.3418,3.3418,3.3418,3.3418,3.3418,3.3418,3.3418,0.0,0.0,0.0,0.0,0.0,0.0,0.0,0.0,0.0,0.0,0.0,0.0,0.0,0.0,0.0,0.0,0.0,0.0,1.8169,1.875,1.9668,2.0957,2.2148,2.3462,2.4824,2.7402,2.9062,2.9805,3.0527,3.0234,2.8961,2.6445,2.4648,2.3413,2.1249,2.041,2.0469,1.9316,1.9023,1.9219,1.8359,1.7578,0.0,0.0,0.0,0.0,0.0,0.0,0.0,0.0,1.6523,1.7363,1.7181,1.8203,1.9316,1.8281,1.8477,1.8965,1.8848,2.0195,2.1892,2.3203,2.375,2.4961,2.8711,2.9629,2.9883,3.0625,3.0937,3.082,2.9902,0.0,0.0,0.0,0.0,0.0,0.0,0.0,0.0,0.0,0.0,0.0,0.0,0.0,0.0,0.0,0.0,0.0,0.0,3.3418,3.3418,3.3418,3.3418,3.3418,3.3418,3.3418,3.3418,3.3418,3.3418,3.3418,3.3418,3.3418,3.3418,3.3418,3.3418,3.3418,3.3418,3.3418,3.3418,3.3418,3.3418,3.3418,3.3418,3.3418,3.3418,3.3418,0.0,0.0,0.0,0.0,0.0,0.0,0.0,0.0,0.0,0.0,0.0,0.0,0.0,0.0,0.0,0.0,0.0,0.0,1.8578,1.8598,1.9163,2.0527,2.1447,2.2676,2.4355,2.6914,2.8476,2.8926,3.0234,2.9766,2.7669,2.6328,2.5206,2.4316,2.2146,2.1484,2.1777,2.0039,1.9297,1.9219,1.8359,1.7773,1.7344,0.0,0.0,0.0,0.0,0.0,0.0,0.0,1.6426,1.6476,1.8629,1.8984,1.8695,1.916,2.0801,2.2383,2.1953,2.2187,2.3027,2.5137,0.0,0.0,2.8863,2.8262,2.8262,3.2539,3.2402,3.1523,3.1523,0.0,0.0,0.0,0.0,0.0,0.0,0.0,0.0,0.0,0.0,0.0,0.0,0.0,0.0,0.0,0.0,0.0,0.0,3.3418,3.3418,3.3418,3.3418,3.3418,3.3418,3.3418,3.3418,3.3418,3.3418,3.3418,3.3418,3.3418,3.3418,3.3418,3.3418,3.3418,3.3418,3.3418,3.3418,3.3418,3.3418,3.3418,3.3418,3.3418,3.3418,3.3418,0.0,0.0,0.0,0.0,0.0,0.0,0.0,0.0,0.0,0.0,0.0,0.0,0.0,0.0,0.0,0.0,0.0,0.0,1.8598,1.8598,1.8909,1.9629,2.0801,2.1619,2.2126,2.4121,2.6523,2.9375,2.9453,2.8418,2.6289,2.5586,2.4648,2.3452,2.2808,2.2324,2.1816,2.0703,2.0233,2.0155,1.9258,1.8477,1.7773,0.0,0.0,0.0,0.0,0.0,0.0,0.0,0.0,0.0,1.7285,1.8403,1.9375,1.8613,1.9062,1.9592,1.8906,2.123,0.0,2.3516,0.0,0.0,0.0,3.0098,0.0,0.0,3.2656,3.1875,3.1582,0.0,0.0,0.0,0.0,0.0,0.0,0.0,0.0,0.0,0.0,0.0,0.0,0.0,0.0,0.0,0.0,0.0,0.0,3.3418,3.3418,3.3418,3.3418,3.3418,3.3418,3.3418,3.3418,3.3418,3.3418,3.3418,3.3418,3.3418,3.3418,3.3418,3.3418,3.3418,3.3418,3.3418,3.3418,3.3418,3.3418,3.3418,3.3418,3.3418,3.3418,3.3418,0.0,0.0,0.0,0.0,0.0,0.0,0.0,0.0,0.0,0.0,1.85,1.887,0.0,0.0,0.0,0.0,0.0,0.0,0.0,1.8598,1.887,1.9512,2.0449,2.1367,2.2185,2.3418,2.5019,2.7012,2.7266,2.6562,2.4961,2.5215,2.5019,2.4434,2.4563,2.4199,2.334,2.2109,2.1289,2.0762,1.9883,1.9121,1.8457,0.0,0.0,0.0,0.0,0.0,0.0,0.0,0.0,0.0,1.659,1.7584,1.8695,1.9124,1.967,2.043,2.1641,2.3672,0.0,2.6621,2.875,3.084,3.1699,0.0,0.0,0.0,0.0,3.2578,3.2324,3.291,0.0,0.0,0.0,0.0,0.0,0.0,0.0,0.0,0.0,0.0,0.0,0.0,0.0,0.0,0.0,0.0,0.0,3.3418,3.3418,3.3418,3.3418,3.3418,3.3418,3.3418,3.3418,3.3418,3.3418,3.3418,3.3418,3.3418,3.3418,3.3418,3.3418,3.3418,3.3418,3.3418,3.3418,3.3418,3.3418,3.3418,3.3418,3.3418,3.3418,3.3418,0.0,0.0,1.8008,1.8008,0.0,0.0,0.0,0.0,0.0,0.0,1.8305,1.8715,0.0,0.0,0.0,0.0,0.0,0.0,0.0,1.8676,1.9046,1.9941,2.0469,2.1701,2.3633,2.3965,2.3705,2.2925,2.4297,2.4538,2.3652,2.5078,2.5937,2.6289,2.6758,2.6445,2.5401,2.3666,2.2223,2.1054,2.0254,1.9668,1.9199,1.834,0.0,0.0,0.0,0.0,0.0,0.0,0.0,0.0,1.6414,1.6726,1.7291,2.004,2.16,2.3301,2.7168,2.7715,2.8144,3.209,3.1777,0.0,3.2969,3.3418,3.3418,3.3418,0.0,3.3418,3.3418,0.0,0.0,0.0,0.0,0.0,0.0,0.0,0.0,0.0,0.0,0.0,0.0,0.0,0.0,0.0,0.0,0.0,0.0,3.3418,3.3418,3.3418,3.3418,3.3418,3.3418,3.3418,3.3418,3.3418,3.3418,3.3418,3.3418,3.3418,3.3418,3.3418,3.3418,3.3418,3.3418,3.3418,3.3418,3.3418,3.3418,3.3418,3.3418,3.3418,3.3418,3.3418,0.0,0.0,1.8008,1.8008,0.0,0.0,0.0,0.0,0.0,0.0,0.0,0.0,0.0,1.9082,0.0,0.0,0.0,0.0,0.0,1.9336,1.9531,2.0429,2.1504,2.2305,2.2773,2.2165,2.1795,2.16,2.3281,2.3457,2.2344,2.4668,2.5605,2.5439,2.6172,2.5664,2.4102,2.234,2.1289,2.0664,2.0137,1.9668,1.9199,1.834,1.7447,0.0,0.0,0.0,0.0,0.0,0.0,0.0,1.6414,1.6941,1.7363,1.8027,2.0019,2.2148,2.2734,2.5596,0.0,0.0,3.1562,3.2851,3.332,3.3418,3.3418,3.3418,3.3418,0.0,0.0,0.0,0.0,0.0,0.0,0.0,0.0,0.0,0.0,0.0,0.0,0.0,0.0,0.0,0.0,0.0,0.0,0.0,3.3418,3.3418,3.3418,3.3418,3.3418,3.3418,3.3418,3.3418,3.3418,0.0,3.3418,3.3418,3.3418,3.3418,3.3418,3.3418,3.3418,3.3418,3.3418,3.3418,3.3418,3.3418,3.3418,3.3418,3.3418,3.3418,3.3418,3.3418,0.0,0.0,0.0,0.0,0.0,0.0,0.0,0.0,0.0,0.0,0.0,0.0,0.0,1.8812,0.0,0.0,1.9414,0.0,0.0,0.0,1.9863,2.1173,2.2246,2.2617,2.2227,2.1562,2.0995,2.0566,2.1504,2.1816,2.1621,2.3789,2.4902,2.5165,2.5996,2.5312,2.3437,2.2519,2.1543,2.0605,2.0547,2.0039,1.9219,1.8555,1.7519,1.6328,1.5644,0.0,0.0,0.0,0.0,0.0,0.0,0.0,1.6719,1.8164,1.9277,2.0742,2.4023,0.0,0.0,3.084,0.0,3.3418,3.3418,3.3418,3.3418,3.3418,0.0,0.0,0.0,0.0,0.0,0.0,0.0,0.0,0.0,0.0,0.0,0.0,0.0,0.0,0.0,0.0,0.0,0.0,0.0,3.3418,3.3418,3.3418,3.3418,3.3418,3.3418,3.3418,3.3418,3.3418,3.3418,3.3418,3.3418,3.3418,3.3418,3.3418,3.3418,3.3418,3.3418,3.3418,3.3418,3.3418,3.3418,3.3418,3.3418,3.3418,3.3418,3.3418,3.3418,3.3418,0.0,0.0,0.0,0.0,0.0,0.0,0.0,0.0,0.0,0.0,0.0,0.0,0.0,0.0,1.8754,0.0,0.0,0.0,0.0,0.0,0.0,2.1699,2.2519,2.2516,2.1797,2.1269,2.0605,1.9922,1.9844,2.0332,2.1346,2.3027,2.4258,2.5145,2.5762,2.498,2.3125,2.2754,2.168,2.0292,2.0566,1.998,1.8906,1.8442,1.7363,1.6026,1.5566,1.541,1.543,1.5508,0.0,0.0,0.0,0.0,1.6016,1.8516,1.8867,1.9766,2.584,0.0,2.832,3.2402,3.3418,0.0,3.3418,3.3418,0.0,0.0,0.0,0.0,0.0,0.0,0.0,0.0,0.0,0.0,0.0,0.0,0.0,0.0,0.0,0.0,0.0,0.0,0.0,0.0,0.0,3.3418,3.3418,3.3418,3.3418,3.3418,3.3418,3.3418,3.3418,3.3418,3.3418,3.3418,3.3418,3.3418,3.3418,3.3418,3.3418,3.3418,3.3418,3.3418,3.3418,3.3418,3.3418,3.3418,3.3418,3.3418,3.3418,3.3418,3.3418,3.3418,0.0,0.0,0.0,0.0,0.0,0.0,0.0,0.0,0.0,0.0,1.8559,1.8598,0.0,0.0,0.0,1.8676,1.9023,0.0,0.0,0.0,0.0,2.1249,2.1797,2.1816,2.1288,2.0469,2.0039,1.9922,1.9551,2.0195,2.1836,2.3164,2.4258,2.5106,2.4805,2.4102,2.2984,2.1093,1.9748,1.8831,1.8555,1.8125,1.7598,1.7116,1.6602,1.6026,1.5566,1.541,1.5469,1.587,1.6007,0.0,0.0,0.0,1.6085,1.6496,1.8335,2.0468,0.0,0.0,2.9434,0.0,3.3418,3.3418,0.0,0.0,0.0,0.0,0.0,0.0,0.0,0.0,0.0,0.0,0.0,0.0,0.0,0.0,0.0,0.0,0.0,0.0,0.0,0.0,0.0,0.0,3.3418,3.3418,3.3418,3.3418,3.3418,3.3418,3.3418,3.3418,3.3418,3.3418,3.3418,3.3418,3.3418,3.3418,3.3418,3.3418,3.3418,3.3418,3.3418,3.3418,3.3418,3.3418,3.3418,3.3418,3.3418,3.3418,3.3418,3.3418,3.3418,3.3418,0.0,0.0,0.0,0.0,0.0,0.0,0.0,0.0,0.0,0.0,0.0,1.9124,0.0,0.0,0.0,1.8266,0.0,0.0,0.0,0.0,0.0,2.084,2.1035,2.1094,2.0859,2.0,1.9687,1.9922,1.9221,2.0059,2.2246,2.2812,2.3535,2.4316,2.3652,2.2734,2.1602,2.0176,1.9062,1.8247,1.8086,1.8633,1.9336,1.7408,1.7344,1.7969,1.6094,1.541,1.5469,1.5948,1.6085,1.6085,1.6085,0.0,0.0,0.0,1.6992,0.0,2.2539,2.6309,2.9941,0.0,3.3418,0.0,0.0,0.0,0.0,0.0,0.0,0.0,0.0,0.0,0.0,0.0,0.0,0.0,0.0,0.0,0.0,0.0,0.0,0.0,0.0,0.0,0.0,0.0,3.3418,3.3418,3.3418,3.3418,3.3418,3.3418,3.3418,3.3418,3.3418,3.3418,3.3418,3.3418,3.3418,3.3418,3.3418,3.3418,3.3418,3.3418,3.3418,3.3418,3.3418,3.3418,3.3418,3.3418,3.3418,3.3418,3.3418,3.3418,3.3418,3.3418,0.0,0.0,0.0,0.0,0.0,0.0,0.0,0.0,0.0,0.0,0.0,0.0,0.0,0.0,0.0,0.0,1.8008,0.0,0.0,0.0,0.0,2.0253,2.0273,2.0233,2.0078,1.9453,1.9277,1.9553,1.9124,2.0196,2.2676,2.2891,2.3516,2.4394,2.332,2.2168,2.0977,1.9785,1.8848,1.8169,1.8516,1.9551,2.0703,1.9221,1.9631,2.0664,1.7637,1.6562,1.6504,0.0,0.0,1.6085,0.0,0.0,0.0,0.0,0.0,0.0,0.0,0.0,2.8398,0.0,0.0,0.0,0.0,0.0,0.0,0.0,0.0,0.0,0.0,0.0,0.0,0.0,0.0,0.0,0.0,0.0,0.0,0.0,0.0,0.0,0.0,0.0,0.0,0.0,3.3418,3.3418,3.3418,3.3418,3.3418,3.3418,3.3418,3.3418,3.3418,3.3418,3.3418,3.3418,3.3418,3.3418,3.3418,3.3418,3.3418,3.3418,3.3418,3.3607,3.3965,3.3607,3.365,3.3965,3.3544,3.3418,3.3418,3.3418,3.3418,3.3418,0.0,0.0,0.0,0.0,0.0,0.0,0.0,0.0,0.0,0.0,0.0,0.0,1.9258,1.8887,1.8422,1.8047,1.8008,1.8184,1.8578,1.8637,0.0,1.9336,1.9355,0.0,1.8715,1.8656,1.8656,1.8676,1.9436,2.0917,2.3081,2.3881,2.5,2.6172,2.4473,2.3242,2.2266,2.0176,1.9023,1.8676,1.9941,2.0254,2.0273,2.2988,2.4082,2.3789,2.0762,1.9687,0.0,0.0,0.0,0.0,0.0,0.0,0.0,0.0,0.0,0.0,0.0,2.1584,0.0,0.0,0.0,0.0,0.0,0.0,0.0,0.0,0.0,0.0,0.0,0.0,0.0,0.0,0.0,0.0,0.0,0.0,0.0,0.0,0.0,0.0,0.0,0.0,0.0,0.0,3.3418,3.3418,3.3418,3.3418,3.3418,3.3418,3.3418,3.3418,3.3418,3.3418,3.3418,3.3418,3.3418,3.3418,3.3418,3.3418,3.3418,3.3418,3.3418,3.4258,3.556,3.4007,3.432,3.5499,3.4027,3.3418,3.3418,3.3418,3.3418,3.3418,0.0,0.0,0.0,0.0,0.0,0.0,0.0,0.0,0.0,0.0,0.0,0.0,0.0,1.8695,1.8422,1.8047,1.8008,1.8066,1.8223,1.8188,0.0,1.8812,1.8613,1.8516,1.8598,1.8344,1.8188,1.8188,1.8535,1.9648,2.1504,2.2383,2.334,2.4343,2.3945,2.3477,2.2754,2.0019,1.8734,1.8715,2.0039,2.1797,2.3549,2.3008,2.5019,2.7526,2.3164,0.0,0.0,0.0,0.0,0.0,0.0,0.0,0.0,0.0,0.0,0.0,0.0,0.0,0.0,0.0,0.0,0.0,0.0,0.0,0.0,0.0,0.0,0.0,0.0,0.0,0.0,0.0,0.0,0.0,0.0,0.0,0.0,0.0,0.0,0.0,0.0,0.0,0.0,0.0,0.0,3.3418,3.3418,3.3418,3.3418,3.3418,3.3418,3.3418,3.3418,3.3418,3.3418,3.3418,3.3418,3.3418,3.3418,3.3418,3.3418,3.3418,3.3418,3.3713,3.432,3.4736,3.4674,3.432,3.4736,3.432,3.3418,3.3418,3.3418,3.3418,0.0,0.0,0.0,0.0,0.0,0.0,0.0,0.0,0.0,1.8578,0.0,0.0,0.0,0.0,1.8792,1.8247,1.8188,1.813,1.8027,1.8008,1.8144,1.8383,1.813,1.8144,1.8383,1.8144,1.7949,1.7793,1.8086,1.8945,2.041,2.1406,2.2422,2.3403,2.3223,2.3242,2.3247,2.0566,1.9475,1.967,2.1855,2.3594,2.4855,2.5215,2.7109,0.0,0.0,0.0,0.0,0.0,0.0,0.0,0.0,0.0,0.0,0.0,0.0,0.0,1.7383,0.0,0.0,0.0,0.0,0.0,0.0,0.0,0.0,0.0,0.0,0.0,0.0,0.0,0.0,0.0,0.0,0.0,0.0,0.0,0.0,0.0,0.0,0.0,0.0,0.0,0.0,0.0,0.0,0.0,3.3418,3.3418,3.3418,3.3418,3.3418,3.3418,3.3418,3.3418,3.3418,3.3418,3.3418,3.3418,3.3418,3.3418,3.3418,3.3418,3.3418,3.3713,3.432,3.5396,3.552,3.5046,3.556,3.515,3.4133,3.3607,3.3418,3.3418,0.0,0.0,0.0,0.0,0.0,0.0,0.0,0.0,1.8184,1.8559,0.0,0.0,0.0,0.0,0.0,1.8734,1.8656,1.8442,1.8047,1.8008,1.7988,1.7988,0.0,0.0,1.8008,1.8008,1.7793,1.7363,1.8203,1.8987,1.9863,2.1172,2.2461,2.3613,2.2402,2.2539,2.3574,2.1875,2.1151,2.1522,2.5449,2.546,2.39,0.0,0.0,0.0,2.7988,2.75,0.0,2.6133,0.0,0.0,0.0,0.0,0.0,0.0,0.0,0.0,0.0,0.0,0.0,0.0,0.0,0.0,2.9902,0.0,0.0,0.0,0.0,0.0,0.0,0.0,0.0,0.0,0.0,0.0,0.0,0.0,0.0,0.0,0.0,0.0,0.0,0.0,0.0,0.0,3.3418,3.3418,3.3418,3.3418,3.3418,3.3418,3.3418,3.3418,3.3418,3.3418,3.3418,3.3418,3.3418,3.3418,3.3418,3.3418,3.3481,3.3481,3.3544,3.4425,3.5867,3.5867,3.676,3.8045,3.6517,3.5867,3.5622,3.407,3.3418,3.3418,0.0,0.0,0.0,0.0,0.0,0.0,1.8047,1.8227,1.8461,0.0,0.0,0.0,1.9297,1.9941,2.0331,2.0059,1.9746,1.9085,1.8086,1.7734,1.7559,1.7559,1.7559,1.7695,1.8008,1.8008,1.7656,1.6882,1.7461,1.7852,1.8105,1.9082,2.0059,2.0977,2.0997,2.1173,2.1407,1.9961,2.004,2.1502,2.5117,2.668,0.0,0.0,0.0,0.0,0.0,3.0098,2.8555,0.0,2.6172,2.1035,0.0,0.0,0.0,0.0,0.0,0.0,1.5332,0.0,0.0,0.0,0.0,0.0,2.4414,2.7129,0.0,0.0,0.0,0.0,0.0,0.0,0.0,0.0,0.0,0.0,0.0,0.0,0.0,0.0,0.0,0.0,0.0,0.0,0.0,0.0,3.3418,3.3418,3.3418,3.3418,3.3418,3.3418,3.3418,3.3418,3.3418,3.3418,3.3418,3.3418,3.3418,3.3418,3.3418,3.4612,3.515,3.5211,3.6356,3.7144,3.7566,3.7566,3.7805,3.8283,3.8994,3.7843,3.5745,3.5335,3.4383,3.3418,0.0,0.0,0.0,0.0,0.0,1.9355,1.9121,1.9277,1.9434,0.0,0.0,0.0,2.0332,2.1133,2.1426,2.0898,2.0273,1.9453,1.8305,1.7715,1.7383,1.7383,1.7383,1.7656,1.8227,1.8105,1.7676,1.7012,1.7266,1.722,1.6887,1.7891,1.852,1.8887,1.9316,1.959,1.9668,1.8344,1.9007,0.0,2.5684,0.0,0.0,3.123,3.2949,0.0,0.0,0.0,3.082,3.2754,2.8711,0.0,0.0,0.0,0.0,0.0,0.0,0.0,0.0,0.0,0.0,0.0,0.0,0.0,2.3555,2.5898,2.8125,0.0,0.0,0.0,0.0,0.0,0.0,0.0,0.0,0.0,0.0,0.0,0.0,0.0,0.0,0.0,0.0,3.3418,3.3418,3.3418,3.3418,3.3418,3.3418,3.3418,3.3418,3.3418,3.3418,3.3418,3.3418,3.3418,3.3418,3.3418,3.3418,3.3776,3.4425,3.5376,3.6173,3.682,3.7805,3.858,3.9229,3.9229,3.9229,3.9288,4.0245,3.903,3.6721,3.6051,3.4798,3.3418,0.0,0.0,1.8754,1.9277,2.0116,2.0703,2.0742,2.0742,2.0801,0.0,2.0997,2.1388,2.2285,2.293,2.2789,2.1639,2.0605,1.9668,1.8734,1.7832,1.7357,1.7383,1.7383,1.7754,1.852,1.8208,1.7832,1.7305,1.7305,1.6946,1.6202,1.7285,1.7637,1.7402,1.7676,1.7993,1.8325,1.7291,0.0,2.1271,2.6367,2.7246,0.0,0.0,3.2168,3.0586,3.2891,3.334,3.3105,3.4746,3.1836,0.0,0.0,0.0,0.0,0.0,1.7904,0.0,0.0,0.0,0.0,0.0,0.0,0.0,2.459,2.5352,2.6191,0.0,0.0,0.0,0.0,0.0,0.0,0.0,0.0,0.0,0.0,0.0,0.0,0.0,0.0,0.0,3.3418,3.3418,3.3418,3.3418,3.3418,3.3418,3.3418,3.3418,3.3418,3.3418,3.3418,3.3418,3.3418,3.3418,3.3418,3.3418,3.3607,3.4445,3.5806,3.6173,3.7122,3.8461,3.8639,3.9522,4.088,4.088,4.088,4.088,4.088,3.9756,3.8045,3.6578,3.4922,3.3418,0.0,0.0,1.8851,1.9648,2.0527,2.123,2.1582,2.1662,2.1992,2.3027,2.3457,2.4141,2.5371,2.4707,2.4062,2.3809,2.2029,2.043,1.9238,1.7715,1.7012,1.7363,1.7383,1.7617,1.8125,1.8344,1.7935,1.6824,1.6824,1.6746,1.657,1.6535,1.6809,1.7363,1.675,1.668,1.7096,1.7545,0.0,2.2324,2.4434,0.0,2.8594,3.2461,3.4277,3.4824,3.5332,3.4551,3.3047,3.1387,3.0742,2.9805,0.0,0.0,0.0,0.0,0.0,0.0,0.0,0.0,0.0,0.0,0.0,0.0,1.918,2.1211,2.3223,0.0,0.0,0.0,0.0,0.0,0.0,0.0,0.0,0.0,0.0,0.0,0.0,0.0,0.0,0.0,3.3418,3.3418,3.3418,3.3418,3.3418,3.3418,3.3418,3.3418,3.3418,3.3418,3.3418,3.3418,3.3418,3.3418,3.3418,3.3418,3.4736,3.5499,3.5867,3.8498,3.9814,4.0187,4.1476,4.2263,4.2544,4.2544,4.2544,4.2544,4.2544,4.0765,3.8164,3.7865,3.5888,3.3418,0.0,1.8948,1.9609,2.0703,2.1621,2.2402,2.3047,2.3144,2.3457,2.4316,2.5,2.541,2.541,2.5,2.4394,2.3535,2.2048,2.0644,1.9375,1.7891,1.7148,1.7396,1.7168,1.7559,1.8633,1.8437,1.7974,1.733,1.7168,1.6719,1.6044,1.6289,1.7324,1.8922,1.6966,1.7298,1.9199,0.0,1.8535,2.123,2.4883,0.0,3.0859,3.3887,3.5449,3.6016,3.6016,3.5469,3.4512,3.3223,3.1797,0.0,0.0,2.6863,2.5531,0.0,2.2941,2.3378,0.0,0.0,0.0,1.9707,0.0,0.0,0.0,2.0762,2.209,0.0,0.0,0.0,0.0,0.0,0.0,0.0,0.0,0.0,0.0,0.0,0.0,0.0,0.0,0.0,3.3418,3.3418,3.3418,3.3418,3.3418,3.3418,3.3418,3.3418,3.3418,3.3418,3.3418,3.3418,3.3418,3.3418,3.3418,3.3418,3.5026,3.6234,3.7084,3.9522,4.1019,4.1842,4.2681,4.2986,4.2986,4.2986,4.2544,4.1785,4.1785,4.0361,3.8104,3.7303,3.5458,3.3418,1.8559,1.9221,2.0176,2.1426,2.2422,2.332,2.416,2.4297,2.4512,2.5117,2.6172,2.6543,2.5644,2.5918,2.5625,2.4238,2.3184,2.1934,2.0371,1.9004,1.832,1.8477,1.7486,1.7818,1.9746,1.8613,1.7891,1.7637,1.7305,1.6543,1.543,1.6102,1.7637,1.9646,1.7709,1.8453,2.0977,0.0,0.0,2.1328,0.0,2.918,3.0976,3.3828,3.5059,3.5332,3.584,3.6016,3.5976,3.5625,3.3144,3.027,3.0754,2.9138,0.0,0.0,0.0,0.0,0.0,0.0,0.0,0.0,0.0,1.9728,0.0,0.0,0.0,0.0,0.0,0.0,0.0,0.0,0.0,0.0,0.0,0.0,0.0,0.0,0.0,0.0,0.0,0.0,0.0,3.2773,3.2891,3.3379,3.2969,3.2891,3.3398,3.3418,3.3418,3.3418,3.3418,3.3418,3.3418,3.3418,3.3544,3.3902,3.552,3.7122,3.8698,4.0361,4.1785,4.2986,4.2986,4.2986,4.2986,4.2986,4.2263,4.1019,4.0707,3.9405,3.7544,3.6295,3.4798,3.3418,1.8461,1.9023,1.9648,2.0605,2.1758,2.2871,2.373,2.3867,2.4297,2.546,2.7402,2.8867,2.9456,2.9961,3.0156,2.9961,2.8437,2.6445,2.4004,0.0,2.1699,2.2418,1.9475,1.9043,2.1543,1.9238,1.7441,1.632,1.6261,1.5968,1.541,1.5508,1.5918,1.6692,1.8613,0.0,0.0,0.0,2.334,0.0,2.7441,2.6688,0.0,2.9434,3.1582,3.291,3.5195,3.6016,3.5781,0.0,3.3144,3.1777,0.0,2.9293,3.0722,0.0,0.0,0.0,0.0,0.0,0.0,0.0,2.1328,0.0,0.0,0.0,0.0,0.0,0.0,0.0,0.0,0.0,0.0,0.0,0.0,0.0,0.0,0.0,0.0,0.0,0.0,0.0,0.0,3.0469,3.0957,3.3242,3.1309,3.1016,3.3301,3.3418,3.3418,3.3418,3.3418,3.3418,3.3418,3.3418,3.4133,3.556,3.7144,3.8757,4.0361,4.2012,4.2849,4.2986,4.2986,4.2986,4.2986,4.2986,4.2905,4.2625,4.1133,3.8735,3.6051,3.5867,3.4798,3.3418,1.8105,1.8828,0.0,2.0449,2.1445,2.2441,0.0,0.0,2.541,2.5654,2.7168,2.8242,2.8359,2.8535,0.0,0.0,0.0,2.6934,0.0,0.0,0.0,0.0,0.0,0.0,2.0352,1.8574,1.7246,1.6445,1.6222,1.587,1.541,1.541,1.6855,1.9509,2.0039,0.0,2.3652,0.0,2.4707,0.0,0.0,0.0,0.0,3.1152,3.3926,3.4551,3.5625,3.6016,3.5918,0.0,3.3301,0.0,0.0,0.0,0.0,0.0,0.0,0.0,0.0,0.0,0.0,0.0,0.0,0.0,1.9219,0.0,1.8242,0.0,0.0,0.0,0.0,0.0,0.0,0.0,0.0,0.0,0.0,0.0,0.0,0.0,0.0,0.0,0.0,0.0,0.0,0.0,3.2422,3.2285,3.3359,3.3418,3.3418,3.3418,3.3418,3.3418,3.3418,3.3418,3.3713,3.4445,3.6963,3.8738,3.9785,4.2307,4.3639,4.394,4.394,4.394,4.394,4.394,4.3399,4.254,4.1814,4.0538,3.8807,3.7007,3.6019,3.5636,1.7447,0.0,0.0,0.0,0.0,0.0,0.0,2.4316,2.5371,2.5527,2.668,2.7598,2.7851,2.8418,0.0,0.0,2.9824,2.8984,0.0,0.0,2.4199,0.0,0.0,0.0,0.0,0.0,1.7227,1.6543,1.6094,1.584,1.5751,1.5644,1.7519,2.1016,0.0,2.3482,2.6797,0.0,2.6582,2.5908,2.793,2.8086,2.7715,3.2969,3.541,3.6016,3.6016,3.6016,3.5937,3.5469,3.3359,0.0,3.3672,0.0,0.0,0.0,0.0,0.0,2.53,0.0,0.0,0.0,0.0,0.0,0.0,0.0,0.0,0.0,0.0,0.0,0.0,0.0,0.0,0.0,0.0,0.0,0.0,0.0,0.0,0.0,0.0,0.0,0.0,0.0,0.0,0.0,0.0,3.2676,3.3379,3.3839,3.3839,3.3418,3.3839,3.3898,3.3594,3.3594,3.4077,3.5165,3.7475,3.9288,4.0615,4.2928,4.4011,4.3952,4.4386,4.4328,4.3952,4.4386,4.3952,4.2866,4.2484,4.24,4.2101,3.8781,3.7464,3.7318,1.657,1.7428,0.0,0.0,0.0,0.0,0.0,0.0,0.0,0.0,0.0,0.0,0.0,0.0,0.0,0.0,0.0,3.4668,3.215,0.0,2.8863,0.0,0.0,2.1836,0.0,0.0,0.0,0.0,1.5644,1.5829,1.6648,1.625,1.7012,1.8851,2.2207,2.4004,2.4707,2.7617,3.0254,3.2422,3.168,3.3086,3.5391,0.0,3.3848,3.6016,3.6016,0.0,0.0,3.4082,3.3144,0.0,0.0,0.0,0.0,0.0,0.0,0.0,0.0,0.0,0.0,2.1987,0.0,0.0,0.0,0.0,1.9727,0.0,0.0,0.0,0.0,0.0,0.0,0.0,0.0,0.0,0.0,0.0,0.0,0.0,0.0,0.0,0.0,0.0,0.0,0.0,0.0,0.0,3.3281,3.484,3.5026,3.3418,3.4902,3.5189,3.4107,3.4043,3.5929,3.9534,3.9596,4.1308,4.4419,4.4535,4.3693,4.2281,4.3894,4.3693,4.2281,4.3952,4.456,4.4386,4.2866,4.3538,4.4933,4.119,3.8725,3.7318,1.7109,1.7617,0.0,0.0,0.0,0.0,0.0,2.2828,0.0,0.0,2.748,0.0,0.0,3.2402,3.3457,0.0,0.0,3.4414,3.2695,3.0293,0.0,0.0,0.0,2.2422,0.0,0.0,0.0,0.0,0.0,1.6875,1.7168,1.7012,1.7695,0.0,0.0,2.498,0.0,0.0,0.0,0.0,0.0,3.2812,3.4726,0.0,0.0,3.6016,3.6016,3.6016,0.0,3.5332,3.4101,3.2949,3.3789,3.248,3.0801,3.1504,3.1486,0.0,0.0,0.0,3.0151,2.4906,0.0,0.0,0.0,0.0,0.0,0.0,0.0,0.0,0.0,0.0,0.0,0.0,0.0,0.0,0.0,0.0,0.0,0.0,0.0,0.0,0.0,0.0,0.0,0.0,0.0,0.0,0.0,3.3902,3.4084,3.3848,3.4402,3.46,3.4492,3.4492,3.5679,3.812,3.9206,4.1053,4.3638,4.3493,4.4012,4.4861,4.4269,4.4329,4.4921,4.5485,4.5748,4.5545,4.3904,4.3695,4.3975,4.1312,4.0122,3.9517,1.7793,1.793,0.0,0.0,0.0,0.0,0.0,0.0,0.0,0.0,2.8359,0.0,3.2363,0.0,3.3926,0.0,3.5449,3.4883,3.3125,3.1582,0.0,3.0723,2.666,0.0,0.0,0.0,0.0,0.0,0.0,1.8144,1.875,1.8125,0.0,0.0,0.0,2.5039,2.8457,0.0,3.2363,0.0,0.0,3.3769,0.0,0.0,3.5742,3.5391,0.0,3.6016,3.6016,3.6016,3.5098,3.418,3.5586,3.4101,3.2148,3.3535,3.2949,3.1699,3.0918,3.1738,0.0,2.7324,2.6855,0.0,2.1894,0.0,0.0,0.0,0.0,0.0,0.0,0.0,0.0,0.0,0.0,0.0,0.0,1.5527,0.0,0.0,0.0,0.0,0.0,0.0,0.0,0.0,0.0,0.0,0.0,0.0,3.4561,3.4342,3.4858,3.5077,3.4941,3.556,3.6773,3.87,4.0343,4.2225,4.4196,4.3477,4.3975,4.5342,4.4165,4.4374,4.5403,4.5403,4.5403,4.522,4.3482,4.2832,4.266,4.1266,4.0976,4.086,1.8559,1.8344,1.8262,0.0,1.9746,0.0,0.0,0.0,2.5312,0.0,2.9019,3.0762,3.334,3.4336,3.5156,3.6016,3.6836,3.625,3.3769,3.3164,0.0,0.0,3.0449,2.9824,3.1582,0.0,0.0,0.0,0.0,0.0,0.0,0.0,0.0,0.0,2.1855,0.0,2.8379,2.9668,3.2461,3.6016,3.6016,3.5976,3.5937,3.6016,3.5234,3.4277,3.5566,3.6016,3.6016,3.6016,3.6016,3.6016,3.6016,3.6016,3.6016,3.6016,3.6016,3.5566,3.3516,3.2949,3.2246,2.9258,0.0,0.0,0.0,0.0,2.5801,0.0,0.0,0.0,0.0,0.0,0.0,0.0,0.0,0.0,0.0,0.0,0.0,0.0,0.0,0.0,0.0,0.0,0.0,0.0,0.0,0.0,0.0,0.0,3.6216,3.4792,3.6313,3.6603,3.543,3.7119,3.9045,4.1245,4.2832,4.4497,4.612,4.4374,4.3606,4.3606,4.3606,4.3606,4.3606,4.3606,4.3606,4.3396,4.182,4.1181,4.1181,4.1181,4.1117,4.1052,1.916,1.9551,1.9979,0.0,2.039,2.0899,0.0,0.0,0.0,0.0,3.1523,3.3789,3.6055,3.6504,3.6719,3.6953,3.7168,0.0,0.0,0.0,0.0,3.6094,3.2441,3.1191,3.2891,2.7988,0.0,2.457,0.0,0.0,2.0216,0.0,0.0,0.0,0.0,0.0,2.8359,2.9336,3.2168,3.6016,3.6016,3.5449,0.0,0.0,3.5684,3.4668,3.5664,3.6016,3.6016,3.6016,3.6016,3.6016,3.6016,3.6016,3.6016,3.6016,3.6016,3.5898,3.5332,3.5195,3.4629,3.2226,3.1152,3.0059,0.0,0.0,0.0,0.0,0.0,0.0,0.0,0.0,0.0,0.0,0.0,0.0,0.0,0.0,0.0,1.7363,0.0,0.0,0.0,0.0,0.0,0.0,0.0,0.0,0.0,0.0,0.0,3.5183,3.6848,3.7139,3.5859,3.7524,3.9389,4.1181,4.1629,4.2706,4.4312,4.258,4.182,4.182,4.182,4.182,4.182,4.182,4.182,4.182,4.1373,4.1181,4.1181,4.1181,4.0408,3.9431,1.992,2.084,0.0,2.1445,0.0,0.0,2.3809,2.498,0.0,3.0098,3.2266,0.0,3.5976,3.7168,3.7851,3.7851,3.7851,0.0,3.623,0.0,0.0,3.5898,3.4473,3.4062,3.4824,3.1074,0.0,2.7082,0.0,0.0,2.1035,0.0,0.0,0.0,0.0,2.3633,0.0,2.9726,3.248,3.4961,3.5918,0.0,0.0,3.6504,3.6484,3.5898,3.6406,3.6465,3.6309,3.6309,3.6172,3.6016,3.6016,3.6016,3.6016,3.6016,3.6016,3.6016,3.6016,3.6016,3.5723,3.4512,3.3848,3.293,3.0762,3.0625,3.084,0.0,0.0,0.0,0.0,0.0,0.0,0.0,0.0,0.0,0.0,0.0,0.0,0.0,0.0,0.0,0.0,0.0,0.0,0.0,0.0,0.0,0.0,0.0,0.0,3.397,3.6007,3.711,3.7126,3.8861,4.0213,4.1181,4.1947,4.2769,4.3606,4.1181,4.086,4.2201,4.0731,4.0472,4.1117,4.0408,4.0537,4.1181,4.1181,4.1181,4.1309,4.2011,4.167,4.1094,2.0703,2.1992,0.0,0.0,0.0,0.0,0.0,2.6613,0.0,3.0937,0.0,3.3965,3.5078,3.7226,3.8574,3.8574,0.0,3.7617,3.5351,3.6973,3.7012,3.4766,3.6406,3.7207,3.6836,3.4648,0.0,0.0,0.0,0.0,0.0,0.0,0.0,0.0,0.0,0.0,0.0,3.0586,3.3203,3.4004,3.5918,3.6699,3.6797,3.7226,3.7383,3.7383,3.7441,3.7148,3.6758,3.6758,3.6465,3.6094,3.6094,3.6074,3.6016,3.6016,3.6016,3.6016,3.6016,3.6016,3.6016,3.6016,3.6016,3.5527,3.3652,3.3223,3.3223,3.3223,3.1719,3.1465,0.0,0.0,0.0,0.0,0.0,0.0,0.0,0.0,0.0,0.0,0.0,0.0,0.0,0.0,0.0,0.0,0.0,0.0,0.0,0.0,0.0,3.2698,3.5107,3.6991,3.8287,0.0,4.086,4.086,4.258,4.3333,4.3271,4.0278,4.0472,4.2895,3.9888,3.9322,4.0408,3.8861,3.9431,4.1245,4.1437,4.1565,4.1693,4.3146,4.3544,4.3606,2.1191,0.0,0.0,0.0,0.0,2.7715,2.9785,3.1465,3.2871,3.3906,3.6094,3.7656,3.7871,3.8301,3.8574,3.8574,3.8574,0.0,0.0,0.0,0.0,3.7812,3.7812,3.7773,3.7715,3.5234,3.2344,0.0,0.0,0.0,0.0,0.0,0.0,0.0,0.0,0.0,2.834,3.1465,0.0,3.6133,3.6523,3.6875,3.7226,3.7656,3.7812,3.7871,3.8223,3.7851,3.7187,3.7187,3.6914,3.6562,3.6562,3.6309,3.6016,3.6016,3.6016,3.6016,3.6016,3.6016,3.6016,3.6016,3.6016,3.5918,3.5547,3.5449,3.5449,3.5449,3.5156,3.4473,3.3086,0.0,0.0,0.0,0.0,0.0,0.0,0.0,0.0,0.0,0.0,0.0,0.0,0.0,0.0,0.0,0.0,0.0,0.0,0.0,0.0,0.0,3.713,0.0,0.0,0.0,3.9059,3.9059,4.0795,4.1629,4.1629,4.1052,4.0278,3.9431,3.8861,3.7955,3.6856,3.6606,3.8353,4.1309,4.2706,4.3271,4.3271,4.3606,4.2832,4.1884,0.0,0.0,0.0,0.0,0.0,0.0,0.0,3.4883,3.5996,3.4844,3.5781,3.6562,3.6562,3.7773,3.8574,3.8574,3.8574,3.8574,3.8574,3.8574,3.8574,3.8574,3.8379,0.0,3.793,3.6699,3.3945,2.957,0.0,0.0,0.0,0.0,0.0,0.0,0.0,2.4551,0.0,0.0,0.0,3.5449,3.6777,3.7441,3.7676,3.8105,3.8262,3.8281,3.8496,3.8301,3.793,3.7695,3.7207,3.668,3.668,3.6367,3.6016,3.6016,3.6016,3.6016,3.6016,3.6016,3.6016,3.6016,3.6016,3.6016,3.6016,3.6016,3.6016,3.6016,3.6016,3.5234,3.2637,2.9883,0.0,0.0,0.0,0.0,0.0,0.0,0.0,0.0,0.0,0.0,0.0,0.0,0.0,0.0,0.0,0.0,0.0,0.0,0.0,0.0,0.0,0.0,0.0,0.0,0.0,3.9953,3.9888,4.0343,4.1117,3.9322,3.8531,3.8597,3.8597,3.8154,3.7508,3.9235,4.0966,4.258,4.3396,4.3731,4.3606,4.2706,4.2454,4.2643,0.0,2.5234,0.0,0.0,3.0762,0.0,3.4492,3.6894,3.7832,3.5801,3.5527,3.5527,3.5527,3.7344,3.8574,3.8574,3.8574,3.8574,3.8574,3.8574,3.8574,3.8574,3.8574,3.8418,3.8066,3.8066,3.5703,0.0,0.0,0.0,0.0,0.0,0.0,0.0,0.0,0.0,0.0,0.0,3.4082,3.5059,3.7109,3.7969,3.8105,3.8437,3.8574,3.8574,3.8574,3.8574,3.8516,3.8184,3.7559,3.6914,3.6836,3.6504,3.6133,3.6055,3.6016,3.6016,3.6016,3.6016,3.6016,3.6016,3.6016,3.6016,3.6016,3.6016,3.6016,3.6016,3.6016,3.5234,3.2637,3.0937,0.0,0.0,0.0,0.0,0.0,0.0,0.0,0.0,0.0,0.0,0.0,0.0,0.0,0.0,0.0,0.0,0.0,0.0,0.0,0.0,0.0,3.7218,3.7218,0.0,4.0083,4.0083,3.9059,3.9322,4.0537,3.7822,3.7508,3.9125,3.8729,3.8795,3.9366,4.2454,4.3458,4.3208,4.3979,4.3793,4.302,4.1693,4.2011,4.3083,0.0,0.0,0.0,0.0,0.0,0.0,3.4668,3.6894,3.8496,3.8242,3.8203,3.8203,3.8203,3.8437,3.8574,3.8574,3.8574,3.8574,3.8574,3.8574,3.8574,3.8574,3.8574,3.8555,3.8516,3.8516,3.6738,0.0,0.0,0.0,0.0,0.0,0.0,0.0,0.0,0.0,0.0,3.3672,3.5391,3.7578,3.7832,3.8164,3.8516,3.8555,3.8574,3.8574,3.8574,3.8574,3.8574,3.8535,3.8203,3.7734,3.7363,3.6953,3.6543,3.6133,3.6016,3.6016,3.6016,3.6016,3.6016,3.6016,3.6016,3.6016,3.6016,3.6016,3.6016,3.6016,3.6016,3.5234,3.2637,3.3887,3.4512,0.0,0.0,0.0,0.0,0.0,0.0,0.0,0.0,0.0,0.0,0.0,0.0,0.0,0.0,0.0,0.0,0.0,0.0,3.2111,0.0,3.2826,3.2826,3.5218,3.6471,3.6471,3.7888,3.8663,3.8861,3.8486,3.9322,4.086,3.9322,3.9518,4.1117,4.2958,4.2832,4.1756,4.4829,4.4189,4.1437,4.1245,4.1309,4.1181,0.0,0.0,0.0,0.0,0.0,0.0,0.0,3.791,3.8574,3.8574,3.8574,3.8574,3.8574,3.8574,3.8574,3.8574,3.8574,3.8574,3.8574,3.8574,3.8574,3.8574,3.8574,3.8574,3.8574,3.8574,3.7129,0.0,0.0,0.0,0.0,0.0,0.0,0.0,0.0,3.1797,3.3926,3.5644,3.6973,3.7949,3.8203,3.8418,3.8574,3.8574,3.8574,3.8574,3.8574,3.8574,3.8574,3.8574,3.8281,3.7851,3.7422,3.7012,3.6582,3.6152,3.6016,3.6016,3.6016,3.6016,3.6016,3.6016,3.6016,3.6016,3.6016,3.6016,3.6016,3.6016,3.6016,3.5703,3.4668,3.4062,3.3887,0.0,0.0,0.0,0.0,0.0,0.0,0.0,0.0,0.0,0.0,0.0,0.0,0.0,0.0,0.0,0.0,0.0,0.0,3.1367,0.0,3.5534,3.4473,3.6515,3.7575,3.7575,3.7173,3.7575,3.8597,3.8597,4.0083,4.2643,4.1924,4.2074,4.2769,4.3396,4.2706,4.1245,4.1565,4.1501,4.0924,3.8861,3.9366,4.0924,3.2988,0.0,3.3437,0.0,3.6055,3.6465,3.8301,3.8574,3.8574,3.8574,3.8574,3.8574,3.8574,3.8574,3.8574,3.8574,3.8574,3.8574,3.8574,3.8574,3.8574,3.8574,3.8574,0.0,3.8574,3.8574,3.7676,3.584,3.2637,0.0,0.0,0.0,0.0,0.0,3.293,3.4394,3.5508,3.7344,3.8105,3.8144,3.8457,3.8574,3.8574,3.8574,3.8574,3.8574,3.8574,3.8574,3.8574,3.8574,3.8359,3.8027,3.7461,3.709,3.6738,3.6191,3.6016,3.6016,3.6016,3.6016,3.6016,3.6016,3.6016,3.6016,3.6016,3.6016,3.6016,3.6016,3.6016,3.6016,3.6016,3.4531,3.3906,3.5723,0.0,0.0,0.0,0.0,0.0,0.0,0.0,3.1855,3.1543,0.0,0.0,0.0,0.0,0.0,0.0,0.0,0.0,0.0,0.0,0.0,0.0,3.6856,3.7822,3.7842,3.7126,3.7441,3.8597,3.9627,4.1158,4.2958,4.3458,4.3396,4.2958,4.2958,4.1947,4.0408,4.0213,4.0213,4.0213,3.8287,3.9125,4.086,3.4941,3.5351,3.6016,3.8164,3.8535,3.8535,3.8574,3.8574,3.8574,3.8574,3.8574,3.8574,3.8574,3.8574,3.8574,3.8574,3.8574,3.8574,3.8574,3.8574,3.8574,0.0,0.0,3.8574,3.8574,3.8574,3.8555,3.8535,0.0,0.0,3.3262,0.0,3.1113,3.4043,3.4473,3.6113,3.8516,3.8555,3.8574,3.8574,3.8574,3.8574,3.8574,3.8574,3.8574,3.8574,3.8574,3.8574,3.8574,3.8574,3.8574,3.8418,3.7559,3.7285,3.7129,3.6269,3.6016,3.6016,3.6016,3.6016,3.6016,3.6016,3.6016,3.6016,3.6016,3.6016,3.6016,3.6016,3.6016,3.6016,3.6016,3.5996,3.5976,3.6016,0.0,0.0,0.0,0.0,0.0,0.0,3.1543,3.1523,3.1523,0.0,0.0,0.0,0.0,0.0,0.0,0.0,0.0,3.2148,3.2248,0.0,3.2268,3.4746,3.6016,3.6084,3.7755,3.8597,3.8729,4.2115,4.2769,4.1309,4.2958,4.2769,4.1245,4.1245,4.0213,3.8993,4.2328,4.1606,3.8861,4.0537,4.1181,4.0731,3.7422,3.7559,3.7773,3.8457,3.8574,3.8574,3.8574,3.8574,3.8574,3.8574,3.8574,3.8574,3.8574,3.8574,3.8574,0.0,3.8574,3.8574,0.0,3.8574,3.8574,3.8574,3.8574,3.8574,3.8574,3.8574,3.8574,3.8574,0.0,0.0,0.0,3.3457,3.4531,3.7148,3.7285,3.7793,3.8574,3.8574,3.8574,3.8574,3.8574,3.8574,3.8574,3.8574,3.8574,3.8574,3.8574,3.8574,3.8574,3.8574,3.8574,3.8418,3.7578,3.7305,3.7129,3.6269,3.6016,3.6016,3.6016,3.6016,3.6016,3.6016,3.6016,3.6016,3.6016,3.6016,3.6016,3.6016,3.6016,3.6016,3.6016,3.6016,3.6016,3.6016,3.6016,0.0,0.0,0.0,0.0,0.0,3.459,3.459,0.0,3.459,0.0,0.0,0.0,0.0,0.0,0.0,0.0,0.0,3.3574,0.0,3.4805,3.5605,3.6016,3.6016,3.7775,3.9256,4.0408,4.1501,4.1693,4.1309,4.2958,4.2769,4.1181,4.1181,4.086,4.0213,3.8927,3.9256,4.0148,3.8353,3.842,3.9125,3.8574,3.8574,3.8574,3.8574,3.8574,3.8574,3.8574,3.8574,3.8574,3.8574,3.8574,3.8574,3.8574,3.8574,0.0,3.8574,3.8574,3.8574,3.8574,3.8574,3.8574,3.8574,3.8574,3.8574,3.8574,3.8574,0.0,3.8574,3.6953,3.6152,3.6152,3.6152,3.7012,3.8574,3.8574,3.8574,3.8574,3.8574,3.8574,3.8574,3.8574,3.8574,3.8574,3.8574,3.8574,3.8574,3.8574,3.8574,3.8574,3.8574,3.8574,3.8418,3.7578,3.7305,3.7129,3.6269,3.6016,3.6016,3.6016,3.6016,3.6016,3.6016,3.6016,3.6016,3.6016,3.6016,3.6016,3.6016,3.6016,3.6016,3.6016,3.6016,3.6016,3.6016,3.6016,3.6016,3.6016,0.0,0.0,0.0,0.0,0.0,0.0,3.4336,3.3906,0.0,0.0,0.0,0.0,0.0,0.0,3.2851,3.4902,0.0,3.6016,3.6016,3.6016,3.6016,3.7775,3.9497,4.1245,4.1884,4.1437,4.0343,4.2706,4.2011,3.9322,3.9953,3.9823,3.9125,3.7575,3.7888,3.9059,3.7508,3.724,3.7441,3.8574,3.8574,3.8574,0.0,3.8574,0.0,3.8574,3.8574,3.8574,3.8574,3.8574,3.8574,3.8574,3.8574,3.8574,3.8574,0.0,0.0,0.0,3.8574,3.8574,3.8574,3.8574,3.8574,3.8574,3.8574,3.8574,3.8574,3.8574,3.8574,3.8574,3.8574,3.8574,3.8574,3.8574,3.8574,3.8574,3.8574,3.8574,3.8574,3.8574,3.8574,3.8574,3.8574,3.8574,3.8574,3.8574,3.8574,3.8574,3.8574,3.8574,3.8437,3.7598,3.7324,3.7129,3.6269,3.6016,3.6016,3.6016,3.6016,3.6016,3.6016,3.6016,3.6016,3.6016,3.6016,3.6016,3.6016,3.6016,3.6016,3.6016,3.6016,3.6016,3.6016,3.6016,3.6016,3.6016,0.0,0.0,0.0,0.0,0.0,0.0,3.1836,3.2891,0.0,0.0,0.0,0.0,0.0,3.3359,3.5937,3.6016,3.6016,3.6016,3.6016,3.6084,3.6219,3.7822,3.9431,4.1052,4.2643,4.1542,3.8597,4.1924,4.0644,3.6287,3.7955,3.7709,3.6471,3.7888,3.7508,3.6336,3.7888,3.7374,3.6016,0.0,0.0,3.8574,3.8574,3.8574,3.8574,3.8574,3.8574,3.8574,3.8574,3.8574,3.8574,3.8574,3.8574,3.8574,3.8574,3.8574,3.8574,3.8574,3.8574,3.8574,3.8574,3.8574,3.8574,3.8574,3.8574,3.8574,3.8574,3.8574,3.8574,3.8574,3.8574,3.8574,3.8574,3.8574,3.8574,3.8574,3.8574,3.8574,3.8574,3.8574,3.8574,3.8574,3.8574,3.8574,3.8574,3.8574,3.8574,3.8574,3.8574,3.8574,3.8476,3.7949,3.7559,3.7129,3.6269,3.6016,3.6016,3.6016,3.6016,3.6016,3.6016,3.6016,3.6016,3.6016,3.6016,3.6016,3.6016,3.6016,3.6016,3.6016,3.6016,3.6016,3.6016,3.6016,3.6016,3.6016,3.6016,0.0,0.0,3.4961,3.4961,3.4961,3.4961,3.416,0.0,0.0,0.0,0.0,3.2148,3.3359,3.5937,3.6016,3.6016,3.6016,3.6016,3.6674,3.7955,3.842,3.8795,3.9256,3.9627,3.8663,3.6722,3.8861,3.9103,3.8021,3.842,3.9125,3.9758,3.7508,3.7193,3.7888,3.6924,3.6336,3.6016,3.8574,3.8574,3.8574,3.8574,3.8574,3.8574,3.8574,3.8574,3.8574,3.8574,3.8574,3.8574,3.8574,3.8574,3.8574,3.8574,3.8574,3.8574,3.8574,3.8574,3.8574,3.8574,3.8574,3.8574,3.8574,3.8574,3.8574,3.8574,3.8574,3.8574,3.8574,3.8574,3.8574,3.8574,3.8574,3.8574,3.8574,3.8574,3.8574,3.8574,3.8574,3.8574,3.8574,3.8574,3.8574,3.8574,3.8574,3.8574,3.8574,3.8574,3.8574,3.8496,3.8066,3.7637,3.7168,3.6504,3.6172,3.6016,3.6016,3.6016,3.6016,3.6016,3.6016,3.6016,3.6016,3.6016,3.6016,3.6016,3.6016,3.6016,3.6016,3.6016,3.6016,3.6016,3.5195,3.4883,3.5879,3.5176,0.0,3.5898,3.6016,3.6016,3.6016,3.6016,3.5254,3.3379,3.3672,0.0,3.3262,3.3867,3.4785,3.5976,3.6016,3.6016,3.6016,3.6016,3.7024,3.8979,3.815,3.8253,3.9294,3.9227,3.8235,3.674,3.9227,3.9428,3.8051,3.8844,3.9294,3.9227,3.732,3.7202,3.7915,3.6927,3.6601,3.6601,3.8574,3.8574,3.8574,3.8574,3.8574,3.8574,3.8574,3.8574,3.8574,3.8574,3.8574,3.8574,3.8574,3.8574,3.8574,3.8574,3.8574,3.8574,3.8574,3.8574,3.8574,3.8574,3.8574,3.8574,3.8574,3.8574,3.8574,3.8574,3.8574,3.8574,3.8574,3.8574,3.8574,3.8574,3.8574,3.8574,3.8574,3.8574,3.8574,3.8574,3.8574,3.8574,3.8574,3.8574,3.8574,3.8574,3.8574,3.8574,3.8574,3.8574,3.8574,3.8516,3.8144,3.7695,3.7226,3.6875,3.6406,3.6016,3.6016,3.6016,3.6016,3.6016,3.6016,3.6016,3.6016,3.6016,3.6016,3.6016,3.6016,3.6016,3.6016,3.6016,3.5918,3.5586,3.4277,3.3809,3.5332,0.0,3.3965,3.5801,3.6016,3.6016,3.6016,3.6074,3.6113,3.6113,3.6172,3.6211,3.6211,3.6562,3.6601,3.623,3.6211,3.6211,3.6211,3.6211,3.7188,3.9057,3.7568,3.7817,3.966,3.9571,3.8714,3.7426,4.035,3.9962,3.7426,3.9178,3.8902,3.7305,3.7637,3.7566,3.7305,3.7305,3.7305,3.7305,3.8574,3.8574,3.8574,3.8574,3.8574,3.8574,3.8574,3.8574,3.8574,3.8574,3.8574,3.8574,3.8574,3.8574,3.8574,3.8574,3.8574,3.8574,3.8574,3.8574,3.8574,3.8574,3.8574,3.8574,3.8574,3.8574,3.8574,3.8574,3.8574,3.8574,3.8574,3.8574,3.8574,3.8574,3.8574,3.8574,3.8574,3.8574,3.8574,3.8574,3.8574,3.8574,3.8574,3.8574,3.8574,3.8574,3.8574,3.8574,3.8574,3.8574,3.8574,3.8555,3.8496,3.793,3.7285,3.7226,3.6641,3.6016,3.6016,3.6016,3.6016,3.6016,3.6016,3.6016,3.6016,3.6016,3.6016,3.6016,3.6016,3.6016,3.6016,3.6016,3.543,3.3594,3.4551,3.5,3.3496,0.0,3.5644,3.5976,3.6016,3.6016,3.6016,3.6348,3.6562,3.6562,3.6894,3.7109,3.7109,3.7168,3.7168,3.7109,3.7109,3.7109,3.7109,3.7109,3.7269,3.7608,3.7328,3.7367,3.7707,3.7707,3.7566,3.7305,3.7827,3.7757,3.7426,3.9316,3.8971,3.7426,3.906,3.8714,3.7305,3.7305,3.7305,3.7305,3.8574,3.8574,3.8574,3.8574,3.8574,3.8574,3.8574,3.8574,3.8574,3.8574,3.8574,3.8574,3.8574,3.8574,3.8574,3.8574,3.8574,3.8574,3.8574,3.8574,3.8574,3.8574,3.8574,3.8574,3.8574,3.8574,3.8574,3.8574,3.8574,3.8574,3.8574,3.8574,3.8574,3.8574,3.8574,3.8574,3.8574,3.8574,3.8574,3.8574,3.8574,3.8574,3.8574,3.8574,3.8574,3.8574,3.8574,3.8574,3.8574,3.8574,3.8574,3.8574,3.8574,3.8144,3.7637,3.7637,3.6875,3.6016,3.6016,3.6016,3.6016,3.6016,3.6016,3.6016,3.6016,3.6016,3.6016,3.6016,3.6016,3.6016,3.6016,3.6016,3.5684,3.4687,3.4394,0.0,0.0,3.4394,3.4805,3.6211,3.6367,3.6465,3.668,3.6894,3.7012,3.7012,3.7187,3.7305,3.7305,3.7519,3.7637,3.7637,3.7422,3.7305,3.7305,3.7305,3.7946,3.9129,3.8114,3.8303,3.9404,3.847,3.7988,3.7988,3.7988,3.7988,3.806,3.8948,3.8806,3.806,3.8948,3.8735,3.7988,3.7988,3.7988,3.7988,3.8574,3.8574,3.8574,3.8574,3.8574,3.8574,3.8574,3.8574,3.8574,3.8574,3.8574,3.8574,3.8574,3.8574,3.8574,3.8574,3.8574,3.8574,3.8574,3.8574,3.8574,3.8574,3.8574,3.8574,3.8574,3.8574,3.8574,3.8574,3.8574,3.8574,3.8574,3.8574,3.8574,3.8574,3.8574,3.8574,3.8574,3.8574,3.8574,3.8574,3.8574,3.8574,3.8574,3.8574,3.8574,3.8574,3.8574,3.8574,3.8574,3.8574,3.8574,3.8574,3.8574,3.8281,3.793,3.793,3.7168,3.6269,3.6074,3.6016,3.6016,3.6016,3.6016,3.6016,3.6016,3.6016,3.6016,3.6016,3.6016,3.6016,3.6016,3.6016,3.5859,3.5351,0.0,0.0,0.0,3.4512,3.459,3.6582,3.6816,3.6953,3.7266,3.7383,3.7441,3.7441,3.7539,3.7598,3.7598,3.7891,3.8086,3.8086,3.7754,3.7598,3.7598,3.7598,3.8516,4.0212,3.8763,3.9014,4.0636,3.9261,3.8574,3.8574,3.8574,3.8574,3.8647,3.9063,3.8991,3.8647,3.9063,3.8991,3.8574,3.8574,3.8574,3.8647,3.8574,3.8574,3.8574,3.8574,3.8574,3.8574,3.8574,3.8574,3.8574,3.8574,3.8574,3.8574,3.8574,3.8574,3.8574,3.8574,3.8574,3.8574,3.8574,3.8574,3.8574,3.8574,3.8574,3.8574,3.8574,3.8574,3.8574,3.8574,3.8574,3.8574,3.8574,3.8574,3.8574,3.8574,3.8574,3.8574,3.8574,3.8574,3.8574,3.8574,3.8574,3.8574,3.8574,3.8574,3.8574,3.8574,3.8574,3.8574,3.8574,3.8574,3.8574,3.8574,3.8574,3.8281,3.793,3.793,3.7578,3.7031,3.623,3.6016,3.6016,3.6016,3.6016,3.6016,3.6016,3.6016,3.6016,3.6016,3.6016,3.6016,3.6016,3.6016,3.5371,3.3359,0.0,0.0,3.3867,3.5547,3.7031,3.7226,3.7246,3.7266,3.7285,3.7656,3.7871,3.7871,3.8262,3.8476,3.8476,3.8516,3.8535,3.8535,3.8496,3.8476,3.8476,3.8476,3.8569,3.8734,3.8588,3.8608,3.8773,3.8647,3.8574,3.8574,3.8574,3.8574,3.872,4.0443,4.0085,3.8793,4.0443,4.0085,3.8574,3.8574,3.8574,3.8846,3.8574,3.8574,3.8574,3.8574,3.8574,3.8574,3.8574,3.8574,3.8574,3.8574,3.8574,3.8574,3.8574,3.8574,3.8574,3.8574,3.8574,3.8574,3.8574,3.8574,3.8574,3.8574,3.8574,3.8574,3.8574,3.8574,3.8574,3.8574,3.8574,3.8574,3.8574,3.8574,3.8574,3.8574,3.8574,3.8574,3.8574,3.8574,3.8574,3.8574,3.8574,3.8574,3.8574,3.8574,3.8574,3.8574,3.8574,3.8574,3.8574,3.8574,3.8574,3.8574,3.8574,3.8457,3.8281,3.8008,3.7812,3.7559,3.6973,3.6621,3.6348,3.6094,3.6016,3.6016,3.6016,3.6016,3.6016,3.6016,3.623,3.6426,3.6426,3.6641,3.6543,3.5723,0.0,3.6777,3.5937,3.668,3.7402,3.7656,3.7676,3.7793,3.8066,3.8242,3.832,3.832,3.8476,3.8574,3.8574,3.8574,3.8574,3.8574,3.8574,3.8574,3.8574,3.8574,3.8574,3.8574,3.8574,3.8574,3.8574,3.8574,3.8574,3.8574,3.8574,3.8574,3.8647,3.9333,3.9188,3.8647,3.9333,3.9188,3.8574,3.8574,3.9333,4.0371,3.8574,3.8574,3.8574,3.8574,3.8574,3.8574,3.8574,3.8574,3.8574,3.8574,3.8574,3.8574,3.8574,3.8574,3.8574,3.8574,3.8574,3.8574,3.8574,3.8574,3.8574,3.8574,3.8574,3.8574,3.8574,3.8574,3.8574,3.8574,3.8574,3.8574,3.8574,3.8574,3.8574,3.8574,3.8574,3.8574,3.8574,3.8574,3.8574,3.8574,3.8574,3.8574,3.8574,3.8574,3.8574,3.8574,3.8574,3.8574,3.8574,3.8574,3.8574,3.8574,3.8574,3.8574,3.8516,3.8223,3.8125,3.8027,3.7617,3.7285,3.6953,3.6523,3.6426,3.6426,3.6426,3.6426,3.6426,3.6426,3.666,3.6875,3.6875,3.7109,3.7305,3.7305,3.7402,3.75,3.75,3.7617,3.7812,3.8105,3.8125,3.8242,3.8555,3.8574,3.8574,3.8574,3.8574,3.8574,3.8574,3.8574,3.8574,3.8574,3.8574,3.8574,3.8574,3.8574,3.8574,3.8574,3.8574,3.8574,3.8574,3.8574,3.8574,3.8574,3.8574,3.8574,3.8574,3.8574,3.8574,3.8647,3.9188,3.9136,3.872,3.989,4.0728,4.1467,3.8574,3.8574,3.8574,3.8574,3.8574,3.8574,3.8574,3.8574,3.8574,3.8574,3.8574,3.8574,3.8574,3.8574,3.8574,3.8574,3.8574,3.8574,3.8574,3.8574,3.8574,3.8574,3.8574,3.8574,3.8574,3.8574,3.8574,3.8574,3.8574,3.8574,3.8574,3.8574,3.8574,3.8574,3.8574,3.8574,3.8574,3.8574,3.8574,3.8574,3.8574,3.8574,3.8574,3.8574,3.8574,3.8574,3.8574,3.8574,3.8574,3.8574,3.8574,3.8574,3.8574,3.8574,3.8574,3.8574,3.8574,3.8476,3.8047,3.793,3.7832,3.7402,3.7305,3.7305,3.7305,3.7305,3.7305,3.7305,3.7305,3.7305,3.7305,3.7305,3.7305,3.7305,3.7656,3.793,3.793,3.8301,3.8574,3.8574,3.8574,3.8574,3.8574,3.8574,3.8574,3.8574,3.8574,3.8574,3.8574,3.8574,3.8574,3.8574,3.8574,3.8574,3.8574,3.8574,3.8574,3.8574,3.8574,3.8574,3.8574,3.8574,3.8574,3.8574,3.8647,3.8647,3.8647,3.8647,3.8647,3.8846,4.0636,4.0228,3.9063,4.2731,4.2918,4.1869,3.8574,3.8574,3.8574,3.8574,3.8574,3.8574,3.8574,3.8574,3.8574,3.8574,3.8574,3.8574,3.8574,3.8574,3.8574,3.8574,3.8574,3.8574,3.8574,3.8574,3.8574,3.8574,3.8574,3.8574,3.8574,3.8574,3.8574,3.8574,3.8574,3.8574,3.8574,3.8574,3.8574,3.8574,3.8574,3.8574,3.8574,3.8574,3.8574,3.8574,3.8574,3.8574,3.8574,3.8574,3.8574,3.8574,3.8574,3.8574,3.8574,3.8574,3.8574,3.8574,3.8574,3.8574,3.8574,3.8574,3.8574,3.8555,3.8418,3.8379,3.8203,3.748,3.7305,3.7305,3.7305,3.7305,3.7305,3.7305,3.7539,3.7734,3.7734,3.7988,3.8184,3.8184,3.8301,3.8379,3.8379,3.8496,3.8574,3.8574,3.8574,3.8574,3.8574,3.8574,3.8574,3.8574,3.8574,3.8574,3.8574,3.8574,3.8574,3.8574,3.8574,3.8574,3.8574,3.8574,3.8574,3.8574,3.8574,3.8574,3.8574,3.8574,3.8574,3.8647,3.9962,4.0514,4.0586,4.189,4.2452,4.2522,4.3079,4.294,4.2591,4.3703,4.4573,4.5095,3.8574,3.8574,3.8574,3.8574,3.8574,3.8574,3.8574,3.8574,3.8574,3.8574,3.8574,3.8574,3.8574,3.8574,3.8574,3.8574,3.8574,3.8574,3.8574,3.8574,3.8574,3.8574,3.8574,3.8574,3.8574,3.8574,3.8574,3.8574,3.8574,3.8574,3.8574,3.8574,3.8574,3.8574,3.8574,3.8574,3.8574,3.8574,3.8574,3.8574,3.8574,3.8574,3.8574,3.8574,3.8574,3.8574,3.8574,3.8574,3.8574,3.8574,3.8574,3.8574,3.8574,3.8574,3.8574,3.8574,3.8574,3.8574,3.8574,3.8574,3.8457,3.793,3.7793,3.7793,3.7793,3.7793,3.7793,3.7793,3.8008,3.8184,3.8184,3.8398,3.8574,3.8574,3.8574,3.8574,3.8574,3.8574,3.8574,3.8574,3.8574,3.8574,3.8574,3.8574,3.8574,3.8574,3.8574,3.8574,3.8574,3.8574,3.8574,3.8574,3.8574,3.8574,3.8574,3.8574,3.8574,3.8574,3.8574,3.8991,3.9602,3.8918,3.8991,3.9746,4.085,4.1326,4.1467,4.3357,4.4116,4.4185,4.4914,4.471,4.4185,4.4914,4.5389,4.5592,3.8574,3.8574,3.8574,3.8574,3.8574,3.8574,3.8574,3.8574,3.8574,3.8574,3.8574,3.8574,3.8574,3.8574,3.8574,3.8574,3.8574,3.8574,3.8574,3.8574,3.8574,3.8574,3.8574,3.8574,3.8574,3.8574,3.8574,3.8574,3.8574,3.8574,3.8574,3.8574,3.8574,3.8574,3.8574,3.8574,3.8574,3.8574,3.8574,3.8574,3.8574,3.8574,3.8574,3.8574,3.8574,3.8574,3.8574,3.8574,3.8574,3.8574,3.8574,3.8574,3.8574,3.8574,3.8574,3.8574,3.8574,3.8574,3.8574,3.8574,3.8574,3.8574,3.8574,3.8574,3.8574,3.8574,3.8574,3.8574,3.8574,3.8574,3.8574,3.8574,3.8574,3.8574,3.8574,3.8574,3.8574,3.8574,3.8574,3.8574,3.8574,3.8574,3.8574,3.8574,3.8574,3.8574,3.8574,3.8574,3.8574,3.8574,3.8574,3.8574,3.8574,3.8574,3.8574,3.8793,3.8846,3.8846,3.8846,3.9818,4.1467,3.9818,3.9962,4.1538,4.1749,4.182,4.1939,4.3818,4.4596,4.4801,4.6422,4.6063,4.4801,4.6264,4.5794,4.4299,3.8574,3.8574,3.8574,3.8574,3.8574,3.8574,3.8574,3.8574,3.8574,3.8574,3.8574,3.8574,3.8574,3.8574,3.8574,3.8574,3.8574,3.8574,3.8574,3.8574,3.8574,3.8574,3.8574,3.8574,3.8574,3.8574,3.8574,3.8574,3.8574,3.8574,3.8574,3.8574,3.8574,3.8574,3.8574,3.8574,3.8574,3.8574,3.8574,3.8574,3.8574,3.8574,3.8574,3.8574,3.8574,3.8574,3.8574,3.8574,3.8574,3.8574,3.8574,3.8574,3.8574,3.8574,3.8574,3.8574,3.8574,3.8574,3.8574,3.8574,3.8574,3.8574,3.8574,3.8574,3.8574,3.8574,3.8574,3.8574,3.8574,3.8574,3.8574,3.8574,3.8574,3.8574,3.8574,3.8574,3.8574,3.8574,3.8574,3.8574,3.8574,3.8574,3.8574,3.8574,3.8574,3.8574,3.8574,3.8574,3.8574,3.8574,3.8574,3.8574,3.8574,3.8574,3.8574,4.0033,4.0708,4.0708,4.0708,4.1679,4.3473,4.3079,4.3149,4.3542,4.4959,4.5569,4.5771,4.7665,4.8436,4.8436,4.8828,4.8763,4.8281,4.7221,4.6532,4.5794,3.8574,3.8574,3.8574,3.8574,3.8574,3.8574,3.8574,3.8574,3.8574,3.8574,3.8574,3.8574,3.8574,3.8574,3.8574,3.8574,3.8574,3.8574,3.8574,3.8574,3.8574,3.8574,3.8574,3.8574,3.8574,3.8574,3.8574,3.8574,3.8574,3.8574,3.8574,3.8574,3.8574,3.8574,3.8574,3.8574,3.8574,3.8574,3.8574,3.8574,3.8574,3.8574,3.8574,3.8574,3.8574,3.8574,3.8574,3.8574,3.8574,3.8574,3.8574,3.8574,3.8574,3.8574,3.8574,3.8574,3.8574,3.8574,3.8574,3.8574,3.8574,3.8574,3.8574,3.8574,3.8574,3.8574,3.8574,3.8574,3.8574,3.8574,3.8574,3.8574,3.8574,3.8574,3.8574,3.8574,3.8574,3.8574,3.8574,3.8574,3.8574,3.8574,3.8574,3.8574,3.8574,3.8574,3.8574,3.8574,3.8574,3.8574,3.8991,3.989,3.989,4.03,4.1205,4.2171,4.3057,4.3934,4.3057,4.3611,4.5389,4.4505,4.4573,4.5457,4.6398,4.6798,4.6865,4.7839,4.8257,4.8257,4.8257,4.8257,4.8126,4.7154,4.5704,4.3796,3.8574,3.8574,3.8574,3.8574,3.8574,3.8574,3.8574,3.8574,3.8574,3.8574,3.8574,3.8574,3.8574,3.8574,3.8574,3.8574,3.8574,3.8574,3.8574,3.8574,3.8574,3.8574,3.8574,3.8574,3.8574,3.8574,3.8574,3.8574,3.8574,3.8574,3.8574,3.8574,3.8574,3.8574,3.8574,3.8574,3.8574,3.8574,3.8574,3.8574,3.8574,3.8574,3.8574,3.8574,3.8574,3.8574,3.8574,3.8574,3.8574,3.8574,3.8574,3.8574,3.8574,3.8574,3.8574,3.8574,3.8574,3.8574,3.8574,3.8574,3.8574,3.8574,3.8574,3.8574,3.8574,3.8574,3.8574,3.8574,3.8574,3.8574,3.8574,3.8574,3.8574,3.8574,3.8574,3.8574,3.8574,3.8574,3.8574,3.8574,3.8574,3.8574,3.8574,3.8574,3.8574,3.8574,3.8574,3.8574,3.8574,3.8574,3.9405,4.1255,4.1326,4.2171,4.4116,4.4368,4.5321,4.6798,4.5592,4.5818,4.7221,4.575,4.5659,4.6798,4.6798,4.6599,4.6331,4.6331,4.6331,4.6398,4.6665,4.6798,4.6798,4.6798,4.4687,4.1538,3.8574,3.8574,3.8574,3.8574,3.8574,3.8574,3.8574,3.8574,3.8574,3.8574,3.8574,3.8574,3.8574,3.8574,3.8574,3.8574,3.8574,3.8574,3.8574,3.8574,3.8574,3.8574,3.8574,3.8574,3.8574,3.8574,3.8574,3.8574,3.8574,3.8574,3.8574,3.8574,3.8574,3.8574,3.8574,3.8574,3.8574,3.8574,3.8574,3.8574,3.8574,3.8574,3.8574,3.8574,3.8574,3.8574,3.8574,3.8574,3.8574,3.8574,3.8574,3.8574,3.8574,3.8574,3.8574,3.8574,3.8574,3.8574,3.8574,3.8574,3.8574,3.8574,3.8574,3.8574,3.8574,3.8574,3.8574,3.8574,3.8574,3.8574,3.8574,3.8574,3.8574,3.8574,3.8574,3.8574,3.8574,3.8574,3.8574,3.8574,3.8574,3.8574,3.8574,3.8574,3.8574,3.8574,3.8574,3.8574,3.8574,3.8574,3.9405,4.1255,4.1326,4.2171,4.4116,4.5659,4.6532,4.6798,4.8216,4.8983,4.9242,4.8983,4.8126,4.6798,4.6798,4.5929,4.4436,4.4436,4.4436,4.4641,4.6197,4.6798,4.6798,4.6798,4.5524,4.3703,3.8574,3.8574,3.8574,3.8574,3.8574,3.8574,3.8574,3.8574,3.8574,3.8574,3.8574,3.8574,3.8574,3.8574,3.8574,3.8574,3.8574,3.8574,3.8574,3.8574,3.8574,3.8574,3.8574,3.8574,3.8574,3.8574,3.8574,3.8574,3.8574,3.8574,3.8574,3.8574,3.8574,3.8574,3.8574,3.8574,3.8574,3.8574,3.8574,3.8574,3.8574,3.8574,3.8574,3.8574,3.8574,3.8574,3.8574,3.8574,3.8574,3.8574,3.8574,3.8574,3.8574,3.8574,3.8574,3.8574,3.8574,3.8574,3.8574,3.8574,3.8574,3.8574,3.8574,3.8574,3.8574,3.8574,3.8574,3.8574,3.8574,3.8574,3.8574,3.8574,3.8574,3.8574,3.8574,3.8574,3.8574,3.8574,3.8574,3.8574,3.8574,3.8574,3.8574,3.8574,3.8574,3.8574,3.8574,3.8574,3.8574,3.8574,3.9405,4.1255,4.1326,4.2709,4.5592,4.6398,4.7353,4.8412,4.9177,4.9023,4.806,4.806,4.7575,4.6798,4.6798,4.6955,4.7112,4.6019,4.5592,4.5659,4.6465,4.7443,4.8257,4.7221,4.6264,4.5457]}]]